<?xml version="1.0" encoding="UTF-8" standalone="no" ?>
<gpx xmlns="http://www.topografix.com/GPX/1/1" xmlns:xsi="http://www.w3.org/2001/XMLSchema-instance" xsi:schemaLocation="http://www.topografix.com/GPX/1/1 http://www.topografix.com/GPX/1/1/gpx.xsd" version="1.1" creator="VisuGPX - https://www.visugpx.com">
  <metadata>
    <name>Bensafrim Eole Lac</name>
    <desc><![CDATA[Rando sur les cretes des eolienes, sans grande difficulté technique mais avec de forts pourcentages. Alternance de pistes sur les cretes avec une vue dégagée jusqu'a Lagos et un passage sur les bords du lac de Bravura.]]></desc>
  </metadata>
  <trk>
    <name><![CDATA[Bensafrim Eole Lac]]></name>
    <trkseg>
      <trkpt lat="37.13739" lon="-8.69089">
        <ele>47.72</ele>
        <time>2021-01-24T09:15:24Z</time>
      </trkpt>
      <trkpt lat="37.13739" lon="-8.6909">
        <ele>47.72</ele>
        <time>2021-01-24T09:15:35Z</time>
      </trkpt>
      <trkpt lat="37.13756" lon="-8.69103">
        <ele>47.72</ele>
        <time>2021-01-24T09:15:44Z</time>
      </trkpt>
      <trkpt lat="37.13775" lon="-8.69115">
        <ele>48.2</ele>
        <time>2021-01-24T09:15:53Z</time>
      </trkpt>
      <trkpt lat="37.13782" lon="-8.69132">
        <ele>48.2</ele>
        <time>2021-01-24T09:15:59Z</time>
      </trkpt>
      <trkpt lat="37.13783" lon="-8.69168">
        <ele>48.2</ele>
        <time>2021-01-24T09:16:08Z</time>
      </trkpt>
      <trkpt lat="37.13788" lon="-8.69204">
        <ele>48.2</ele>
        <time>2021-01-24T09:16:16Z</time>
      </trkpt>
      <trkpt lat="37.13803" lon="-8.69222">
        <ele>48.2</ele>
        <time>2021-01-24T09:16:22Z</time>
      </trkpt>
      <trkpt lat="37.1383" lon="-8.69228">
        <ele>48.2</ele>
        <time>2021-01-24T09:16:29Z</time>
      </trkpt>
      <trkpt lat="37.13862" lon="-8.6923">
        <ele>48.2</ele>
        <time>2021-01-24T09:16:38Z</time>
      </trkpt>
      <trkpt lat="37.139" lon="-8.69237">
        <ele>48.2</ele>
        <time>2021-01-24T09:16:49Z</time>
      </trkpt>
      <trkpt lat="37.13939" lon="-8.69248">
        <ele>50.13</ele>
        <time>2021-01-24T09:17:01Z</time>
      </trkpt>
      <trkpt lat="37.13954" lon="-8.69249">
        <ele>51.09</ele>
        <time>2021-01-24T09:17:06Z</time>
      </trkpt>
      <trkpt lat="37.13985" lon="-8.69254">
        <ele>51.57</ele>
        <time>2021-01-24T09:17:15Z</time>
      </trkpt>
      <trkpt lat="37.14011" lon="-8.6926">
        <ele>51.57</ele>
        <time>2021-01-24T09:17:22Z</time>
      </trkpt>
      <trkpt lat="37.14045" lon="-8.69269">
        <ele>52.53</ele>
        <time>2021-01-24T09:17:32Z</time>
      </trkpt>
      <trkpt lat="37.14076" lon="-8.69277">
        <ele>54.93</ele>
        <time>2021-01-24T09:17:43Z</time>
      </trkpt>
      <trkpt lat="37.14104" lon="-8.69282">
        <ele>58.3</ele>
        <time>2021-01-24T09:17:53Z</time>
      </trkpt>
      <trkpt lat="37.14131" lon="-8.69283">
        <ele>60.7</ele>
        <time>2021-01-24T09:18:03Z</time>
      </trkpt>
      <trkpt lat="37.14155" lon="-8.69273">
        <ele>61.66</ele>
        <time>2021-01-24T09:18:12Z</time>
      </trkpt>
      <trkpt lat="37.14187" lon="-8.69256">
        <ele>63.1</ele>
        <time>2021-01-24T09:18:24Z</time>
      </trkpt>
      <trkpt lat="37.14219" lon="-8.69256">
        <ele>64.07</ele>
        <time>2021-01-24T09:18:35Z</time>
      </trkpt>
      <trkpt lat="37.14249" lon="-8.69254">
        <ele>65.51</ele>
        <time>2021-01-24T09:18:45Z</time>
      </trkpt>
      <trkpt lat="37.14277" lon="-8.69238">
        <ele>65.99</ele>
        <time>2021-01-24T09:18:55Z</time>
      </trkpt>
      <trkpt lat="37.14308" lon="-8.69215">
        <ele>65.99</ele>
        <time>2021-01-24T09:19:06Z</time>
      </trkpt>
      <trkpt lat="37.14341" lon="-8.69194">
        <ele>65.99</ele>
        <time>2021-01-24T09:19:16Z</time>
      </trkpt>
      <trkpt lat="37.14369" lon="-8.69182">
        <ele>64.55</ele>
        <time>2021-01-24T09:19:23Z</time>
      </trkpt>
      <trkpt lat="37.14406" lon="-8.69163">
        <ele>61.66</ele>
        <time>2021-01-24T09:19:30Z</time>
      </trkpt>
      <trkpt lat="37.14439" lon="-8.69147">
        <ele>59.26</ele>
        <time>2021-01-24T09:19:35Z</time>
      </trkpt>
      <trkpt lat="37.14446" lon="-8.69145">
        <ele>59.26</ele>
        <time>2021-01-24T09:19:36Z</time>
      </trkpt>
      <trkpt lat="37.145" lon="-8.69135">
        <ele>55.89</ele>
        <time>2021-01-24T09:19:43Z</time>
      </trkpt>
      <trkpt lat="37.14521" lon="-8.69126">
        <ele>55.41</ele>
        <time>2021-01-24T09:19:46Z</time>
      </trkpt>
      <trkpt lat="37.14528" lon="-8.69122">
        <ele>55.41</ele>
        <time>2021-01-24T09:19:47Z</time>
      </trkpt>
      <trkpt lat="37.14558" lon="-8.69093">
        <ele>55.89</ele>
        <time>2021-01-24T09:19:53Z</time>
      </trkpt>
      <trkpt lat="37.14576" lon="-8.69071">
        <ele>55.89</ele>
        <time>2021-01-24T09:19:59Z</time>
      </trkpt>
      <trkpt lat="37.14581" lon="-8.69065">
        <ele>57.34</ele>
        <time>2021-01-24T09:20:01Z</time>
      </trkpt>
      <trkpt lat="37.14603" lon="-8.69039">
        <ele>60.22</ele>
        <time>2021-01-24T09:20:10Z</time>
      </trkpt>
      <trkpt lat="37.14627" lon="-8.69012">
        <ele>63.1</ele>
        <time>2021-01-24T09:20:21Z</time>
      </trkpt>
      <trkpt lat="37.14649" lon="-8.68987">
        <ele>64.55</ele>
        <time>2021-01-24T09:20:31Z</time>
      </trkpt>
      <trkpt lat="37.14675" lon="-8.68955">
        <ele>65.03</ele>
        <time>2021-01-24T09:20:42Z</time>
      </trkpt>
      <trkpt lat="37.1469" lon="-8.68938">
        <ele>64.55</ele>
        <time>2021-01-24T09:20:47Z</time>
      </trkpt>
      <trkpt lat="37.14701" lon="-8.68923">
        <ele>63.58</ele>
        <time>2021-01-24T09:20:51Z</time>
      </trkpt>
      <trkpt lat="37.14704" lon="-8.68919">
        <ele>63.58</ele>
        <time>2021-01-24T09:20:52Z</time>
      </trkpt>
      <trkpt lat="37.1473" lon="-8.68909">
        <ele>63.1</ele>
        <time>2021-01-24T09:20:59Z</time>
      </trkpt>
      <trkpt lat="37.14755" lon="-8.68923">
        <ele>63.1</ele>
        <time>2021-01-24T09:21:06Z</time>
      </trkpt>
      <trkpt lat="37.14785" lon="-8.68935">
        <ele>63.1</ele>
        <time>2021-01-24T09:21:15Z</time>
      </trkpt>
      <trkpt lat="37.14816" lon="-8.68959">
        <ele>63.1</ele>
        <time>2021-01-24T09:21:24Z</time>
      </trkpt>
      <trkpt lat="37.14838" lon="-8.6899">
        <ele>63.1</ele>
        <time>2021-01-24T09:21:33Z</time>
      </trkpt>
      <trkpt lat="37.14868" lon="-8.69018">
        <ele>62.62</ele>
        <time>2021-01-24T09:21:43Z</time>
      </trkpt>
      <trkpt lat="37.14893" lon="-8.69045">
        <ele>62.62</ele>
        <time>2021-01-24T09:21:52Z</time>
      </trkpt>
      <trkpt lat="37.14911" lon="-8.69057">
        <ele>65.99</ele>
        <time>2021-01-24T09:21:58Z</time>
      </trkpt>
      <trkpt lat="37.14929" lon="-8.69064">
        <ele>67.91</ele>
        <time>2021-01-24T09:22:05Z</time>
      </trkpt>
      <trkpt lat="37.14936" lon="-8.6906">
        <ele>67.91</ele>
        <time>2021-01-24T09:22:07Z</time>
      </trkpt>
      <trkpt lat="37.14938" lon="-8.69057">
        <ele>67.91</ele>
        <time>2021-01-24T09:22:08Z</time>
      </trkpt>
      <trkpt lat="37.14944" lon="-8.69035">
        <ele>67.91</ele>
        <time>2021-01-24T09:22:14Z</time>
      </trkpt>
      <trkpt lat="37.14945" lon="-8.69001">
        <ele>69.35</ele>
        <time>2021-01-24T09:22:23Z</time>
      </trkpt>
      <trkpt lat="37.14951" lon="-8.6897">
        <ele>66.95</ele>
        <time>2021-01-24T09:22:28Z</time>
      </trkpt>
      <trkpt lat="37.14955" lon="-8.68942">
        <ele>65.03</ele>
        <time>2021-01-24T09:22:33Z</time>
      </trkpt>
      <trkpt lat="37.14957" lon="-8.68931">
        <ele>64.07</ele>
        <time>2021-01-24T09:22:35Z</time>
      </trkpt>
      <trkpt lat="37.14961" lon="-8.68918">
        <ele>63.1</ele>
        <time>2021-01-24T09:22:38Z</time>
      </trkpt>
      <trkpt lat="37.14964" lon="-8.68918">
        <ele>62.62</ele>
        <time>2021-01-24T09:22:39Z</time>
      </trkpt>
      <trkpt lat="37.14967" lon="-8.68919">
        <ele>62.14</ele>
        <time>2021-01-24T09:22:40Z</time>
      </trkpt>
      <trkpt lat="37.14969" lon="-8.68922">
        <ele>61.66</ele>
        <time>2021-01-24T09:22:41Z</time>
      </trkpt>
      <trkpt lat="37.14973" lon="-8.68925">
        <ele>60.7</ele>
        <time>2021-01-24T09:22:42Z</time>
      </trkpt>
      <trkpt lat="37.14994" lon="-8.68949">
        <ele>57.34</ele>
        <time>2021-01-24T09:22:47Z</time>
      </trkpt>
      <trkpt lat="37.15009" lon="-8.68965">
        <ele>53.97</ele>
        <time>2021-01-24T09:22:50Z</time>
      </trkpt>
      <trkpt lat="37.15026" lon="-8.68983">
        <ele>50.61</ele>
        <time>2021-01-24T09:22:53Z</time>
      </trkpt>
      <trkpt lat="37.15065" lon="-8.69034">
        <ele>48.2</ele>
        <time>2021-01-24T09:23:00Z</time>
      </trkpt>
      <trkpt lat="37.15089" lon="-8.69057">
        <ele>48.68</ele>
        <time>2021-01-24T09:23:05Z</time>
      </trkpt>
      <trkpt lat="37.15106" lon="-8.69073">
        <ele>48.68</ele>
        <time>2021-01-24T09:23:10Z</time>
      </trkpt>
      <trkpt lat="37.1512" lon="-8.69087">
        <ele>47.72</ele>
        <time>2021-01-24T09:23:14Z</time>
      </trkpt>
      <trkpt lat="37.15123" lon="-8.6909">
        <ele>47.72</ele>
        <time>2021-01-24T09:23:15Z</time>
      </trkpt>
      <trkpt lat="37.15127" lon="-8.69092">
        <ele>47.72</ele>
        <time>2021-01-24T09:23:16Z</time>
      </trkpt>
      <trkpt lat="37.15129" lon="-8.69095">
        <ele>47.72</ele>
        <time>2021-01-24T09:23:17Z</time>
      </trkpt>
      <trkpt lat="37.15132" lon="-8.69097">
        <ele>47.72</ele>
        <time>2021-01-24T09:23:18Z</time>
      </trkpt>
      <trkpt lat="37.15156" lon="-8.69124">
        <ele>47.72</ele>
        <time>2021-01-24T09:23:27Z</time>
      </trkpt>
      <trkpt lat="37.15173" lon="-8.69148">
        <ele>47.72</ele>
        <time>2021-01-24T09:23:35Z</time>
      </trkpt>
      <trkpt lat="37.15186" lon="-8.69157">
        <ele>47.72</ele>
        <time>2021-01-24T09:23:41Z</time>
      </trkpt>
      <trkpt lat="37.15203" lon="-8.6917">
        <ele>47.72</ele>
        <time>2021-01-24T09:23:48Z</time>
      </trkpt>
      <trkpt lat="37.15226" lon="-8.69179">
        <ele>47.72</ele>
        <time>2021-01-24T09:23:55Z</time>
      </trkpt>
      <trkpt lat="37.15256" lon="-8.692">
        <ele>48.68</ele>
        <time>2021-01-24T09:24:05Z</time>
      </trkpt>
      <trkpt lat="37.15272" lon="-8.69218">
        <ele>49.16</ele>
        <time>2021-01-24T09:24:11Z</time>
      </trkpt>
      <trkpt lat="37.15311" lon="-8.6925">
        <ele>50.13</ele>
        <time>2021-01-24T09:24:24Z</time>
      </trkpt>
      <trkpt lat="37.15345" lon="-8.69278">
        <ele>50.13</ele>
        <time>2021-01-24T09:24:35Z</time>
      </trkpt>
      <trkpt lat="37.15381" lon="-8.69311">
        <ele>50.61</ele>
        <time>2021-01-24T09:24:47Z</time>
      </trkpt>
      <trkpt lat="37.15414" lon="-8.69331">
        <ele>51.57</ele>
        <time>2021-01-24T09:24:57Z</time>
      </trkpt>
      <trkpt lat="37.15442" lon="-8.69339">
        <ele>53.01</ele>
        <time>2021-01-24T09:25:05Z</time>
      </trkpt>
      <trkpt lat="37.15468" lon="-8.6935">
        <ele>54.93</ele>
        <time>2021-01-24T09:25:14Z</time>
      </trkpt>
      <trkpt lat="37.15498" lon="-8.6937">
        <ele>54.93</ele>
        <time>2021-01-24T09:25:24Z</time>
      </trkpt>
      <trkpt lat="37.15501" lon="-8.69371">
        <ele>54.93</ele>
        <time>2021-01-24T09:25:25Z</time>
      </trkpt>
      <trkpt lat="37.15524" lon="-8.69373">
        <ele>54.93</ele>
        <time>2021-01-24T09:25:31Z</time>
      </trkpt>
      <trkpt lat="37.15557" lon="-8.69374">
        <ele>54.93</ele>
        <time>2021-01-24T09:25:40Z</time>
      </trkpt>
      <trkpt lat="37.15594" lon="-8.69387">
        <ele>54.93</ele>
        <time>2021-01-24T09:25:50Z</time>
      </trkpt>
      <trkpt lat="37.15634" lon="-8.69398">
        <ele>55.89</ele>
        <time>2021-01-24T09:26:01Z</time>
      </trkpt>
      <trkpt lat="37.15669" lon="-8.69406">
        <ele>56.37</ele>
        <time>2021-01-24T09:26:11Z</time>
      </trkpt>
      <trkpt lat="37.15683" lon="-8.69412">
        <ele>56.37</ele>
        <time>2021-01-24T09:26:15Z</time>
      </trkpt>
      <trkpt lat="37.15685" lon="-8.69415">
        <ele>56.37</ele>
        <time>2021-01-24T09:26:16Z</time>
      </trkpt>
      <trkpt lat="37.15686" lon="-8.69418">
        <ele>56.86</ele>
        <time>2021-01-24T09:26:17Z</time>
      </trkpt>
      <trkpt lat="37.15687" lon="-8.69422">
        <ele>56.86</ele>
        <time>2021-01-24T09:26:18Z</time>
      </trkpt>
      <trkpt lat="37.15687" lon="-8.69427">
        <ele>56.86</ele>
        <time>2021-01-24T09:26:19Z</time>
      </trkpt>
      <trkpt lat="37.15687" lon="-8.69431">
        <ele>56.86</ele>
        <time>2021-01-24T09:26:20Z</time>
      </trkpt>
      <trkpt lat="37.15683" lon="-8.69458">
        <ele>56.86</ele>
        <time>2021-01-24T09:26:26Z</time>
      </trkpt>
      <trkpt lat="37.1568" lon="-8.69491">
        <ele>58.78</ele>
        <time>2021-01-24T09:26:35Z</time>
      </trkpt>
      <trkpt lat="37.15674" lon="-8.69524">
        <ele>61.66</ele>
        <time>2021-01-24T09:26:45Z</time>
      </trkpt>
      <trkpt lat="37.15657" lon="-8.69554">
        <ele>63.58</ele>
        <time>2021-01-24T09:26:56Z</time>
      </trkpt>
      <trkpt lat="37.15641" lon="-8.69571">
        <ele>64.07</ele>
        <time>2021-01-24T09:27:04Z</time>
      </trkpt>
      <trkpt lat="37.15626" lon="-8.69588">
        <ele>64.07</ele>
        <time>2021-01-24T09:27:12Z</time>
      </trkpt>
      <trkpt lat="37.15617" lon="-8.69594">
        <ele>64.07</ele>
        <time>2021-01-24T09:27:16Z</time>
      </trkpt>
      <trkpt lat="37.15596" lon="-8.69599">
        <ele>62.62</ele>
        <time>2021-01-24T09:27:24Z</time>
      </trkpt>
      <trkpt lat="37.15572" lon="-8.69601">
        <ele>62.62</ele>
        <time>2021-01-24T09:27:34Z</time>
      </trkpt>
      <trkpt lat="37.1555" lon="-8.696">
        <ele>65.03</ele>
        <time>2021-01-24T09:27:43Z</time>
      </trkpt>
      <trkpt lat="37.15536" lon="-8.69607">
        <ele>66.47</ele>
        <time>2021-01-24T09:27:50Z</time>
      </trkpt>
      <trkpt lat="37.15523" lon="-8.69619">
        <ele>68.87</ele>
        <time>2021-01-24T09:27:57Z</time>
      </trkpt>
      <trkpt lat="37.15513" lon="-8.69634">
        <ele>70.79</ele>
        <time>2021-01-24T09:28:04Z</time>
      </trkpt>
      <trkpt lat="37.15506" lon="-8.6965">
        <ele>72.24</ele>
        <time>2021-01-24T09:28:11Z</time>
      </trkpt>
      <trkpt lat="37.15496" lon="-8.69665">
        <ele>73.2</ele>
        <time>2021-01-24T09:28:18Z</time>
      </trkpt>
      <trkpt lat="37.15485" lon="-8.69686">
        <ele>74.64</ele>
        <time>2021-01-24T09:28:27Z</time>
      </trkpt>
      <trkpt lat="37.15476" lon="-8.69704">
        <ele>76.56</ele>
        <time>2021-01-24T09:28:35Z</time>
      </trkpt>
      <trkpt lat="37.15464" lon="-8.69726">
        <ele>77.52</ele>
        <time>2021-01-24T09:28:45Z</time>
      </trkpt>
      <trkpt lat="37.15453" lon="-8.6975">
        <ele>78.48</ele>
        <time>2021-01-24T09:28:55Z</time>
      </trkpt>
      <trkpt lat="37.15443" lon="-8.69766">
        <ele>78.97</ele>
        <time>2021-01-24T09:29:03Z</time>
      </trkpt>
      <trkpt lat="37.15436" lon="-8.69783">
        <ele>79.93</ele>
        <time>2021-01-24T09:29:11Z</time>
      </trkpt>
      <trkpt lat="37.15431" lon="-8.69807">
        <ele>78</ele>
        <time>2021-01-24T09:29:19Z</time>
      </trkpt>
      <trkpt lat="37.15427" lon="-8.6983">
        <ele>76.08</ele>
        <time>2021-01-24T09:29:26Z</time>
      </trkpt>
      <trkpt lat="37.15431" lon="-8.6985">
        <ele>74.64</ele>
        <time>2021-01-24T09:29:32Z</time>
      </trkpt>
      <trkpt lat="37.15444" lon="-8.69868">
        <ele>73.68</ele>
        <time>2021-01-24T09:29:39Z</time>
      </trkpt>
      <trkpt lat="37.15466" lon="-8.69881">
        <ele>72.24</ele>
        <time>2021-01-24T09:29:48Z</time>
      </trkpt>
      <trkpt lat="37.15478" lon="-8.69888">
        <ele>71.27</ele>
        <time>2021-01-24T09:29:54Z</time>
      </trkpt>
      <trkpt lat="37.15494" lon="-8.69896">
        <ele>70.31</ele>
        <time>2021-01-24T09:30:01Z</time>
      </trkpt>
      <trkpt lat="37.15511" lon="-8.69904">
        <ele>69.83</ele>
        <time>2021-01-24T09:30:09Z</time>
      </trkpt>
      <trkpt lat="37.1553" lon="-8.69915">
        <ele>69.35</ele>
        <time>2021-01-24T09:30:17Z</time>
      </trkpt>
      <trkpt lat="37.15551" lon="-8.69933">
        <ele>67.91</ele>
        <time>2021-01-24T09:30:26Z</time>
      </trkpt>
      <trkpt lat="37.15564" lon="-8.69954">
        <ele>66.47</ele>
        <time>2021-01-24T09:30:33Z</time>
      </trkpt>
      <trkpt lat="37.15571" lon="-8.69975">
        <ele>66.47</ele>
        <time>2021-01-24T09:30:40Z</time>
      </trkpt>
      <trkpt lat="37.1558" lon="-8.69993">
        <ele>67.91</ele>
        <time>2021-01-24T09:30:47Z</time>
      </trkpt>
      <trkpt lat="37.15589" lon="-8.70009">
        <ele>69.83</ele>
        <time>2021-01-24T09:30:54Z</time>
      </trkpt>
      <trkpt lat="37.15602" lon="-8.70019">
        <ele>71.27</ele>
        <time>2021-01-24T09:31:01Z</time>
      </trkpt>
      <trkpt lat="37.15614" lon="-8.70024">
        <ele>74.16</ele>
        <time>2021-01-24T09:31:08Z</time>
      </trkpt>
      <trkpt lat="37.15626" lon="-8.70028">
        <ele>75.12</ele>
        <time>2021-01-24T09:31:14Z</time>
      </trkpt>
      <trkpt lat="37.1564" lon="-8.70033">
        <ele>77.52</ele>
        <time>2021-01-24T09:31:22Z</time>
      </trkpt>
      <trkpt lat="37.15646" lon="-8.70033">
        <ele>78.97</ele>
        <time>2021-01-24T09:31:27Z</time>
      </trkpt>
      <trkpt lat="37.15657" lon="-8.70033">
        <ele>79.45</ele>
        <time>2021-01-24T09:31:33Z</time>
      </trkpt>
      <trkpt lat="37.15672" lon="-8.7003">
        <ele>80.41</ele>
        <time>2021-01-24T09:31:40Z</time>
      </trkpt>
      <trkpt lat="37.15694" lon="-8.70025">
        <ele>81.37</ele>
        <time>2021-01-24T09:31:49Z</time>
      </trkpt>
      <trkpt lat="37.15713" lon="-8.70015">
        <ele>81.85</ele>
        <time>2021-01-24T09:31:57Z</time>
      </trkpt>
      <trkpt lat="37.15743" lon="-8.70005">
        <ele>81.85</ele>
        <time>2021-01-24T09:32:07Z</time>
      </trkpt>
      <trkpt lat="37.1577" lon="-8.69998">
        <ele>81.85</ele>
        <time>2021-01-24T09:32:15Z</time>
      </trkpt>
      <trkpt lat="37.15802" lon="-8.69987">
        <ele>80.41</ele>
        <time>2021-01-24T09:32:24Z</time>
      </trkpt>
      <trkpt lat="37.15845" lon="-8.69978">
        <ele>78.97</ele>
        <time>2021-01-24T09:32:34Z</time>
      </trkpt>
      <trkpt lat="37.1585" lon="-8.69978">
        <ele>78.97</ele>
        <time>2021-01-24T09:32:35Z</time>
      </trkpt>
      <trkpt lat="37.15855" lon="-8.69978">
        <ele>78.97</ele>
        <time>2021-01-24T09:32:36Z</time>
      </trkpt>
      <trkpt lat="37.15892" lon="-8.6999">
        <ele>78</ele>
        <time>2021-01-24T09:32:45Z</time>
      </trkpt>
      <trkpt lat="37.15926" lon="-8.70013">
        <ele>79.93</ele>
        <time>2021-01-24T09:32:56Z</time>
      </trkpt>
      <trkpt lat="37.15952" lon="-8.70042">
        <ele>82.81</ele>
        <time>2021-01-24T09:33:06Z</time>
      </trkpt>
      <trkpt lat="37.15985" lon="-8.70085">
        <ele>83.77</ele>
        <time>2021-01-24T09:33:20Z</time>
      </trkpt>
      <trkpt lat="37.16005" lon="-8.70115">
        <ele>82.33</ele>
        <time>2021-01-24T09:33:28Z</time>
      </trkpt>
      <trkpt lat="37.16041" lon="-8.70157">
        <ele>80.41</ele>
        <time>2021-01-24T09:33:38Z</time>
      </trkpt>
      <trkpt lat="37.16062" lon="-8.70181">
        <ele>80.41</ele>
        <time>2021-01-24T09:33:45Z</time>
      </trkpt>
      <trkpt lat="37.16099" lon="-8.70224">
        <ele>82.81</ele>
        <time>2021-01-24T09:33:59Z</time>
      </trkpt>
      <trkpt lat="37.16131" lon="-8.70261">
        <ele>82.81</ele>
        <time>2021-01-24T09:34:11Z</time>
      </trkpt>
      <trkpt lat="37.16156" lon="-8.70298">
        <ele>82.81</ele>
        <time>2021-01-24T09:34:21Z</time>
      </trkpt>
      <trkpt lat="37.16174" lon="-8.70342">
        <ele>82.81</ele>
        <time>2021-01-24T09:34:31Z</time>
      </trkpt>
      <trkpt lat="37.16187" lon="-8.70389">
        <ele>81.37</ele>
        <time>2021-01-24T09:34:41Z</time>
      </trkpt>
      <trkpt lat="37.16199" lon="-8.70435">
        <ele>79.45</ele>
        <time>2021-01-24T09:34:49Z</time>
      </trkpt>
      <trkpt lat="37.16201" lon="-8.7044">
        <ele>79.45</ele>
        <time>2021-01-24T09:34:50Z</time>
      </trkpt>
      <trkpt lat="37.16204" lon="-8.70446">
        <ele>78.97</ele>
        <time>2021-01-24T09:34:51Z</time>
      </trkpt>
      <trkpt lat="37.16208" lon="-8.70451">
        <ele>78.97</ele>
        <time>2021-01-24T09:34:52Z</time>
      </trkpt>
      <trkpt lat="37.16211" lon="-8.70454">
        <ele>78.97</ele>
        <time>2021-01-24T09:34:53Z</time>
      </trkpt>
      <trkpt lat="37.16215" lon="-8.70457">
        <ele>78.97</ele>
        <time>2021-01-24T09:34:54Z</time>
      </trkpt>
      <trkpt lat="37.16218" lon="-8.7046">
        <ele>78.97</ele>
        <time>2021-01-24T09:34:55Z</time>
      </trkpt>
      <trkpt lat="37.16252" lon="-8.70489">
        <ele>81.85</ele>
        <time>2021-01-24T09:35:06Z</time>
      </trkpt>
      <trkpt lat="37.16278" lon="-8.70514">
        <ele>84.73</ele>
        <time>2021-01-24T09:35:16Z</time>
      </trkpt>
      <trkpt lat="37.16307" lon="-8.70541">
        <ele>85.69</ele>
        <time>2021-01-24T09:35:28Z</time>
      </trkpt>
      <trkpt lat="37.16334" lon="-8.70567">
        <ele>86.18</ele>
        <time>2021-01-24T09:35:38Z</time>
      </trkpt>
      <trkpt lat="37.16355" lon="-8.70587">
        <ele>84.73</ele>
        <time>2021-01-24T09:35:44Z</time>
      </trkpt>
      <trkpt lat="37.16359" lon="-8.7059">
        <ele>84.73</ele>
        <time>2021-01-24T09:35:45Z</time>
      </trkpt>
      <trkpt lat="37.16383" lon="-8.70614">
        <ele>80.89</ele>
        <time>2021-01-24T09:35:50Z</time>
      </trkpt>
      <trkpt lat="37.16402" lon="-8.70628">
        <ele>78</ele>
        <time>2021-01-24T09:35:53Z</time>
      </trkpt>
      <trkpt lat="37.1641" lon="-8.70631">
        <ele>77.52</ele>
        <time>2021-01-24T09:35:54Z</time>
      </trkpt>
      <trkpt lat="37.16418" lon="-8.70632">
        <ele>76.56</ele>
        <time>2021-01-24T09:35:55Z</time>
      </trkpt>
      <trkpt lat="37.16426" lon="-8.70633">
        <ele>75.6</ele>
        <time>2021-01-24T09:35:56Z</time>
      </trkpt>
      <trkpt lat="37.16435" lon="-8.70633">
        <ele>74.64</ele>
        <time>2021-01-24T09:35:57Z</time>
      </trkpt>
      <trkpt lat="37.16443" lon="-8.70633">
        <ele>73.68</ele>
        <time>2021-01-24T09:35:58Z</time>
      </trkpt>
      <trkpt lat="37.16468" lon="-8.70631">
        <ele>70.79</ele>
        <time>2021-01-24T09:36:01Z</time>
      </trkpt>
      <trkpt lat="37.16493" lon="-8.70629">
        <ele>67.43</ele>
        <time>2021-01-24T09:36:04Z</time>
      </trkpt>
      <trkpt lat="37.16501" lon="-8.7063">
        <ele>66.47</ele>
        <time>2021-01-24T09:36:05Z</time>
      </trkpt>
      <trkpt lat="37.16508" lon="-8.70631">
        <ele>65.03</ele>
        <time>2021-01-24T09:36:06Z</time>
      </trkpt>
      <trkpt lat="37.16514" lon="-8.70633">
        <ele>64.55</ele>
        <time>2021-01-24T09:36:07Z</time>
      </trkpt>
      <trkpt lat="37.16541" lon="-8.70644">
        <ele>61.66</ele>
        <time>2021-01-24T09:36:12Z</time>
      </trkpt>
      <trkpt lat="37.16545" lon="-8.70646">
        <ele>61.18</ele>
        <time>2021-01-24T09:36:13Z</time>
      </trkpt>
      <trkpt lat="37.16547" lon="-8.70648">
        <ele>61.18</ele>
        <time>2021-01-24T09:36:14Z</time>
      </trkpt>
      <trkpt lat="37.16549" lon="-8.70652">
        <ele>61.18</ele>
        <time>2021-01-24T09:36:15Z</time>
      </trkpt>
      <trkpt lat="37.16549" lon="-8.70656">
        <ele>60.7</ele>
        <time>2021-01-24T09:36:16Z</time>
      </trkpt>
      <trkpt lat="37.1655" lon="-8.7066">
        <ele>60.7</ele>
        <time>2021-01-24T09:36:17Z</time>
      </trkpt>
      <trkpt lat="37.16549" lon="-8.70664">
        <ele>60.7</ele>
        <time>2021-01-24T09:36:18Z</time>
      </trkpt>
      <trkpt lat="37.16548" lon="-8.70669">
        <ele>60.22</ele>
        <time>2021-01-24T09:36:19Z</time>
      </trkpt>
      <trkpt lat="37.16546" lon="-8.70672">
        <ele>60.22</ele>
        <time>2021-01-24T09:36:20Z</time>
      </trkpt>
      <trkpt lat="37.16543" lon="-8.70675">
        <ele>60.22</ele>
        <time>2021-01-24T09:36:21Z</time>
      </trkpt>
      <trkpt lat="37.16539" lon="-8.70678">
        <ele>60.7</ele>
        <time>2021-01-24T09:36:22Z</time>
      </trkpt>
      <trkpt lat="37.16536" lon="-8.70681">
        <ele>59.74</ele>
        <time>2021-01-24T09:36:23Z</time>
      </trkpt>
      <trkpt lat="37.16528" lon="-8.70687">
        <ele>60.22</ele>
        <time>2021-01-24T09:36:25Z</time>
      </trkpt>
      <trkpt lat="37.16519" lon="-8.70693">
        <ele>59.74</ele>
        <time>2021-01-24T09:36:27Z</time>
      </trkpt>
      <trkpt lat="37.16516" lon="-8.70696">
        <ele>59.74</ele>
        <time>2021-01-24T09:36:28Z</time>
      </trkpt>
      <trkpt lat="37.16496" lon="-8.70727">
        <ele>58.3</ele>
        <time>2021-01-24T09:36:34Z</time>
      </trkpt>
      <trkpt lat="37.16493" lon="-8.70733">
        <ele>56.86</ele>
        <time>2021-01-24T09:36:35Z</time>
      </trkpt>
      <trkpt lat="37.16485" lon="-8.70757">
        <ele>54.45</ele>
        <time>2021-01-24T09:36:38Z</time>
      </trkpt>
      <trkpt lat="37.1648" lon="-8.70765">
        <ele>54.45</ele>
        <time>2021-01-24T09:36:39Z</time>
      </trkpt>
      <trkpt lat="37.16461" lon="-8.70786">
        <ele>52.53</ele>
        <time>2021-01-24T09:36:42Z</time>
      </trkpt>
      <trkpt lat="37.16424" lon="-8.70844">
        <ele>49.16</ele>
        <time>2021-01-24T09:36:49Z</time>
      </trkpt>
      <trkpt lat="37.16395" lon="-8.7088">
        <ele>47.24</ele>
        <time>2021-01-24T09:36:54Z</time>
      </trkpt>
      <trkpt lat="37.16358" lon="-8.70931">
        <ele>45.32</ele>
        <time>2021-01-24T09:37:01Z</time>
      </trkpt>
      <trkpt lat="37.1634" lon="-8.70964">
        <ele>42.92</ele>
        <time>2021-01-24T09:37:05Z</time>
      </trkpt>
      <trkpt lat="37.16333" lon="-8.70971">
        <ele>42.44</ele>
        <time>2021-01-24T09:37:06Z</time>
      </trkpt>
      <trkpt lat="37.16294" lon="-8.71012">
        <ele>39.55</ele>
        <time>2021-01-24T09:37:12Z</time>
      </trkpt>
      <trkpt lat="37.16276" lon="-8.71037">
        <ele>38.11</ele>
        <time>2021-01-24T09:37:15Z</time>
      </trkpt>
      <trkpt lat="37.16255" lon="-8.71081">
        <ele>36.67</ele>
        <time>2021-01-24T09:37:20Z</time>
      </trkpt>
      <trkpt lat="37.16253" lon="-8.71089">
        <ele>36.19</ele>
        <time>2021-01-24T09:37:21Z</time>
      </trkpt>
      <trkpt lat="37.16252" lon="-8.71096">
        <ele>36.19</ele>
        <time>2021-01-24T09:37:22Z</time>
      </trkpt>
      <trkpt lat="37.16252" lon="-8.71101">
        <ele>36.19</ele>
        <time>2021-01-24T09:37:23Z</time>
      </trkpt>
      <trkpt lat="37.16253" lon="-8.71107">
        <ele>36.19</ele>
        <time>2021-01-24T09:37:24Z</time>
      </trkpt>
      <trkpt lat="37.16254" lon="-8.71111">
        <ele>35.71</ele>
        <time>2021-01-24T09:37:25Z</time>
      </trkpt>
      <trkpt lat="37.16255" lon="-8.71114">
        <ele>35.71</ele>
        <time>2021-01-24T09:37:26Z</time>
      </trkpt>
      <trkpt lat="37.16262" lon="-8.71122">
        <ele>35.23</ele>
        <time>2021-01-24T09:37:29Z</time>
      </trkpt>
      <trkpt lat="37.16286" lon="-8.71143">
        <ele>33.78</ele>
        <time>2021-01-24T09:37:38Z</time>
      </trkpt>
      <trkpt lat="37.16307" lon="-8.71153">
        <ele>33.3</ele>
        <time>2021-01-24T09:37:45Z</time>
      </trkpt>
      <trkpt lat="37.16331" lon="-8.71166">
        <ele>32.82</ele>
        <time>2021-01-24T09:37:54Z</time>
      </trkpt>
      <trkpt lat="37.16336" lon="-8.71172">
        <ele>32.34</ele>
        <time>2021-01-24T09:37:57Z</time>
      </trkpt>
      <trkpt lat="37.16344" lon="-8.71166">
        <ele>32.34</ele>
        <time>2021-01-24T09:38:03Z</time>
      </trkpt>
      <trkpt lat="37.16356" lon="-8.71164">
        <ele>32.34</ele>
        <time>2021-01-24T09:38:09Z</time>
      </trkpt>
      <trkpt lat="37.16366" lon="-8.71166">
        <ele>32.34</ele>
        <time>2021-01-24T09:38:13Z</time>
      </trkpt>
      <trkpt lat="37.16385" lon="-8.71154">
        <ele>34.26</ele>
        <time>2021-01-24T09:38:21Z</time>
      </trkpt>
      <trkpt lat="37.16394" lon="-8.71138">
        <ele>34.74</ele>
        <time>2021-01-24T09:38:28Z</time>
      </trkpt>
      <trkpt lat="37.16396" lon="-8.71128">
        <ele>35.23</ele>
        <time>2021-01-24T09:38:31Z</time>
      </trkpt>
      <trkpt lat="37.16404" lon="-8.71133">
        <ele>35.23</ele>
        <time>2021-01-24T09:38:36Z</time>
      </trkpt>
      <trkpt lat="37.16405" lon="-8.71136">
        <ele>35.23</ele>
        <time>2021-01-24T09:38:37Z</time>
      </trkpt>
      <trkpt lat="37.16408" lon="-8.71173">
        <ele>35.23</ele>
        <time>2021-01-24T09:38:45Z</time>
      </trkpt>
      <trkpt lat="37.1641" lon="-8.71183">
        <ele>33.78</ele>
        <time>2021-01-24T09:38:47Z</time>
      </trkpt>
      <trkpt lat="37.16411" lon="-8.71194">
        <ele>32.82</ele>
        <time>2021-01-24T09:38:49Z</time>
      </trkpt>
      <trkpt lat="37.16423" lon="-8.71208">
        <ele>32.34</ele>
        <time>2021-01-24T09:38:53Z</time>
      </trkpt>
      <trkpt lat="37.16431" lon="-8.7121">
        <ele>32.34</ele>
        <time>2021-01-24T09:38:55Z</time>
      </trkpt>
      <trkpt lat="37.16444" lon="-8.71211">
        <ele>32.34</ele>
        <time>2021-01-24T09:38:58Z</time>
      </trkpt>
      <trkpt lat="37.16484" lon="-8.71222">
        <ele>31.86</ele>
        <time>2021-01-24T09:39:08Z</time>
      </trkpt>
      <trkpt lat="37.16521" lon="-8.71236">
        <ele>31.86</ele>
        <time>2021-01-24T09:39:18Z</time>
      </trkpt>
      <trkpt lat="37.16544" lon="-8.71245">
        <ele>31.86</ele>
        <time>2021-01-24T09:39:25Z</time>
      </trkpt>
      <trkpt lat="37.16557" lon="-8.71252">
        <ele>31.86</ele>
        <time>2021-01-24T09:39:29Z</time>
      </trkpt>
      <trkpt lat="37.16586" lon="-8.71263">
        <ele>31.86</ele>
        <time>2021-01-24T09:39:37Z</time>
      </trkpt>
      <trkpt lat="37.16599" lon="-8.71268">
        <ele>33.3</ele>
        <time>2021-01-24T09:39:41Z</time>
      </trkpt>
      <trkpt lat="37.16622" lon="-8.71279">
        <ele>33.3</ele>
        <time>2021-01-24T09:39:48Z</time>
      </trkpt>
      <trkpt lat="37.16642" lon="-8.71287">
        <ele>33.3</ele>
        <time>2021-01-24T09:39:54Z</time>
      </trkpt>
      <trkpt lat="37.16666" lon="-8.71294">
        <ele>33.3</ele>
        <time>2021-01-24T09:40:01Z</time>
      </trkpt>
      <trkpt lat="37.16686" lon="-8.71299">
        <ele>33.3</ele>
        <time>2021-01-24T09:40:07Z</time>
      </trkpt>
      <trkpt lat="37.16709" lon="-8.71303">
        <ele>33.78</ele>
        <time>2021-01-24T09:40:15Z</time>
      </trkpt>
      <trkpt lat="37.16722" lon="-8.7131">
        <ele>33.3</ele>
        <time>2021-01-24T09:40:20Z</time>
      </trkpt>
      <trkpt lat="37.16734" lon="-8.71322">
        <ele>31.38</ele>
        <time>2021-01-24T09:40:26Z</time>
      </trkpt>
      <trkpt lat="37.16737" lon="-8.71323">
        <ele>30.9</ele>
        <time>2021-01-24T09:40:27Z</time>
      </trkpt>
      <trkpt lat="37.1675" lon="-8.71329">
        <ele>30.42</ele>
        <time>2021-01-24T09:40:34Z</time>
      </trkpt>
      <trkpt lat="37.16761" lon="-8.71339">
        <ele>31.86</ele>
        <time>2021-01-24T09:40:39Z</time>
      </trkpt>
      <trkpt lat="37.16762" lon="-8.7134">
        <ele>32.34</ele>
        <time>2021-01-24T09:40:40Z</time>
      </trkpt>
      <trkpt lat="37.16757" lon="-8.7135">
        <ele>32.82</ele>
        <time>2021-01-24T09:40:48Z</time>
      </trkpt>
      <trkpt lat="37.16756" lon="-8.71352">
        <ele>32.82</ele>
        <time>2021-01-24T09:40:49Z</time>
      </trkpt>
      <trkpt lat="37.16755" lon="-8.71355">
        <ele>32.82</ele>
        <time>2021-01-24T09:40:50Z</time>
      </trkpt>
      <trkpt lat="37.16755" lon="-8.71357">
        <ele>32.82</ele>
        <time>2021-01-24T09:40:51Z</time>
      </trkpt>
      <trkpt lat="37.16753" lon="-8.7136">
        <ele>32.82</ele>
        <time>2021-01-24T09:40:52Z</time>
      </trkpt>
      <trkpt lat="37.16751" lon="-8.71362">
        <ele>33.3</ele>
        <time>2021-01-24T09:40:53Z</time>
      </trkpt>
      <trkpt lat="37.16748" lon="-8.71363">
        <ele>33.3</ele>
        <time>2021-01-24T09:40:54Z</time>
      </trkpt>
      <trkpt lat="37.1672" lon="-8.71367">
        <ele>33.3</ele>
        <time>2021-01-24T09:41:03Z</time>
      </trkpt>
      <trkpt lat="37.16692" lon="-8.71364">
        <ele>33.3</ele>
        <time>2021-01-24T09:41:12Z</time>
      </trkpt>
      <trkpt lat="37.16674" lon="-8.71365">
        <ele>33.3</ele>
        <time>2021-01-24T09:41:17Z</time>
      </trkpt>
      <trkpt lat="37.16652" lon="-8.71356">
        <ele>33.3</ele>
        <time>2021-01-24T09:41:23Z</time>
      </trkpt>
      <trkpt lat="37.16649" lon="-8.71353">
        <ele>33.3</ele>
        <time>2021-01-24T09:41:24Z</time>
      </trkpt>
      <trkpt lat="37.16646" lon="-8.71351">
        <ele>33.3</ele>
        <time>2021-01-24T09:41:25Z</time>
      </trkpt>
      <trkpt lat="37.16642" lon="-8.7135">
        <ele>33.3</ele>
        <time>2021-01-24T09:41:26Z</time>
      </trkpt>
      <trkpt lat="37.16638" lon="-8.71349">
        <ele>33.3</ele>
        <time>2021-01-24T09:41:27Z</time>
      </trkpt>
      <trkpt lat="37.16604" lon="-8.71348">
        <ele>33.3</ele>
        <time>2021-01-24T09:41:36Z</time>
      </trkpt>
      <trkpt lat="37.16567" lon="-8.71348">
        <ele>33.3</ele>
        <time>2021-01-24T09:41:46Z</time>
      </trkpt>
      <trkpt lat="37.16534" lon="-8.71345">
        <ele>33.3</ele>
        <time>2021-01-24T09:41:55Z</time>
      </trkpt>
      <trkpt lat="37.16493" lon="-8.71346">
        <ele>31.86</ele>
        <time>2021-01-24T09:42:06Z</time>
      </trkpt>
      <trkpt lat="37.16455" lon="-8.71354">
        <ele>31.38</ele>
        <time>2021-01-24T09:42:17Z</time>
      </trkpt>
      <trkpt lat="37.16422" lon="-8.71364">
        <ele>30.9</ele>
        <time>2021-01-24T09:42:27Z</time>
      </trkpt>
      <trkpt lat="37.16385" lon="-8.71375">
        <ele>30.9</ele>
        <time>2021-01-24T09:42:37Z</time>
      </trkpt>
      <trkpt lat="37.16349" lon="-8.7139">
        <ele>30.42</ele>
        <time>2021-01-24T09:42:47Z</time>
      </trkpt>
      <trkpt lat="37.16317" lon="-8.71406">
        <ele>30.42</ele>
        <time>2021-01-24T09:42:56Z</time>
      </trkpt>
      <trkpt lat="37.16277" lon="-8.71414">
        <ele>29.94</ele>
        <time>2021-01-24T09:43:06Z</time>
      </trkpt>
      <trkpt lat="37.16253" lon="-8.71413">
        <ele>29.46</ele>
        <time>2021-01-24T09:43:13Z</time>
      </trkpt>
      <trkpt lat="37.1625" lon="-8.71412">
        <ele>29.46</ele>
        <time>2021-01-24T09:43:17Z</time>
      </trkpt>
      <trkpt lat="37.16249" lon="-8.71414">
        <ele>28.98</ele>
        <time>2021-01-24T09:43:30Z</time>
      </trkpt>
      <trkpt lat="37.1625" lon="-8.71412">
        <ele>28.98</ele>
        <time>2021-01-24T09:43:45Z</time>
      </trkpt>
      <trkpt lat="37.16251" lon="-8.71412">
        <ele>28.98</ele>
        <time>2021-01-24T09:44:06Z</time>
      </trkpt>
      <trkpt lat="37.1625" lon="-8.71413">
        <ele>28.98</ele>
        <time>2021-01-24T09:44:30Z</time>
      </trkpt>
      <trkpt lat="37.16252" lon="-8.71412">
        <ele>28.98</ele>
        <time>2021-01-24T09:44:45Z</time>
      </trkpt>
      <trkpt lat="37.16251" lon="-8.71412">
        <ele>28.98</ele>
        <time>2021-01-24T09:44:56Z</time>
      </trkpt>
      <trkpt lat="37.1625" lon="-8.71413">
        <ele>28.98</ele>
        <time>2021-01-24T09:45:09Z</time>
      </trkpt>
      <trkpt lat="37.16248" lon="-8.71414">
        <ele>28.98</ele>
        <time>2021-01-24T09:45:12Z</time>
      </trkpt>
      <trkpt lat="37.16247" lon="-8.71414">
        <ele>28.98</ele>
        <time>2021-01-24T09:45:13Z</time>
      </trkpt>
      <trkpt lat="37.16228" lon="-8.71421">
        <ele>28.98</ele>
        <time>2021-01-24T09:45:20Z</time>
      </trkpt>
      <trkpt lat="37.16197" lon="-8.71428">
        <ele>28.98</ele>
        <time>2021-01-24T09:45:29Z</time>
      </trkpt>
      <trkpt lat="37.1617" lon="-8.71418">
        <ele>28.98</ele>
        <time>2021-01-24T09:45:37Z</time>
      </trkpt>
      <trkpt lat="37.16141" lon="-8.71404">
        <ele>28.98</ele>
        <time>2021-01-24T09:45:46Z</time>
      </trkpt>
      <trkpt lat="37.16138" lon="-8.71405">
        <ele>28.98</ele>
        <time>2021-01-24T09:45:47Z</time>
      </trkpt>
      <trkpt lat="37.16135" lon="-8.71406">
        <ele>28.98</ele>
        <time>2021-01-24T09:45:48Z</time>
      </trkpt>
      <trkpt lat="37.16132" lon="-8.71407">
        <ele>28.98</ele>
        <time>2021-01-24T09:45:49Z</time>
      </trkpt>
      <trkpt lat="37.16128" lon="-8.71406">
        <ele>28.98</ele>
        <time>2021-01-24T09:45:50Z</time>
      </trkpt>
      <trkpt lat="37.16125" lon="-8.71406">
        <ele>28.98</ele>
        <time>2021-01-24T09:45:51Z</time>
      </trkpt>
      <trkpt lat="37.16096" lon="-8.71399">
        <ele>28.98</ele>
        <time>2021-01-24T09:45:59Z</time>
      </trkpt>
      <trkpt lat="37.16083" lon="-8.71395">
        <ele>28.02</ele>
        <time>2021-01-24T09:46:02Z</time>
      </trkpt>
      <trkpt lat="37.16078" lon="-8.71394">
        <ele>27.53</ele>
        <time>2021-01-24T09:46:03Z</time>
      </trkpt>
      <trkpt lat="37.16074" lon="-8.71393">
        <ele>27.53</ele>
        <time>2021-01-24T09:46:04Z</time>
      </trkpt>
      <trkpt lat="37.1607" lon="-8.71393">
        <ele>27.53</ele>
        <time>2021-01-24T09:46:05Z</time>
      </trkpt>
      <trkpt lat="37.16065" lon="-8.71394">
        <ele>27.53</ele>
        <time>2021-01-24T09:46:06Z</time>
      </trkpt>
      <trkpt lat="37.16062" lon="-8.71395">
        <ele>27.53</ele>
        <time>2021-01-24T09:46:07Z</time>
      </trkpt>
      <trkpt lat="37.16058" lon="-8.71397">
        <ele>27.53</ele>
        <time>2021-01-24T09:46:08Z</time>
      </trkpt>
      <trkpt lat="37.16054" lon="-8.71399">
        <ele>27.53</ele>
        <time>2021-01-24T09:46:09Z</time>
      </trkpt>
      <trkpt lat="37.16051" lon="-8.714">
        <ele>27.53</ele>
        <time>2021-01-24T09:46:10Z</time>
      </trkpt>
      <trkpt lat="37.16047" lon="-8.71401">
        <ele>27.53</ele>
        <time>2021-01-24T09:46:11Z</time>
      </trkpt>
      <trkpt lat="37.16043" lon="-8.71402">
        <ele>27.53</ele>
        <time>2021-01-24T09:46:12Z</time>
      </trkpt>
      <trkpt lat="37.1604" lon="-8.71404">
        <ele>27.05</ele>
        <time>2021-01-24T09:46:13Z</time>
      </trkpt>
      <trkpt lat="37.16036" lon="-8.71407">
        <ele>27.05</ele>
        <time>2021-01-24T09:46:14Z</time>
      </trkpt>
      <trkpt lat="37.16033" lon="-8.7141">
        <ele>27.05</ele>
        <time>2021-01-24T09:46:15Z</time>
      </trkpt>
      <trkpt lat="37.16031" lon="-8.71413">
        <ele>27.05</ele>
        <time>2021-01-24T09:46:16Z</time>
      </trkpt>
      <trkpt lat="37.16028" lon="-8.71418">
        <ele>27.05</ele>
        <time>2021-01-24T09:46:17Z</time>
      </trkpt>
      <trkpt lat="37.16026" lon="-8.71422">
        <ele>27.05</ele>
        <time>2021-01-24T09:46:18Z</time>
      </trkpt>
      <trkpt lat="37.16023" lon="-8.71425">
        <ele>27.05</ele>
        <time>2021-01-24T09:46:19Z</time>
      </trkpt>
      <trkpt lat="37.1602" lon="-8.71428">
        <ele>27.05</ele>
        <time>2021-01-24T09:46:20Z</time>
      </trkpt>
      <trkpt lat="37.16017" lon="-8.7143">
        <ele>27.05</ele>
        <time>2021-01-24T09:46:21Z</time>
      </trkpt>
      <trkpt lat="37.15992" lon="-8.71459">
        <ele>26.57</ele>
        <time>2021-01-24T09:46:30Z</time>
      </trkpt>
      <trkpt lat="37.15984" lon="-8.71486">
        <ele>26.57</ele>
        <time>2021-01-24T09:46:36Z</time>
      </trkpt>
      <trkpt lat="37.15973" lon="-8.71532">
        <ele>26.09</ele>
        <time>2021-01-24T09:46:46Z</time>
      </trkpt>
      <trkpt lat="37.15961" lon="-8.71567">
        <ele>26.09</ele>
        <time>2021-01-24T09:46:54Z</time>
      </trkpt>
      <trkpt lat="37.1595" lon="-8.71598">
        <ele>26.09</ele>
        <time>2021-01-24T09:47:01Z</time>
      </trkpt>
      <trkpt lat="37.15935" lon="-8.71642">
        <ele>26.09</ele>
        <time>2021-01-24T09:47:11Z</time>
      </trkpt>
      <trkpt lat="37.15933" lon="-8.71669">
        <ele>26.09</ele>
        <time>2021-01-24T09:47:17Z</time>
      </trkpt>
      <trkpt lat="37.15923" lon="-8.71699">
        <ele>25.61</ele>
        <time>2021-01-24T09:47:24Z</time>
      </trkpt>
      <trkpt lat="37.15913" lon="-8.7175">
        <ele>27.05</ele>
        <time>2021-01-24T09:47:35Z</time>
      </trkpt>
      <trkpt lat="37.1591" lon="-8.71801">
        <ele>28.98</ele>
        <time>2021-01-24T09:47:47Z</time>
      </trkpt>
      <trkpt lat="37.15906" lon="-8.71821">
        <ele>30.42</ele>
        <time>2021-01-24T09:47:53Z</time>
      </trkpt>
      <trkpt lat="37.15898" lon="-8.71851">
        <ele>30.9</ele>
        <time>2021-01-24T09:48:01Z</time>
      </trkpt>
      <trkpt lat="37.15885" lon="-8.71892">
        <ele>31.38</ele>
        <time>2021-01-24T09:48:12Z</time>
      </trkpt>
      <trkpt lat="37.15876" lon="-8.71936">
        <ele>32.82</ele>
        <time>2021-01-24T09:48:23Z</time>
      </trkpt>
      <trkpt lat="37.1586" lon="-8.71964">
        <ele>33.3</ele>
        <time>2021-01-24T09:48:31Z</time>
      </trkpt>
      <trkpt lat="37.15831" lon="-8.71991">
        <ele>33.78</ele>
        <time>2021-01-24T09:48:41Z</time>
      </trkpt>
      <trkpt lat="37.15803" lon="-8.72024">
        <ele>34.26</ele>
        <time>2021-01-24T09:48:51Z</time>
      </trkpt>
      <trkpt lat="37.1579" lon="-8.72053">
        <ele>34.26</ele>
        <time>2021-01-24T09:48:58Z</time>
      </trkpt>
      <trkpt lat="37.15775" lon="-8.72091">
        <ele>31.86</ele>
        <time>2021-01-24T09:49:05Z</time>
      </trkpt>
      <trkpt lat="37.15754" lon="-8.7214">
        <ele>29.46</ele>
        <time>2021-01-24T09:49:12Z</time>
      </trkpt>
      <trkpt lat="37.15744" lon="-8.72164">
        <ele>28.5</ele>
        <time>2021-01-24T09:49:15Z</time>
      </trkpt>
      <trkpt lat="37.15743" lon="-8.72173">
        <ele>27.53</ele>
        <time>2021-01-24T09:49:16Z</time>
      </trkpt>
      <trkpt lat="37.15743" lon="-8.72181">
        <ele>27.53</ele>
        <time>2021-01-24T09:49:17Z</time>
      </trkpt>
      <trkpt lat="37.15744" lon="-8.7219">
        <ele>27.53</ele>
        <time>2021-01-24T09:49:18Z</time>
      </trkpt>
      <trkpt lat="37.15745" lon="-8.72197">
        <ele>27.53</ele>
        <time>2021-01-24T09:49:19Z</time>
      </trkpt>
      <trkpt lat="37.15751" lon="-8.72234">
        <ele>28.98</ele>
        <time>2021-01-24T09:49:25Z</time>
      </trkpt>
      <trkpt lat="37.15752" lon="-8.72266">
        <ele>29.94</ele>
        <time>2021-01-24T09:49:32Z</time>
      </trkpt>
      <trkpt lat="37.15739" lon="-8.7232">
        <ele>31.38</ele>
        <time>2021-01-24T09:49:44Z</time>
      </trkpt>
      <trkpt lat="37.15732" lon="-8.72353">
        <ele>31.38</ele>
        <time>2021-01-24T09:49:51Z</time>
      </trkpt>
      <trkpt lat="37.15731" lon="-8.72358">
        <ele>31.38</ele>
        <time>2021-01-24T09:49:52Z</time>
      </trkpt>
      <trkpt lat="37.15727" lon="-8.72403">
        <ele>31.38</ele>
        <time>2021-01-24T09:50:00Z</time>
      </trkpt>
      <trkpt lat="37.15729" lon="-8.7242">
        <ele>29.94</ele>
        <time>2021-01-24T09:50:03Z</time>
      </trkpt>
      <trkpt lat="37.1573" lon="-8.72477">
        <ele>29.46</ele>
        <time>2021-01-24T09:50:13Z</time>
      </trkpt>
      <trkpt lat="37.15724" lon="-8.72536">
        <ele>28.98</ele>
        <time>2021-01-24T09:50:23Z</time>
      </trkpt>
      <trkpt lat="37.15723" lon="-8.72599">
        <ele>28.02</ele>
        <time>2021-01-24T09:50:33Z</time>
      </trkpt>
      <trkpt lat="37.1572" lon="-8.72629">
        <ele>27.53</ele>
        <time>2021-01-24T09:50:38Z</time>
      </trkpt>
      <trkpt lat="37.15708" lon="-8.72692">
        <ele>27.05</ele>
        <time>2021-01-24T09:50:49Z</time>
      </trkpt>
      <trkpt lat="37.15708" lon="-8.72703">
        <ele>27.05</ele>
        <time>2021-01-24T09:50:51Z</time>
      </trkpt>
      <trkpt lat="37.15709" lon="-8.72764">
        <ele>28.5</ele>
        <time>2021-01-24T09:51:02Z</time>
      </trkpt>
      <trkpt lat="37.15707" lon="-8.72774">
        <ele>28.98</ele>
        <time>2021-01-24T09:51:04Z</time>
      </trkpt>
      <trkpt lat="37.15694" lon="-8.72819">
        <ele>30.42</ele>
        <time>2021-01-24T09:51:13Z</time>
      </trkpt>
      <trkpt lat="37.15693" lon="-8.72824">
        <ele>30.42</ele>
        <time>2021-01-24T09:51:14Z</time>
      </trkpt>
      <trkpt lat="37.15693" lon="-8.72829">
        <ele>30.42</ele>
        <time>2021-01-24T09:51:15Z</time>
      </trkpt>
      <trkpt lat="37.15689" lon="-8.72875">
        <ele>31.86</ele>
        <time>2021-01-24T09:51:24Z</time>
      </trkpt>
      <trkpt lat="37.15684" lon="-8.72884">
        <ele>31.86</ele>
        <time>2021-01-24T09:51:26Z</time>
      </trkpt>
      <trkpt lat="37.15682" lon="-8.72888">
        <ele>31.86</ele>
        <time>2021-01-24T09:51:27Z</time>
      </trkpt>
      <trkpt lat="37.1566" lon="-8.72923">
        <ele>31.86</ele>
        <time>2021-01-24T09:51:35Z</time>
      </trkpt>
      <trkpt lat="37.15644" lon="-8.72949">
        <ele>30.42</ele>
        <time>2021-01-24T09:51:41Z</time>
      </trkpt>
      <trkpt lat="37.15622" lon="-8.72985">
        <ele>29.46</ele>
        <time>2021-01-24T09:51:49Z</time>
      </trkpt>
      <trkpt lat="37.15618" lon="-8.72988">
        <ele>29.46</ele>
        <time>2021-01-24T09:51:50Z</time>
      </trkpt>
      <trkpt lat="37.1561" lon="-8.72994">
        <ele>29.46</ele>
        <time>2021-01-24T09:51:52Z</time>
      </trkpt>
      <trkpt lat="37.15588" lon="-8.73009">
        <ele>28.5</ele>
        <time>2021-01-24T09:51:57Z</time>
      </trkpt>
      <trkpt lat="37.15585" lon="-8.73014">
        <ele>28.5</ele>
        <time>2021-01-24T09:51:58Z</time>
      </trkpt>
      <trkpt lat="37.15583" lon="-8.7302">
        <ele>28.02</ele>
        <time>2021-01-24T09:51:59Z</time>
      </trkpt>
      <trkpt lat="37.15582" lon="-8.73026">
        <ele>28.02</ele>
        <time>2021-01-24T09:52:00Z</time>
      </trkpt>
      <trkpt lat="37.15582" lon="-8.73032">
        <ele>28.02</ele>
        <time>2021-01-24T09:52:01Z</time>
      </trkpt>
      <trkpt lat="37.15582" lon="-8.73038">
        <ele>28.02</ele>
        <time>2021-01-24T09:52:02Z</time>
      </trkpt>
      <trkpt lat="37.15583" lon="-8.73044">
        <ele>28.02</ele>
        <time>2021-01-24T09:52:03Z</time>
      </trkpt>
      <trkpt lat="37.15588" lon="-8.73078">
        <ele>27.53</ele>
        <time>2021-01-24T09:52:09Z</time>
      </trkpt>
      <trkpt lat="37.15589" lon="-8.73083">
        <ele>27.53</ele>
        <time>2021-01-24T09:52:10Z</time>
      </trkpt>
      <trkpt lat="37.1559" lon="-8.73089">
        <ele>27.53</ele>
        <time>2021-01-24T09:52:11Z</time>
      </trkpt>
      <trkpt lat="37.1559" lon="-8.73094">
        <ele>27.53</ele>
        <time>2021-01-24T09:52:12Z</time>
      </trkpt>
      <trkpt lat="37.15589" lon="-8.731">
        <ele>27.53</ele>
        <time>2021-01-24T09:52:13Z</time>
      </trkpt>
      <trkpt lat="37.15588" lon="-8.73105">
        <ele>27.53</ele>
        <time>2021-01-24T09:52:14Z</time>
      </trkpt>
      <trkpt lat="37.15587" lon="-8.7311">
        <ele>27.53</ele>
        <time>2021-01-24T09:52:15Z</time>
      </trkpt>
      <trkpt lat="37.15585" lon="-8.73115">
        <ele>27.53</ele>
        <time>2021-01-24T09:52:16Z</time>
      </trkpt>
      <trkpt lat="37.15584" lon="-8.73119">
        <ele>27.53</ele>
        <time>2021-01-24T09:52:17Z</time>
      </trkpt>
      <trkpt lat="37.15583" lon="-8.73124">
        <ele>27.53</ele>
        <time>2021-01-24T09:52:18Z</time>
      </trkpt>
      <trkpt lat="37.15582" lon="-8.73129">
        <ele>27.53</ele>
        <time>2021-01-24T09:52:19Z</time>
      </trkpt>
      <trkpt lat="37.15578" lon="-8.73156">
        <ele>30.42</ele>
        <time>2021-01-24T09:52:25Z</time>
      </trkpt>
      <trkpt lat="37.15579" lon="-8.73183">
        <ele>32.82</ele>
        <time>2021-01-24T09:52:32Z</time>
      </trkpt>
      <trkpt lat="37.15585" lon="-8.7322">
        <ele>33.78</ele>
        <time>2021-01-24T09:52:42Z</time>
      </trkpt>
      <trkpt lat="37.15594" lon="-8.73254">
        <ele>34.26</ele>
        <time>2021-01-24T09:52:51Z</time>
      </trkpt>
      <trkpt lat="37.156" lon="-8.73264">
        <ele>34.74</ele>
        <time>2021-01-24T09:52:55Z</time>
      </trkpt>
      <trkpt lat="37.15602" lon="-8.73264">
        <ele>34.74</ele>
        <time>2021-01-24T09:52:56Z</time>
      </trkpt>
      <trkpt lat="37.1561" lon="-8.73261">
        <ele>34.74</ele>
        <time>2021-01-24T09:52:58Z</time>
      </trkpt>
      <trkpt lat="37.15614" lon="-8.73261">
        <ele>33.3</ele>
        <time>2021-01-24T09:52:59Z</time>
      </trkpt>
      <trkpt lat="37.15619" lon="-8.73262">
        <ele>33.3</ele>
        <time>2021-01-24T09:53:00Z</time>
      </trkpt>
      <trkpt lat="37.15627" lon="-8.73265">
        <ele>32.82</ele>
        <time>2021-01-24T09:53:02Z</time>
      </trkpt>
      <trkpt lat="37.15632" lon="-8.73267">
        <ele>32.82</ele>
        <time>2021-01-24T09:53:03Z</time>
      </trkpt>
      <trkpt lat="37.15637" lon="-8.7327">
        <ele>32.82</ele>
        <time>2021-01-24T09:53:04Z</time>
      </trkpt>
      <trkpt lat="37.1564" lon="-8.73275">
        <ele>32.34</ele>
        <time>2021-01-24T09:53:05Z</time>
      </trkpt>
      <trkpt lat="37.15644" lon="-8.7328">
        <ele>32.34</ele>
        <time>2021-01-24T09:53:06Z</time>
      </trkpt>
      <trkpt lat="37.15646" lon="-8.73285">
        <ele>31.86</ele>
        <time>2021-01-24T09:53:07Z</time>
      </trkpt>
      <trkpt lat="37.15648" lon="-8.73292">
        <ele>31.86</ele>
        <time>2021-01-24T09:53:08Z</time>
      </trkpt>
      <trkpt lat="37.1565" lon="-8.73298">
        <ele>31.86</ele>
        <time>2021-01-24T09:53:09Z</time>
      </trkpt>
      <trkpt lat="37.1565" lon="-8.73305">
        <ele>31.38</ele>
        <time>2021-01-24T09:53:10Z</time>
      </trkpt>
      <trkpt lat="37.15651" lon="-8.73312">
        <ele>31.38</ele>
        <time>2021-01-24T09:53:11Z</time>
      </trkpt>
      <trkpt lat="37.15652" lon="-8.73325">
        <ele>30.9</ele>
        <time>2021-01-24T09:53:13Z</time>
      </trkpt>
      <trkpt lat="37.15654" lon="-8.73331">
        <ele>30.9</ele>
        <time>2021-01-24T09:53:14Z</time>
      </trkpt>
      <trkpt lat="37.15658" lon="-8.73337">
        <ele>30.42</ele>
        <time>2021-01-24T09:53:15Z</time>
      </trkpt>
      <trkpt lat="37.15662" lon="-8.73342">
        <ele>29.94</ele>
        <time>2021-01-24T09:53:16Z</time>
      </trkpt>
      <trkpt lat="37.15667" lon="-8.73345">
        <ele>29.46</ele>
        <time>2021-01-24T09:53:17Z</time>
      </trkpt>
      <trkpt lat="37.15672" lon="-8.73348">
        <ele>29.46</ele>
        <time>2021-01-24T09:53:18Z</time>
      </trkpt>
      <trkpt lat="37.15694" lon="-8.73361">
        <ele>29.46</ele>
        <time>2021-01-24T09:53:24Z</time>
      </trkpt>
      <trkpt lat="37.15696" lon="-8.73364">
        <ele>29.46</ele>
        <time>2021-01-24T09:53:25Z</time>
      </trkpt>
      <trkpt lat="37.15696" lon="-8.73369">
        <ele>29.46</ele>
        <time>2021-01-24T09:53:26Z</time>
      </trkpt>
      <trkpt lat="37.15696" lon="-8.73373">
        <ele>29.94</ele>
        <time>2021-01-24T09:53:27Z</time>
      </trkpt>
      <trkpt lat="37.15695" lon="-8.73377">
        <ele>29.46</ele>
        <time>2021-01-24T09:53:28Z</time>
      </trkpt>
      <trkpt lat="37.15695" lon="-8.73382">
        <ele>29.46</ele>
        <time>2021-01-24T09:53:29Z</time>
      </trkpt>
      <trkpt lat="37.15692" lon="-8.73442">
        <ele>29.94</ele>
        <time>2021-01-24T09:53:41Z</time>
      </trkpt>
      <trkpt lat="37.15693" lon="-8.73493">
        <ele>30.9</ele>
        <time>2021-01-24T09:53:52Z</time>
      </trkpt>
      <trkpt lat="37.15693" lon="-8.73538">
        <ele>30.9</ele>
        <time>2021-01-24T09:54:02Z</time>
      </trkpt>
      <trkpt lat="37.15692" lon="-8.73572">
        <ele>31.38</ele>
        <time>2021-01-24T09:54:10Z</time>
      </trkpt>
      <trkpt lat="37.15696" lon="-8.73587">
        <ele>32.34</ele>
        <time>2021-01-24T09:54:15Z</time>
      </trkpt>
      <trkpt lat="37.15716" lon="-8.736">
        <ele>32.34</ele>
        <time>2021-01-24T09:54:22Z</time>
      </trkpt>
      <trkpt lat="37.1573" lon="-8.73619">
        <ele>32.82</ele>
        <time>2021-01-24T09:54:28Z</time>
      </trkpt>
      <trkpt lat="37.15744" lon="-8.7365">
        <ele>33.3</ele>
        <time>2021-01-24T09:54:36Z</time>
      </trkpt>
      <trkpt lat="37.15766" lon="-8.7368">
        <ele>33.78</ele>
        <time>2021-01-24T09:54:45Z</time>
      </trkpt>
      <trkpt lat="37.15783" lon="-8.73719">
        <ele>34.26</ele>
        <time>2021-01-24T09:54:54Z</time>
      </trkpt>
      <trkpt lat="37.15789" lon="-8.73748">
        <ele>34.26</ele>
        <time>2021-01-24T09:55:00Z</time>
      </trkpt>
      <trkpt lat="37.15793" lon="-8.73797">
        <ele>34.74</ele>
        <time>2021-01-24T09:55:10Z</time>
      </trkpt>
      <trkpt lat="37.15799" lon="-8.73847">
        <ele>35.23</ele>
        <time>2021-01-24T09:55:20Z</time>
      </trkpt>
      <trkpt lat="37.15809" lon="-8.73893">
        <ele>35.23</ele>
        <time>2021-01-24T09:55:29Z</time>
      </trkpt>
      <trkpt lat="37.15821" lon="-8.73942">
        <ele>37.15</ele>
        <time>2021-01-24T09:55:40Z</time>
      </trkpt>
      <trkpt lat="37.15837" lon="-8.73979">
        <ele>40.51</ele>
        <time>2021-01-24T09:55:51Z</time>
      </trkpt>
      <trkpt lat="37.1586" lon="-8.74009">
        <ele>41.47</ele>
        <time>2021-01-24T09:56:01Z</time>
      </trkpt>
      <trkpt lat="37.15886" lon="-8.74042">
        <ele>41.47</ele>
        <time>2021-01-24T09:56:11Z</time>
      </trkpt>
      <trkpt lat="37.15889" lon="-8.74046">
        <ele>41.47</ele>
        <time>2021-01-24T09:56:12Z</time>
      </trkpt>
      <trkpt lat="37.15915" lon="-8.74077">
        <ele>41.95</ele>
        <time>2021-01-24T09:56:21Z</time>
      </trkpt>
      <trkpt lat="37.15951" lon="-8.74111">
        <ele>42.44</ele>
        <time>2021-01-24T09:56:32Z</time>
      </trkpt>
      <trkpt lat="37.15978" lon="-8.74134">
        <ele>42.44</ele>
        <time>2021-01-24T09:56:40Z</time>
      </trkpt>
      <trkpt lat="37.16007" lon="-8.74165">
        <ele>40.99</ele>
        <time>2021-01-24T09:56:49Z</time>
      </trkpt>
      <trkpt lat="37.16044" lon="-8.74186">
        <ele>40.03</ele>
        <time>2021-01-24T09:56:58Z</time>
      </trkpt>
      <trkpt lat="37.1609" lon="-8.74193">
        <ele>38.11</ele>
        <time>2021-01-24T09:57:07Z</time>
      </trkpt>
      <trkpt lat="37.16127" lon="-8.74192">
        <ele>38.11</ele>
        <time>2021-01-24T09:57:15Z</time>
      </trkpt>
      <trkpt lat="37.16165" lon="-8.74185">
        <ele>39.55</ele>
        <time>2021-01-24T09:57:24Z</time>
      </trkpt>
      <trkpt lat="37.1621" lon="-8.74189">
        <ele>40.03</ele>
        <time>2021-01-24T09:57:35Z</time>
      </trkpt>
      <trkpt lat="37.16252" lon="-8.74194">
        <ele>40.51</ele>
        <time>2021-01-24T09:57:45Z</time>
      </trkpt>
      <trkpt lat="37.16285" lon="-8.74182">
        <ele>40.99</ele>
        <time>2021-01-24T09:57:54Z</time>
      </trkpt>
      <trkpt lat="37.16299" lon="-8.74175">
        <ele>40.99</ele>
        <time>2021-01-24T09:57:58Z</time>
      </trkpt>
      <trkpt lat="37.16303" lon="-8.74171">
        <ele>40.99</ele>
        <time>2021-01-24T09:57:59Z</time>
      </trkpt>
      <trkpt lat="37.16305" lon="-8.74169">
        <ele>40.99</ele>
        <time>2021-01-24T09:58:00Z</time>
      </trkpt>
      <trkpt lat="37.16331" lon="-8.74135">
        <ele>40.99</ele>
        <time>2021-01-24T09:58:10Z</time>
      </trkpt>
      <trkpt lat="37.16345" lon="-8.74117">
        <ele>41.47</ele>
        <time>2021-01-24T09:58:16Z</time>
      </trkpt>
      <trkpt lat="37.1637" lon="-8.74094">
        <ele>41.47</ele>
        <time>2021-01-24T09:58:24Z</time>
      </trkpt>
      <trkpt lat="37.16381" lon="-8.74087">
        <ele>41.47</ele>
        <time>2021-01-24T09:58:27Z</time>
      </trkpt>
      <trkpt lat="37.16384" lon="-8.74084">
        <ele>41.47</ele>
        <time>2021-01-24T09:58:28Z</time>
      </trkpt>
      <trkpt lat="37.16422" lon="-8.7406">
        <ele>41.47</ele>
        <time>2021-01-24T09:58:39Z</time>
      </trkpt>
      <trkpt lat="37.16448" lon="-8.74048">
        <ele>41.47</ele>
        <time>2021-01-24T09:58:47Z</time>
      </trkpt>
      <trkpt lat="37.16461" lon="-8.74024">
        <ele>41.95</ele>
        <time>2021-01-24T09:58:53Z</time>
      </trkpt>
      <trkpt lat="37.16468" lon="-8.73997">
        <ele>42.92</ele>
        <time>2021-01-24T09:59:00Z</time>
      </trkpt>
      <trkpt lat="37.16482" lon="-8.73972">
        <ele>43.4</ele>
        <time>2021-01-24T09:59:08Z</time>
      </trkpt>
      <trkpt lat="37.16501" lon="-8.73957">
        <ele>43.88</ele>
        <time>2021-01-24T09:59:15Z</time>
      </trkpt>
      <trkpt lat="37.16525" lon="-8.73955">
        <ele>43.88</ele>
        <time>2021-01-24T09:59:22Z</time>
      </trkpt>
      <trkpt lat="37.16555" lon="-8.73946">
        <ele>44.36</ele>
        <time>2021-01-24T09:59:31Z</time>
      </trkpt>
      <trkpt lat="37.16582" lon="-8.73928">
        <ele>45.32</ele>
        <time>2021-01-24T09:59:40Z</time>
      </trkpt>
      <trkpt lat="37.16613" lon="-8.739">
        <ele>46.76</ele>
        <time>2021-01-24T09:59:52Z</time>
      </trkpt>
      <trkpt lat="37.16643" lon="-8.73873">
        <ele>47.72</ele>
        <time>2021-01-24T10:00:03Z</time>
      </trkpt>
      <trkpt lat="37.16675" lon="-8.73851">
        <ele>49.16</ele>
        <time>2021-01-24T10:00:14Z</time>
      </trkpt>
      <trkpt lat="37.16687" lon="-8.73835">
        <ele>49.65</ele>
        <time>2021-01-24T10:00:19Z</time>
      </trkpt>
      <trkpt lat="37.1669" lon="-8.73832">
        <ele>49.65</ele>
        <time>2021-01-24T10:00:20Z</time>
      </trkpt>
      <trkpt lat="37.16693" lon="-8.73829">
        <ele>49.65</ele>
        <time>2021-01-24T10:00:21Z</time>
      </trkpt>
      <trkpt lat="37.16721" lon="-8.73821">
        <ele>49.65</ele>
        <time>2021-01-24T10:00:29Z</time>
      </trkpt>
      <trkpt lat="37.16754" lon="-8.73823">
        <ele>50.13</ele>
        <time>2021-01-24T10:00:39Z</time>
      </trkpt>
      <trkpt lat="37.16785" lon="-8.73822">
        <ele>50.61</ele>
        <time>2021-01-24T10:00:48Z</time>
      </trkpt>
      <trkpt lat="37.16825" lon="-8.73816">
        <ele>51.09</ele>
        <time>2021-01-24T10:01:00Z</time>
      </trkpt>
      <trkpt lat="37.16854" lon="-8.73811">
        <ele>52.05</ele>
        <time>2021-01-24T10:01:09Z</time>
      </trkpt>
      <trkpt lat="37.16883" lon="-8.73808">
        <ele>52.05</ele>
        <time>2021-01-24T10:01:18Z</time>
      </trkpt>
      <trkpt lat="37.1691" lon="-8.73805">
        <ele>52.05</ele>
        <time>2021-01-24T10:01:26Z</time>
      </trkpt>
      <trkpt lat="37.16931" lon="-8.73792">
        <ele>52.05</ele>
        <time>2021-01-24T10:01:33Z</time>
      </trkpt>
      <trkpt lat="37.16957" lon="-8.7377">
        <ele>54.45</ele>
        <time>2021-01-24T10:01:43Z</time>
      </trkpt>
      <trkpt lat="37.16981" lon="-8.73745">
        <ele>54.93</ele>
        <time>2021-01-24T10:01:53Z</time>
      </trkpt>
      <trkpt lat="37.17014" lon="-8.7372">
        <ele>56.86</ele>
        <time>2021-01-24T10:02:05Z</time>
      </trkpt>
      <trkpt lat="37.17039" lon="-8.73702">
        <ele>57.82</ele>
        <time>2021-01-24T10:02:14Z</time>
      </trkpt>
      <trkpt lat="37.17068" lon="-8.73683">
        <ele>58.78</ele>
        <time>2021-01-24T10:02:24Z</time>
      </trkpt>
      <trkpt lat="37.17098" lon="-8.73678">
        <ele>59.26</ele>
        <time>2021-01-24T10:02:33Z</time>
      </trkpt>
      <trkpt lat="37.17124" lon="-8.73677">
        <ele>59.26</ele>
        <time>2021-01-24T10:02:41Z</time>
      </trkpt>
      <trkpt lat="37.17147" lon="-8.73692">
        <ele>59.26</ele>
        <time>2021-01-24T10:02:49Z</time>
      </trkpt>
      <trkpt lat="37.1717" lon="-8.73703">
        <ele>59.26</ele>
        <time>2021-01-24T10:02:56Z</time>
      </trkpt>
      <trkpt lat="37.1721" lon="-8.73702">
        <ele>59.26</ele>
        <time>2021-01-24T10:03:08Z</time>
      </trkpt>
      <trkpt lat="37.17236" lon="-8.73698">
        <ele>60.22</ele>
        <time>2021-01-24T10:03:16Z</time>
      </trkpt>
      <trkpt lat="37.17252" lon="-8.73714">
        <ele>61.18</ele>
        <time>2021-01-24T10:03:23Z</time>
      </trkpt>
      <trkpt lat="37.17271" lon="-8.73735">
        <ele>61.18</ele>
        <time>2021-01-24T10:03:31Z</time>
      </trkpt>
      <trkpt lat="37.17294" lon="-8.73761">
        <ele>61.18</ele>
        <time>2021-01-24T10:03:41Z</time>
      </trkpt>
      <trkpt lat="37.17315" lon="-8.73778">
        <ele>62.14</ele>
        <time>2021-01-24T10:03:49Z</time>
      </trkpt>
      <trkpt lat="37.17343" lon="-8.73794">
        <ele>65.03</ele>
        <time>2021-01-24T10:04:00Z</time>
      </trkpt>
      <trkpt lat="37.17361" lon="-8.73799">
        <ele>65.99</ele>
        <time>2021-01-24T10:04:07Z</time>
      </trkpt>
      <trkpt lat="37.17383" lon="-8.73808">
        <ele>66.95</ele>
        <time>2021-01-24T10:04:15Z</time>
      </trkpt>
      <trkpt lat="37.17404" lon="-8.73824">
        <ele>65.99</ele>
        <time>2021-01-24T10:04:22Z</time>
      </trkpt>
      <trkpt lat="37.17433" lon="-8.73833">
        <ele>65.03</ele>
        <time>2021-01-24T10:04:30Z</time>
      </trkpt>
      <trkpt lat="37.17459" lon="-8.73833">
        <ele>66.95</ele>
        <time>2021-01-24T10:04:39Z</time>
      </trkpt>
      <trkpt lat="37.17484" lon="-8.73838">
        <ele>69.83</ele>
        <time>2021-01-24T10:04:48Z</time>
      </trkpt>
      <trkpt lat="37.1751" lon="-8.73835">
        <ele>70.31</ele>
        <time>2021-01-24T10:04:58Z</time>
      </trkpt>
      <trkpt lat="37.17543" lon="-8.73828">
        <ele>70.31</ele>
        <time>2021-01-24T10:05:09Z</time>
      </trkpt>
      <trkpt lat="37.17567" lon="-8.73833">
        <ele>70.31</ele>
        <time>2021-01-24T10:05:17Z</time>
      </trkpt>
      <trkpt lat="37.17587" lon="-8.73848">
        <ele>70.79</ele>
        <time>2021-01-24T10:05:25Z</time>
      </trkpt>
      <trkpt lat="37.17613" lon="-8.73867">
        <ele>71.76</ele>
        <time>2021-01-24T10:05:35Z</time>
      </trkpt>
      <trkpt lat="37.17639" lon="-8.73892">
        <ele>72.72</ele>
        <time>2021-01-24T10:05:46Z</time>
      </trkpt>
      <trkpt lat="37.17663" lon="-8.73911">
        <ele>74.64</ele>
        <time>2021-01-24T10:05:56Z</time>
      </trkpt>
      <trkpt lat="37.17696" lon="-8.7393">
        <ele>75.12</ele>
        <time>2021-01-24T10:06:08Z</time>
      </trkpt>
      <trkpt lat="37.17727" lon="-8.73943">
        <ele>76.08</ele>
        <time>2021-01-24T10:06:19Z</time>
      </trkpt>
      <trkpt lat="37.17761" lon="-8.73941">
        <ele>76.56</ele>
        <time>2021-01-24T10:06:30Z</time>
      </trkpt>
      <trkpt lat="37.17794" lon="-8.7393">
        <ele>77.52</ele>
        <time>2021-01-24T10:06:41Z</time>
      </trkpt>
      <trkpt lat="37.17823" lon="-8.73908">
        <ele>78.97</ele>
        <time>2021-01-24T10:06:52Z</time>
      </trkpt>
      <trkpt lat="37.17854" lon="-8.73896">
        <ele>79.93</ele>
        <time>2021-01-24T10:07:03Z</time>
      </trkpt>
      <trkpt lat="37.17885" lon="-8.73881">
        <ele>81.37</ele>
        <time>2021-01-24T10:07:14Z</time>
      </trkpt>
      <trkpt lat="37.17912" lon="-8.73861">
        <ele>81.37</ele>
        <time>2021-01-24T10:07:24Z</time>
      </trkpt>
      <trkpt lat="37.17936" lon="-8.73843">
        <ele>82.33</ele>
        <time>2021-01-24T10:07:33Z</time>
      </trkpt>
      <trkpt lat="37.17966" lon="-8.73822">
        <ele>84.25</ele>
        <time>2021-01-24T10:07:45Z</time>
      </trkpt>
      <trkpt lat="37.17999" lon="-8.73795">
        <ele>86.18</ele>
        <time>2021-01-24T10:07:58Z</time>
      </trkpt>
      <trkpt lat="37.18029" lon="-8.73772">
        <ele>86.66</ele>
        <time>2021-01-24T10:08:09Z</time>
      </trkpt>
      <trkpt lat="37.18059" lon="-8.73745">
        <ele>87.62</ele>
        <time>2021-01-24T10:08:21Z</time>
      </trkpt>
      <trkpt lat="37.18093" lon="-8.73716">
        <ele>88.58</ele>
        <time>2021-01-24T10:08:34Z</time>
      </trkpt>
      <trkpt lat="37.18119" lon="-8.73694">
        <ele>90.02</ele>
        <time>2021-01-24T10:08:44Z</time>
      </trkpt>
      <trkpt lat="37.1814" lon="-8.7367">
        <ele>90.98</ele>
        <time>2021-01-24T10:08:53Z</time>
      </trkpt>
      <trkpt lat="37.18161" lon="-8.73655">
        <ele>91.94</ele>
        <time>2021-01-24T10:09:01Z</time>
      </trkpt>
      <trkpt lat="37.18186" lon="-8.73655">
        <ele>93.87</ele>
        <time>2021-01-24T10:09:10Z</time>
      </trkpt>
      <trkpt lat="37.18206" lon="-8.73654">
        <ele>90.98</ele>
        <time>2021-01-24T10:09:15Z</time>
      </trkpt>
      <trkpt lat="37.18211" lon="-8.73653">
        <ele>90.02</ele>
        <time>2021-01-24T10:09:16Z</time>
      </trkpt>
      <trkpt lat="37.18215" lon="-8.73651">
        <ele>89.06</ele>
        <time>2021-01-24T10:09:17Z</time>
      </trkpt>
      <trkpt lat="37.18219" lon="-8.73648">
        <ele>88.58</ele>
        <time>2021-01-24T10:09:18Z</time>
      </trkpt>
      <trkpt lat="37.18223" lon="-8.73645">
        <ele>87.62</ele>
        <time>2021-01-24T10:09:19Z</time>
      </trkpt>
      <trkpt lat="37.18227" lon="-8.73642">
        <ele>87.14</ele>
        <time>2021-01-24T10:09:20Z</time>
      </trkpt>
      <trkpt lat="37.1823" lon="-8.73638">
        <ele>86.18</ele>
        <time>2021-01-24T10:09:21Z</time>
      </trkpt>
      <trkpt lat="37.18234" lon="-8.73636">
        <ele>85.21</ele>
        <time>2021-01-24T10:09:22Z</time>
      </trkpt>
      <trkpt lat="37.18238" lon="-8.73634">
        <ele>84.73</ele>
        <time>2021-01-24T10:09:23Z</time>
      </trkpt>
      <trkpt lat="37.18243" lon="-8.73634">
        <ele>83.77</ele>
        <time>2021-01-24T10:09:24Z</time>
      </trkpt>
      <trkpt lat="37.18248" lon="-8.73635">
        <ele>82.81</ele>
        <time>2021-01-24T10:09:25Z</time>
      </trkpt>
      <trkpt lat="37.18254" lon="-8.73637">
        <ele>81.85</ele>
        <time>2021-01-24T10:09:26Z</time>
      </trkpt>
      <trkpt lat="37.18259" lon="-8.73639">
        <ele>80.89</ele>
        <time>2021-01-24T10:09:27Z</time>
      </trkpt>
      <trkpt lat="37.18265" lon="-8.73641">
        <ele>80.41</ele>
        <time>2021-01-24T10:09:28Z</time>
      </trkpt>
      <trkpt lat="37.18271" lon="-8.73641">
        <ele>79.93</ele>
        <time>2021-01-24T10:09:29Z</time>
      </trkpt>
      <trkpt lat="37.18276" lon="-8.7364">
        <ele>79.93</ele>
        <time>2021-01-24T10:09:30Z</time>
      </trkpt>
      <trkpt lat="37.18281" lon="-8.73638">
        <ele>78.97</ele>
        <time>2021-01-24T10:09:31Z</time>
      </trkpt>
      <trkpt lat="37.18291" lon="-8.73633">
        <ele>77.52</ele>
        <time>2021-01-24T10:09:33Z</time>
      </trkpt>
      <trkpt lat="37.18295" lon="-8.73632">
        <ele>77.04</ele>
        <time>2021-01-24T10:09:34Z</time>
      </trkpt>
      <trkpt lat="37.183" lon="-8.73632">
        <ele>76.56</ele>
        <time>2021-01-24T10:09:35Z</time>
      </trkpt>
      <trkpt lat="37.18305" lon="-8.73632">
        <ele>76.08</ele>
        <time>2021-01-24T10:09:36Z</time>
      </trkpt>
      <trkpt lat="37.18311" lon="-8.73633">
        <ele>75.12</ele>
        <time>2021-01-24T10:09:37Z</time>
      </trkpt>
      <trkpt lat="37.18317" lon="-8.73633">
        <ele>74.64</ele>
        <time>2021-01-24T10:09:38Z</time>
      </trkpt>
      <trkpt lat="37.18323" lon="-8.73633">
        <ele>74.16</ele>
        <time>2021-01-24T10:09:39Z</time>
      </trkpt>
      <trkpt lat="37.18329" lon="-8.73631">
        <ele>74.16</ele>
        <time>2021-01-24T10:09:40Z</time>
      </trkpt>
      <trkpt lat="37.18335" lon="-8.73629">
        <ele>74.16</ele>
        <time>2021-01-24T10:09:41Z</time>
      </trkpt>
      <trkpt lat="37.1834" lon="-8.73628">
        <ele>74.16</ele>
        <time>2021-01-24T10:09:42Z</time>
      </trkpt>
      <trkpt lat="37.18355" lon="-8.73622">
        <ele>72.72</ele>
        <time>2021-01-24T10:09:45Z</time>
      </trkpt>
      <trkpt lat="37.18361" lon="-8.73621">
        <ele>72.24</ele>
        <time>2021-01-24T10:09:46Z</time>
      </trkpt>
      <trkpt lat="37.18378" lon="-8.7362">
        <ele>68.39</ele>
        <time>2021-01-24T10:09:49Z</time>
      </trkpt>
      <trkpt lat="37.18395" lon="-8.73622">
        <ele>65.03</ele>
        <time>2021-01-24T10:09:52Z</time>
      </trkpt>
      <trkpt lat="37.18399" lon="-8.73624">
        <ele>63.58</ele>
        <time>2021-01-24T10:09:53Z</time>
      </trkpt>
      <trkpt lat="37.18404" lon="-8.73626">
        <ele>63.1</ele>
        <time>2021-01-24T10:09:54Z</time>
      </trkpt>
      <trkpt lat="37.18408" lon="-8.73629">
        <ele>62.14</ele>
        <time>2021-01-24T10:09:55Z</time>
      </trkpt>
      <trkpt lat="37.18412" lon="-8.73632">
        <ele>61.18</ele>
        <time>2021-01-24T10:09:56Z</time>
      </trkpt>
      <trkpt lat="37.18416" lon="-8.73636">
        <ele>59.74</ele>
        <time>2021-01-24T10:09:57Z</time>
      </trkpt>
      <trkpt lat="37.1842" lon="-8.73641">
        <ele>58.78</ele>
        <time>2021-01-24T10:09:58Z</time>
      </trkpt>
      <trkpt lat="37.18424" lon="-8.73646">
        <ele>57.34</ele>
        <time>2021-01-24T10:09:59Z</time>
      </trkpt>
      <trkpt lat="37.18436" lon="-8.73658">
        <ele>55.41</ele>
        <time>2021-01-24T10:10:01Z</time>
      </trkpt>
      <trkpt lat="37.18441" lon="-8.73665">
        <ele>54.45</ele>
        <time>2021-01-24T10:10:02Z</time>
      </trkpt>
      <trkpt lat="37.1848" lon="-8.73717">
        <ele>52.05</ele>
        <time>2021-01-24T10:10:10Z</time>
      </trkpt>
      <trkpt lat="37.18491" lon="-8.73733">
        <ele>51.57</ele>
        <time>2021-01-24T10:10:15Z</time>
      </trkpt>
      <trkpt lat="37.18487" lon="-8.7375">
        <ele>51.57</ele>
        <time>2021-01-24T10:10:21Z</time>
      </trkpt>
      <trkpt lat="37.18482" lon="-8.73771">
        <ele>50.61</ele>
        <time>2021-01-24T10:10:29Z</time>
      </trkpt>
      <trkpt lat="37.18481" lon="-8.73784">
        <ele>49.65</ele>
        <time>2021-01-24T10:10:35Z</time>
      </trkpt>
      <trkpt lat="37.18481" lon="-8.73805">
        <ele>49.65</ele>
        <time>2021-01-24T10:10:43Z</time>
      </trkpt>
      <trkpt lat="37.18482" lon="-8.7383">
        <ele>49.65</ele>
        <time>2021-01-24T10:10:51Z</time>
      </trkpt>
      <trkpt lat="37.18487" lon="-8.73855">
        <ele>52.05</ele>
        <time>2021-01-24T10:10:59Z</time>
      </trkpt>
      <trkpt lat="37.18501" lon="-8.73881">
        <ele>53.01</ele>
        <time>2021-01-24T10:11:08Z</time>
      </trkpt>
      <trkpt lat="37.18504" lon="-8.73894">
        <ele>54.45</ele>
        <time>2021-01-24T10:11:12Z</time>
      </trkpt>
      <trkpt lat="37.18514" lon="-8.73926">
        <ele>55.89</ele>
        <time>2021-01-24T10:11:22Z</time>
      </trkpt>
      <trkpt lat="37.1853" lon="-8.73952">
        <ele>56.37</ele>
        <time>2021-01-24T10:11:32Z</time>
      </trkpt>
      <trkpt lat="37.18543" lon="-8.73973">
        <ele>56.37</ele>
        <time>2021-01-24T10:11:40Z</time>
      </trkpt>
      <trkpt lat="37.1856" lon="-8.74006">
        <ele>56.86</ele>
        <time>2021-01-24T10:11:51Z</time>
      </trkpt>
      <trkpt lat="37.18578" lon="-8.74034">
        <ele>58.78</ele>
        <time>2021-01-24T10:12:02Z</time>
      </trkpt>
      <trkpt lat="37.18599" lon="-8.74062">
        <ele>59.74</ele>
        <time>2021-01-24T10:12:13Z</time>
      </trkpt>
      <trkpt lat="37.18627" lon="-8.74085">
        <ele>61.66</ele>
        <time>2021-01-24T10:12:25Z</time>
      </trkpt>
      <trkpt lat="37.18639" lon="-8.74094">
        <ele>62.14</ele>
        <time>2021-01-24T10:12:33Z</time>
      </trkpt>
      <trkpt lat="37.18641" lon="-8.74095">
        <ele>62.14</ele>
        <time>2021-01-24T10:12:39Z</time>
      </trkpt>
      <trkpt lat="37.18641" lon="-8.74094">
        <ele>62.14</ele>
        <time>2021-01-24T10:13:04Z</time>
      </trkpt>
      <trkpt lat="37.18641" lon="-8.74094">
        <ele>62.14</ele>
        <time>2021-01-24T10:13:33Z</time>
      </trkpt>
      <trkpt lat="37.18641" lon="-8.74096">
        <ele>62.62</ele>
        <time>2021-01-24T10:14:01Z</time>
      </trkpt>
      <trkpt lat="37.18639" lon="-8.74097">
        <ele>62.62</ele>
        <time>2021-01-24T10:14:27Z</time>
      </trkpt>
      <trkpt lat="37.18638" lon="-8.74096">
        <ele>62.62</ele>
        <time>2021-01-24T10:14:48Z</time>
      </trkpt>
      <trkpt lat="37.1864" lon="-8.74096">
        <ele>62.62</ele>
        <time>2021-01-24T10:15:09Z</time>
      </trkpt>
      <trkpt lat="37.18641" lon="-8.74098">
        <ele>62.62</ele>
        <time>2021-01-24T10:15:20Z</time>
      </trkpt>
      <trkpt lat="37.18642" lon="-8.74098">
        <ele>62.62</ele>
        <time>2021-01-24T10:15:27Z</time>
      </trkpt>
      <trkpt lat="37.18643" lon="-8.74099">
        <ele>62.62</ele>
        <time>2021-01-24T10:15:28Z</time>
      </trkpt>
      <trkpt lat="37.18644" lon="-8.74101">
        <ele>62.62</ele>
        <time>2021-01-24T10:15:29Z</time>
      </trkpt>
      <trkpt lat="37.18645" lon="-8.74102">
        <ele>62.62</ele>
        <time>2021-01-24T10:15:30Z</time>
      </trkpt>
      <trkpt lat="37.18647" lon="-8.74104">
        <ele>62.62</ele>
        <time>2021-01-24T10:15:31Z</time>
      </trkpt>
      <trkpt lat="37.18648" lon="-8.74106">
        <ele>62.62</ele>
        <time>2021-01-24T10:15:32Z</time>
      </trkpt>
      <trkpt lat="37.1865" lon="-8.74109">
        <ele>62.62</ele>
        <time>2021-01-24T10:15:33Z</time>
      </trkpt>
      <trkpt lat="37.18664" lon="-8.74136">
        <ele>62.62</ele>
        <time>2021-01-24T10:15:43Z</time>
      </trkpt>
      <trkpt lat="37.18678" lon="-8.74165">
        <ele>63.1</ele>
        <time>2021-01-24T10:15:52Z</time>
      </trkpt>
      <trkpt lat="37.18689" lon="-8.742">
        <ele>61.66</ele>
        <time>2021-01-24T10:16:01Z</time>
      </trkpt>
      <trkpt lat="37.18695" lon="-8.74228">
        <ele>59.74</ele>
        <time>2021-01-24T10:16:06Z</time>
      </trkpt>
      <trkpt lat="37.18697" lon="-8.74234">
        <ele>59.74</ele>
        <time>2021-01-24T10:16:07Z</time>
      </trkpt>
      <trkpt lat="37.18699" lon="-8.74239">
        <ele>60.22</ele>
        <time>2021-01-24T10:16:08Z</time>
      </trkpt>
      <trkpt lat="37.18716" lon="-8.74269">
        <ele>59.26</ele>
        <time>2021-01-24T10:16:15Z</time>
      </trkpt>
      <trkpt lat="37.18737" lon="-8.74295">
        <ele>59.26</ele>
        <time>2021-01-24T10:16:24Z</time>
      </trkpt>
      <trkpt lat="37.18758" lon="-8.74313">
        <ele>59.26</ele>
        <time>2021-01-24T10:16:33Z</time>
      </trkpt>
      <trkpt lat="37.18768" lon="-8.74325">
        <ele>59.26</ele>
        <time>2021-01-24T10:16:39Z</time>
      </trkpt>
      <trkpt lat="37.18781" lon="-8.74348">
        <ele>58.78</ele>
        <time>2021-01-24T10:16:47Z</time>
      </trkpt>
      <trkpt lat="37.18802" lon="-8.74373">
        <ele>58.78</ele>
        <time>2021-01-24T10:16:57Z</time>
      </trkpt>
      <trkpt lat="37.18824" lon="-8.74399">
        <ele>58.78</ele>
        <time>2021-01-24T10:17:07Z</time>
      </trkpt>
      <trkpt lat="37.18841" lon="-8.74429">
        <ele>60.22</ele>
        <time>2021-01-24T10:17:17Z</time>
      </trkpt>
      <trkpt lat="37.18864" lon="-8.74462">
        <ele>60.22</ele>
        <time>2021-01-24T10:17:29Z</time>
      </trkpt>
      <trkpt lat="37.18866" lon="-8.74465">
        <ele>60.22</ele>
        <time>2021-01-24T10:17:30Z</time>
      </trkpt>
      <trkpt lat="37.18871" lon="-8.74469">
        <ele>61.18</ele>
        <time>2021-01-24T10:17:32Z</time>
      </trkpt>
      <trkpt lat="37.18892" lon="-8.74493">
        <ele>61.18</ele>
        <time>2021-01-24T10:17:41Z</time>
      </trkpt>
      <trkpt lat="37.18905" lon="-8.74511">
        <ele>60.22</ele>
        <time>2021-01-24T10:17:47Z</time>
      </trkpt>
      <trkpt lat="37.18915" lon="-8.74542">
        <ele>60.22</ele>
        <time>2021-01-24T10:17:56Z</time>
      </trkpt>
      <trkpt lat="37.18925" lon="-8.74575">
        <ele>61.66</ele>
        <time>2021-01-24T10:18:05Z</time>
      </trkpt>
      <trkpt lat="37.18926" lon="-8.74579">
        <ele>61.66</ele>
        <time>2021-01-24T10:18:06Z</time>
      </trkpt>
      <trkpt lat="37.18932" lon="-8.74616">
        <ele>62.14</ele>
        <time>2021-01-24T10:18:16Z</time>
      </trkpt>
      <trkpt lat="37.18927" lon="-8.74655">
        <ele>62.14</ele>
        <time>2021-01-24T10:18:25Z</time>
      </trkpt>
      <trkpt lat="37.18927" lon="-8.74666">
        <ele>61.18</ele>
        <time>2021-01-24T10:18:27Z</time>
      </trkpt>
      <trkpt lat="37.18927" lon="-8.74671">
        <ele>61.18</ele>
        <time>2021-01-24T10:18:28Z</time>
      </trkpt>
      <trkpt lat="37.18929" lon="-8.74688">
        <ele>60.7</ele>
        <time>2021-01-24T10:18:31Z</time>
      </trkpt>
      <trkpt lat="37.18935" lon="-8.74721">
        <ele>60.22</ele>
        <time>2021-01-24T10:18:39Z</time>
      </trkpt>
      <trkpt lat="37.18936" lon="-8.74743">
        <ele>61.18</ele>
        <time>2021-01-24T10:18:45Z</time>
      </trkpt>
      <trkpt lat="37.1894" lon="-8.74777">
        <ele>63.58</ele>
        <time>2021-01-24T10:18:55Z</time>
      </trkpt>
      <trkpt lat="37.18948" lon="-8.74814">
        <ele>65.99</ele>
        <time>2021-01-24T10:19:06Z</time>
      </trkpt>
      <trkpt lat="37.18958" lon="-8.7484">
        <ele>67.91</ele>
        <time>2021-01-24T10:19:15Z</time>
      </trkpt>
      <trkpt lat="37.18968" lon="-8.74857">
        <ele>69.35</ele>
        <time>2021-01-24T10:19:23Z</time>
      </trkpt>
      <trkpt lat="37.1897" lon="-8.74858">
        <ele>69.35</ele>
        <time>2021-01-24T10:19:24Z</time>
      </trkpt>
      <trkpt lat="37.18972" lon="-8.74851">
        <ele>69.83</ele>
        <time>2021-01-24T10:19:27Z</time>
      </trkpt>
      <trkpt lat="37.18969" lon="-8.74825">
        <ele>70.31</ele>
        <time>2021-01-24T10:19:36Z</time>
      </trkpt>
      <trkpt lat="37.1898" lon="-8.74804">
        <ele>72.24</ele>
        <time>2021-01-24T10:19:44Z</time>
      </trkpt>
      <trkpt lat="37.18997" lon="-8.74788">
        <ele>74.16</ele>
        <time>2021-01-24T10:19:53Z</time>
      </trkpt>
      <trkpt lat="37.19015" lon="-8.7478">
        <ele>76.56</ele>
        <time>2021-01-24T10:20:01Z</time>
      </trkpt>
      <trkpt lat="37.19036" lon="-8.74771">
        <ele>78.97</ele>
        <time>2021-01-24T10:20:10Z</time>
      </trkpt>
      <trkpt lat="37.19063" lon="-8.74764">
        <ele>82.33</ele>
        <time>2021-01-24T10:20:21Z</time>
      </trkpt>
      <trkpt lat="37.19079" lon="-8.74762">
        <ele>82.81</ele>
        <time>2021-01-24T10:20:29Z</time>
      </trkpt>
      <trkpt lat="37.19096" lon="-8.74761">
        <ele>83.29</ele>
        <time>2021-01-24T10:20:36Z</time>
      </trkpt>
      <trkpt lat="37.1912" lon="-8.74758">
        <ele>84.73</ele>
        <time>2021-01-24T10:20:46Z</time>
      </trkpt>
      <trkpt lat="37.19143" lon="-8.74765">
        <ele>85.21</ele>
        <time>2021-01-24T10:20:55Z</time>
      </trkpt>
      <trkpt lat="37.19156" lon="-8.74775">
        <ele>88.58</ele>
        <time>2021-01-24T10:21:01Z</time>
      </trkpt>
      <trkpt lat="37.19167" lon="-8.74787">
        <ele>91.94</ele>
        <time>2021-01-24T10:21:07Z</time>
      </trkpt>
      <trkpt lat="37.19174" lon="-8.74796">
        <ele>94.83</ele>
        <time>2021-01-24T10:21:12Z</time>
      </trkpt>
      <trkpt lat="37.19187" lon="-8.74806">
        <ele>98.67</ele>
        <time>2021-01-24T10:21:19Z</time>
      </trkpt>
      <trkpt lat="37.19193" lon="-8.7481">
        <ele>100.11</ele>
        <time>2021-01-24T10:21:22Z</time>
      </trkpt>
      <trkpt lat="37.19209" lon="-8.74807">
        <ele>101.08</ele>
        <time>2021-01-24T10:21:29Z</time>
      </trkpt>
      <trkpt lat="37.19229" lon="-8.74802">
        <ele>101.08</ele>
        <time>2021-01-24T10:21:38Z</time>
      </trkpt>
      <trkpt lat="37.19254" lon="-8.74806">
        <ele>103</ele>
        <time>2021-01-24T10:21:48Z</time>
      </trkpt>
      <trkpt lat="37.19267" lon="-8.74808">
        <ele>105.4</ele>
        <time>2021-01-24T10:21:53Z</time>
      </trkpt>
      <trkpt lat="37.19281" lon="-8.74807">
        <ele>108.29</ele>
        <time>2021-01-24T10:21:59Z</time>
      </trkpt>
      <trkpt lat="37.19297" lon="-8.74797">
        <ele>108.77</ele>
        <time>2021-01-24T10:22:07Z</time>
      </trkpt>
      <trkpt lat="37.19301" lon="-8.74793">
        <ele>107.32</ele>
        <time>2021-01-24T10:22:09Z</time>
      </trkpt>
      <trkpt lat="37.19315" lon="-8.74784">
        <ele>105.4</ele>
        <time>2021-01-24T10:22:16Z</time>
      </trkpt>
      <trkpt lat="37.19329" lon="-8.74777">
        <ele>106.36</ele>
        <time>2021-01-24T10:22:22Z</time>
      </trkpt>
      <trkpt lat="37.1935" lon="-8.74775">
        <ele>109.73</ele>
        <time>2021-01-24T10:22:31Z</time>
      </trkpt>
      <trkpt lat="37.19373" lon="-8.74776">
        <ele>108.29</ele>
        <time>2021-01-24T10:22:40Z</time>
      </trkpt>
      <trkpt lat="37.19381" lon="-8.74775">
        <ele>106.84</ele>
        <time>2021-01-24T10:22:42Z</time>
      </trkpt>
      <trkpt lat="37.1941" lon="-8.74766">
        <ele>104.92</ele>
        <time>2021-01-24T10:22:49Z</time>
      </trkpt>
      <trkpt lat="37.19424" lon="-8.74767">
        <ele>103.96</ele>
        <time>2021-01-24T10:22:55Z</time>
      </trkpt>
      <trkpt lat="37.19433" lon="-8.74774">
        <ele>104.44</ele>
        <time>2021-01-24T10:23:01Z</time>
      </trkpt>
      <trkpt lat="37.19449" lon="-8.74787">
        <ele>104.44</ele>
        <time>2021-01-24T10:23:08Z</time>
      </trkpt>
      <trkpt lat="37.19471" lon="-8.74804">
        <ele>104.44</ele>
        <time>2021-01-24T10:23:17Z</time>
      </trkpt>
      <trkpt lat="37.19493" lon="-8.74821">
        <ele>104.44</ele>
        <time>2021-01-24T10:23:26Z</time>
      </trkpt>
      <trkpt lat="37.19519" lon="-8.74836">
        <ele>103</ele>
        <time>2021-01-24T10:23:34Z</time>
      </trkpt>
      <trkpt lat="37.1954" lon="-8.74853">
        <ele>101.08</ele>
        <time>2021-01-24T10:23:42Z</time>
      </trkpt>
      <trkpt lat="37.19543" lon="-8.74857">
        <ele>101.08</ele>
        <time>2021-01-24T10:23:44Z</time>
      </trkpt>
      <trkpt lat="37.19548" lon="-8.74859">
        <ele>100.6</ele>
        <time>2021-01-24T10:23:48Z</time>
      </trkpt>
      <trkpt lat="37.19553" lon="-8.74864">
        <ele>100.6</ele>
        <time>2021-01-24T10:23:55Z</time>
      </trkpt>
      <trkpt lat="37.19554" lon="-8.74864">
        <ele>100.6</ele>
        <time>2021-01-24T10:24:05Z</time>
      </trkpt>
      <trkpt lat="37.19559" lon="-8.74866">
        <ele>99.15</ele>
        <time>2021-01-24T10:24:09Z</time>
      </trkpt>
      <trkpt lat="37.19569" lon="-8.7487">
        <ele>98.19</ele>
        <time>2021-01-24T10:24:16Z</time>
      </trkpt>
      <trkpt lat="37.19576" lon="-8.74871">
        <ele>96.27</ele>
        <time>2021-01-24T10:24:20Z</time>
      </trkpt>
      <trkpt lat="37.19588" lon="-8.74867">
        <ele>92.9</ele>
        <time>2021-01-24T10:24:29Z</time>
      </trkpt>
      <trkpt lat="37.196" lon="-8.74869">
        <ele>90.02</ele>
        <time>2021-01-24T10:24:36Z</time>
      </trkpt>
      <trkpt lat="37.19611" lon="-8.74866">
        <ele>87.62</ele>
        <time>2021-01-24T10:24:42Z</time>
      </trkpt>
      <trkpt lat="37.19625" lon="-8.7487">
        <ele>84.73</ele>
        <time>2021-01-24T10:24:49Z</time>
      </trkpt>
      <trkpt lat="37.19632" lon="-8.74871">
        <ele>84.25</ele>
        <time>2021-01-24T10:24:55Z</time>
      </trkpt>
      <trkpt lat="37.19633" lon="-8.74871">
        <ele>83.77</ele>
        <time>2021-01-24T10:24:56Z</time>
      </trkpt>
      <trkpt lat="37.19634" lon="-8.74866">
        <ele>82.81</ele>
        <time>2021-01-24T10:25:01Z</time>
      </trkpt>
      <trkpt lat="37.19633" lon="-8.74864">
        <ele>82.81</ele>
        <time>2021-01-24T10:25:02Z</time>
      </trkpt>
      <trkpt lat="37.19616" lon="-8.74835">
        <ele>80.41</ele>
        <time>2021-01-24T10:25:09Z</time>
      </trkpt>
      <trkpt lat="37.19607" lon="-8.74805">
        <ele>78.48</ele>
        <time>2021-01-24T10:25:14Z</time>
      </trkpt>
      <trkpt lat="37.19605" lon="-8.74768">
        <ele>76.08</ele>
        <time>2021-01-24T10:25:20Z</time>
      </trkpt>
      <trkpt lat="37.19609" lon="-8.74754">
        <ele>74.64</ele>
        <time>2021-01-24T10:25:23Z</time>
      </trkpt>
      <trkpt lat="37.19608" lon="-8.74739">
        <ele>74.16</ele>
        <time>2021-01-24T10:25:26Z</time>
      </trkpt>
      <trkpt lat="37.19607" lon="-8.74736">
        <ele>74.16</ele>
        <time>2021-01-24T10:25:27Z</time>
      </trkpt>
      <trkpt lat="37.19606" lon="-8.74732">
        <ele>74.16</ele>
        <time>2021-01-24T10:25:28Z</time>
      </trkpt>
      <trkpt lat="37.19609" lon="-8.74722">
        <ele>73.2</ele>
        <time>2021-01-24T10:25:32Z</time>
      </trkpt>
      <trkpt lat="37.19609" lon="-8.74722">
        <ele>73.2</ele>
        <time>2021-01-24T10:25:39Z</time>
      </trkpt>
      <trkpt lat="37.19609" lon="-8.74718">
        <ele>72.72</ele>
        <time>2021-01-24T10:25:46Z</time>
      </trkpt>
      <trkpt lat="37.1961" lon="-8.74717">
        <ele>72.72</ele>
        <time>2021-01-24T10:25:49Z</time>
      </trkpt>
      <trkpt lat="37.19613" lon="-8.74718">
        <ele>72.72</ele>
        <time>2021-01-24T10:25:56Z</time>
      </trkpt>
      <trkpt lat="37.19615" lon="-8.7472">
        <ele>72.72</ele>
        <time>2021-01-24T10:26:08Z</time>
      </trkpt>
      <trkpt lat="37.1963" lon="-8.74731">
        <ele>72.72</ele>
        <time>2021-01-24T10:26:16Z</time>
      </trkpt>
      <trkpt lat="37.19654" lon="-8.74745">
        <ele>72.72</ele>
        <time>2021-01-24T10:26:26Z</time>
      </trkpt>
      <trkpt lat="37.19686" lon="-8.74753">
        <ele>74.16</ele>
        <time>2021-01-24T10:26:38Z</time>
      </trkpt>
      <trkpt lat="37.19713" lon="-8.74743">
        <ele>75.12</ele>
        <time>2021-01-24T10:26:47Z</time>
      </trkpt>
      <trkpt lat="37.19737" lon="-8.74728">
        <ele>75.6</ele>
        <time>2021-01-24T10:26:56Z</time>
      </trkpt>
      <trkpt lat="37.19763" lon="-8.74719">
        <ele>75.6</ele>
        <time>2021-01-24T10:27:05Z</time>
      </trkpt>
      <trkpt lat="37.19792" lon="-8.74719">
        <ele>76.56</ele>
        <time>2021-01-24T10:27:15Z</time>
      </trkpt>
      <trkpt lat="37.19822" lon="-8.74727">
        <ele>77.04</ele>
        <time>2021-01-24T10:27:25Z</time>
      </trkpt>
      <trkpt lat="37.19861" lon="-8.74727">
        <ele>78.48</ele>
        <time>2021-01-24T10:27:38Z</time>
      </trkpt>
      <trkpt lat="37.19891" lon="-8.74725">
        <ele>78.48</ele>
        <time>2021-01-24T10:27:48Z</time>
      </trkpt>
      <trkpt lat="37.19928" lon="-8.74724">
        <ele>78.48</ele>
        <time>2021-01-24T10:28:00Z</time>
      </trkpt>
      <trkpt lat="37.19957" lon="-8.74726">
        <ele>78.97</ele>
        <time>2021-01-24T10:28:09Z</time>
      </trkpt>
      <trkpt lat="37.19992" lon="-8.74729">
        <ele>80.41</ele>
        <time>2021-01-24T10:28:21Z</time>
      </trkpt>
      <trkpt lat="37.20018" lon="-8.7473">
        <ele>80.41</ele>
        <time>2021-01-24T10:28:29Z</time>
      </trkpt>
      <trkpt lat="37.20044" lon="-8.74722">
        <ele>81.37</ele>
        <time>2021-01-24T10:28:38Z</time>
      </trkpt>
      <trkpt lat="37.20064" lon="-8.74705">
        <ele>81.85</ele>
        <time>2021-01-24T10:28:46Z</time>
      </trkpt>
      <trkpt lat="37.20086" lon="-8.74704">
        <ele>82.33</ele>
        <time>2021-01-24T10:28:53Z</time>
      </trkpt>
      <trkpt lat="37.20113" lon="-8.7472">
        <ele>82.33</ele>
        <time>2021-01-24T10:29:03Z</time>
      </trkpt>
      <trkpt lat="37.20145" lon="-8.74743">
        <ele>83.77</ele>
        <time>2021-01-24T10:29:15Z</time>
      </trkpt>
      <trkpt lat="37.20177" lon="-8.7476">
        <ele>84.25</ele>
        <time>2021-01-24T10:29:26Z</time>
      </trkpt>
      <trkpt lat="37.202" lon="-8.74763">
        <ele>84.25</ele>
        <time>2021-01-24T10:29:34Z</time>
      </trkpt>
      <trkpt lat="37.20203" lon="-8.74761">
        <ele>84.25</ele>
        <time>2021-01-24T10:29:35Z</time>
      </trkpt>
      <trkpt lat="37.20215" lon="-8.74742">
        <ele>85.69</ele>
        <time>2021-01-24T10:29:42Z</time>
      </trkpt>
      <trkpt lat="37.2023" lon="-8.74717">
        <ele>86.66</ele>
        <time>2021-01-24T10:29:51Z</time>
      </trkpt>
      <trkpt lat="37.20244" lon="-8.74688">
        <ele>89.54</ele>
        <time>2021-01-24T10:30:01Z</time>
      </trkpt>
      <trkpt lat="37.20257" lon="-8.74668">
        <ele>91.94</ele>
        <time>2021-01-24T10:30:09Z</time>
      </trkpt>
      <trkpt lat="37.20268" lon="-8.74639">
        <ele>93.87</ele>
        <time>2021-01-24T10:30:19Z</time>
      </trkpt>
      <trkpt lat="37.20281" lon="-8.74614">
        <ele>94.83</ele>
        <time>2021-01-24T10:30:28Z</time>
      </trkpt>
      <trkpt lat="37.20294" lon="-8.74597">
        <ele>98.19</ele>
        <time>2021-01-24T10:30:36Z</time>
      </trkpt>
      <trkpt lat="37.20306" lon="-8.74583">
        <ele>99.63</ele>
        <time>2021-01-24T10:30:44Z</time>
      </trkpt>
      <trkpt lat="37.20322" lon="-8.74576">
        <ele>99.63</ele>
        <time>2021-01-24T10:30:51Z</time>
      </trkpt>
      <trkpt lat="37.20347" lon="-8.74572">
        <ele>100.6</ele>
        <time>2021-01-24T10:31:01Z</time>
      </trkpt>
      <trkpt lat="37.20371" lon="-8.74564">
        <ele>100.6</ele>
        <time>2021-01-24T10:31:11Z</time>
      </trkpt>
      <trkpt lat="37.20387" lon="-8.74553">
        <ele>100.6</ele>
        <time>2021-01-24T10:31:18Z</time>
      </trkpt>
      <trkpt lat="37.2039" lon="-8.7455">
        <ele>99.15</ele>
        <time>2021-01-24T10:31:19Z</time>
      </trkpt>
      <trkpt lat="37.20397" lon="-8.74544">
        <ele>98.67</ele>
        <time>2021-01-24T10:31:21Z</time>
      </trkpt>
      <trkpt lat="37.2041" lon="-8.74539">
        <ele>98.19</ele>
        <time>2021-01-24T10:31:25Z</time>
      </trkpt>
      <trkpt lat="37.20422" lon="-8.74529">
        <ele>101.56</ele>
        <time>2021-01-24T10:31:31Z</time>
      </trkpt>
      <trkpt lat="37.20439" lon="-8.74521">
        <ele>103.96</ele>
        <time>2021-01-24T10:31:38Z</time>
      </trkpt>
      <trkpt lat="37.20462" lon="-8.74506">
        <ele>106.84</ele>
        <time>2021-01-24T10:31:49Z</time>
      </trkpt>
      <trkpt lat="37.20478" lon="-8.74491">
        <ele>107.32</ele>
        <time>2021-01-24T10:31:57Z</time>
      </trkpt>
      <trkpt lat="37.20493" lon="-8.74497">
        <ele>107.81</ele>
        <time>2021-01-24T10:32:03Z</time>
      </trkpt>
      <trkpt lat="37.20513" lon="-8.74498">
        <ele>108.29</ele>
        <time>2021-01-24T10:32:11Z</time>
      </trkpt>
      <trkpt lat="37.20539" lon="-8.74497">
        <ele>109.73</ele>
        <time>2021-01-24T10:32:21Z</time>
      </trkpt>
      <trkpt lat="37.20563" lon="-8.74496">
        <ele>113.09</ele>
        <time>2021-01-24T10:32:31Z</time>
      </trkpt>
      <trkpt lat="37.20585" lon="-8.74484">
        <ele>113.57</ele>
        <time>2021-01-24T10:32:40Z</time>
      </trkpt>
      <trkpt lat="37.20602" lon="-8.74473">
        <ele>113.57</ele>
        <time>2021-01-24T10:32:46Z</time>
      </trkpt>
      <trkpt lat="37.20612" lon="-8.74479">
        <ele>115.01</ele>
        <time>2021-01-24T10:32:51Z</time>
      </trkpt>
      <trkpt lat="37.20627" lon="-8.745">
        <ele>116.46</ele>
        <time>2021-01-24T10:33:00Z</time>
      </trkpt>
      <trkpt lat="37.20629" lon="-8.74529">
        <ele>118.38</ele>
        <time>2021-01-24T10:33:09Z</time>
      </trkpt>
      <trkpt lat="37.20638" lon="-8.74557">
        <ele>120.3</ele>
        <time>2021-01-24T10:33:19Z</time>
      </trkpt>
      <trkpt lat="37.20648" lon="-8.74578">
        <ele>122.22</ele>
        <time>2021-01-24T10:33:26Z</time>
      </trkpt>
      <trkpt lat="37.20663" lon="-8.74588">
        <ele>123.19</ele>
        <time>2021-01-24T10:33:33Z</time>
      </trkpt>
      <trkpt lat="37.20695" lon="-8.74596">
        <ele>123.19</ele>
        <time>2021-01-24T10:33:44Z</time>
      </trkpt>
      <trkpt lat="37.20719" lon="-8.746">
        <ele>125.59</ele>
        <time>2021-01-24T10:33:54Z</time>
      </trkpt>
      <trkpt lat="37.20742" lon="-8.74595">
        <ele>125.59</ele>
        <time>2021-01-24T10:34:03Z</time>
      </trkpt>
      <trkpt lat="37.20765" lon="-8.74597">
        <ele>127.99</ele>
        <time>2021-01-24T10:34:13Z</time>
      </trkpt>
      <trkpt lat="37.20782" lon="-8.746">
        <ele>127.99</ele>
        <time>2021-01-24T10:34:20Z</time>
      </trkpt>
      <trkpt lat="37.20796" lon="-8.74613">
        <ele>128.47</ele>
        <time>2021-01-24T10:34:28Z</time>
      </trkpt>
      <trkpt lat="37.20817" lon="-8.74613">
        <ele>129.92</ele>
        <time>2021-01-24T10:34:37Z</time>
      </trkpt>
      <trkpt lat="37.20837" lon="-8.746">
        <ele>131.84</ele>
        <time>2021-01-24T10:34:47Z</time>
      </trkpt>
      <trkpt lat="37.20859" lon="-8.74583">
        <ele>133.28</ele>
        <time>2021-01-24T10:34:57Z</time>
      </trkpt>
      <trkpt lat="37.20877" lon="-8.74571">
        <ele>133.76</ele>
        <time>2021-01-24T10:35:04Z</time>
      </trkpt>
      <trkpt lat="37.20888" lon="-8.74554">
        <ele>132.32</ele>
        <time>2021-01-24T10:35:08Z</time>
      </trkpt>
      <trkpt lat="37.20896" lon="-8.74544">
        <ele>130.88</ele>
        <time>2021-01-24T10:35:10Z</time>
      </trkpt>
      <trkpt lat="37.20911" lon="-8.74528">
        <ele>129.43</ele>
        <time>2021-01-24T10:35:13Z</time>
      </trkpt>
      <trkpt lat="37.20915" lon="-8.74521">
        <ele>128.95</ele>
        <time>2021-01-24T10:35:14Z</time>
      </trkpt>
      <trkpt lat="37.20918" lon="-8.74513">
        <ele>128.47</ele>
        <time>2021-01-24T10:35:15Z</time>
      </trkpt>
      <trkpt lat="37.2092" lon="-8.74506">
        <ele>128.47</ele>
        <time>2021-01-24T10:35:16Z</time>
      </trkpt>
      <trkpt lat="37.2092" lon="-8.74498">
        <ele>128.47</ele>
        <time>2021-01-24T10:35:17Z</time>
      </trkpt>
      <trkpt lat="37.2092" lon="-8.7449">
        <ele>128.47</ele>
        <time>2021-01-24T10:35:18Z</time>
      </trkpt>
      <trkpt lat="37.20919" lon="-8.74483">
        <ele>128.47</ele>
        <time>2021-01-24T10:35:19Z</time>
      </trkpt>
      <trkpt lat="37.20919" lon="-8.7447">
        <ele>128.47</ele>
        <time>2021-01-24T10:35:21Z</time>
      </trkpt>
      <trkpt lat="37.20919" lon="-8.74464">
        <ele>128.47</ele>
        <time>2021-01-24T10:35:22Z</time>
      </trkpt>
      <trkpt lat="37.20922" lon="-8.74453">
        <ele>128.47</ele>
        <time>2021-01-24T10:35:24Z</time>
      </trkpt>
      <trkpt lat="37.20923" lon="-8.74448">
        <ele>128.47</ele>
        <time>2021-01-24T10:35:25Z</time>
      </trkpt>
      <trkpt lat="37.2094" lon="-8.74405">
        <ele>129.92</ele>
        <time>2021-01-24T10:35:35Z</time>
      </trkpt>
      <trkpt lat="37.20951" lon="-8.7439">
        <ele>130.88</ele>
        <time>2021-01-24T10:35:40Z</time>
      </trkpt>
      <trkpt lat="37.20968" lon="-8.74389">
        <ele>132.8</ele>
        <time>2021-01-24T10:35:46Z</time>
      </trkpt>
      <trkpt lat="37.20988" lon="-8.74392">
        <ele>133.28</ele>
        <time>2021-01-24T10:35:52Z</time>
      </trkpt>
      <trkpt lat="37.21008" lon="-8.744">
        <ele>131.84</ele>
        <time>2021-01-24T10:35:58Z</time>
      </trkpt>
      <trkpt lat="37.21031" lon="-8.74418">
        <ele>130.4</ele>
        <time>2021-01-24T10:36:04Z</time>
      </trkpt>
      <trkpt lat="37.21048" lon="-8.74427">
        <ele>131.84</ele>
        <time>2021-01-24T10:36:10Z</time>
      </trkpt>
      <trkpt lat="37.2105" lon="-8.7443">
        <ele>131.84</ele>
        <time>2021-01-24T10:36:11Z</time>
      </trkpt>
      <trkpt lat="37.21068" lon="-8.74449">
        <ele>133.28</ele>
        <time>2021-01-24T10:36:19Z</time>
      </trkpt>
      <trkpt lat="37.21082" lon="-8.74457">
        <ele>135.2</ele>
        <time>2021-01-24T10:36:25Z</time>
      </trkpt>
      <trkpt lat="37.21084" lon="-8.74455">
        <ele>135.68</ele>
        <time>2021-01-24T10:36:26Z</time>
      </trkpt>
      <trkpt lat="37.21104" lon="-8.7444">
        <ele>135.68</ele>
        <time>2021-01-24T10:36:34Z</time>
      </trkpt>
      <trkpt lat="37.21124" lon="-8.74433">
        <ele>136.64</ele>
        <time>2021-01-24T10:36:42Z</time>
      </trkpt>
      <trkpt lat="37.21136" lon="-8.74449">
        <ele>136.64</ele>
        <time>2021-01-24T10:36:48Z</time>
      </trkpt>
      <trkpt lat="37.21135" lon="-8.74467">
        <ele>135.68</ele>
        <time>2021-01-24T10:36:53Z</time>
      </trkpt>
      <trkpt lat="37.21133" lon="-8.7449">
        <ele>135.2</ele>
        <time>2021-01-24T10:37:00Z</time>
      </trkpt>
      <trkpt lat="37.21131" lon="-8.74507">
        <ele>134.24</ele>
        <time>2021-01-24T10:37:04Z</time>
      </trkpt>
      <trkpt lat="37.21132" lon="-8.74511">
        <ele>134.24</ele>
        <time>2021-01-24T10:37:05Z</time>
      </trkpt>
      <trkpt lat="37.21133" lon="-8.74515">
        <ele>134.24</ele>
        <time>2021-01-24T10:37:06Z</time>
      </trkpt>
      <trkpt lat="37.21135" lon="-8.74518">
        <ele>134.24</ele>
        <time>2021-01-24T10:37:07Z</time>
      </trkpt>
      <trkpt lat="37.21137" lon="-8.74521">
        <ele>134.24</ele>
        <time>2021-01-24T10:37:08Z</time>
      </trkpt>
      <trkpt lat="37.21151" lon="-8.74536">
        <ele>137.61</ele>
        <time>2021-01-24T10:37:16Z</time>
      </trkpt>
      <trkpt lat="37.21168" lon="-8.74541">
        <ele>138.57</ele>
        <time>2021-01-24T10:37:23Z</time>
      </trkpt>
      <trkpt lat="37.21189" lon="-8.74536">
        <ele>139.53</ele>
        <time>2021-01-24T10:37:32Z</time>
      </trkpt>
      <trkpt lat="37.21208" lon="-8.74542">
        <ele>141.93</ele>
        <time>2021-01-24T10:37:40Z</time>
      </trkpt>
      <trkpt lat="37.21212" lon="-8.74561">
        <ele>142.41</ele>
        <time>2021-01-24T10:37:46Z</time>
      </trkpt>
      <trkpt lat="37.21218" lon="-8.7459">
        <ele>142.41</ele>
        <time>2021-01-24T10:37:55Z</time>
      </trkpt>
      <trkpt lat="37.21219" lon="-8.74615">
        <ele>142.41</ele>
        <time>2021-01-24T10:38:02Z</time>
      </trkpt>
      <trkpt lat="37.2121" lon="-8.74631">
        <ele>141.45</ele>
        <time>2021-01-24T10:38:08Z</time>
      </trkpt>
      <trkpt lat="37.21196" lon="-8.74645">
        <ele>140.49</ele>
        <time>2021-01-24T10:38:14Z</time>
      </trkpt>
      <trkpt lat="37.21196" lon="-8.7465">
        <ele>140.49</ele>
        <time>2021-01-24T10:38:15Z</time>
      </trkpt>
      <trkpt lat="37.21198" lon="-8.74653">
        <ele>140.49</ele>
        <time>2021-01-24T10:38:16Z</time>
      </trkpt>
      <trkpt lat="37.212" lon="-8.74655">
        <ele>140.49</ele>
        <time>2021-01-24T10:38:17Z</time>
      </trkpt>
      <trkpt lat="37.21202" lon="-8.74657">
        <ele>140.49</ele>
        <time>2021-01-24T10:38:18Z</time>
      </trkpt>
      <trkpt lat="37.21204" lon="-8.74659">
        <ele>140.01</ele>
        <time>2021-01-24T10:38:19Z</time>
      </trkpt>
      <trkpt lat="37.21207" lon="-8.74661">
        <ele>140.01</ele>
        <time>2021-01-24T10:38:20Z</time>
      </trkpt>
      <trkpt lat="37.21211" lon="-8.74662">
        <ele>139.53</ele>
        <time>2021-01-24T10:38:21Z</time>
      </trkpt>
      <trkpt lat="37.21215" lon="-8.74662">
        <ele>139.53</ele>
        <time>2021-01-24T10:38:22Z</time>
      </trkpt>
      <trkpt lat="37.21252" lon="-8.7466">
        <ele>136.64</ele>
        <time>2021-01-24T10:38:29Z</time>
      </trkpt>
      <trkpt lat="37.21279" lon="-8.74656">
        <ele>135.2</ele>
        <time>2021-01-24T10:38:34Z</time>
      </trkpt>
      <trkpt lat="37.21283" lon="-8.74658">
        <ele>134.72</ele>
        <time>2021-01-24T10:38:35Z</time>
      </trkpt>
      <trkpt lat="37.21286" lon="-8.74663">
        <ele>134.72</ele>
        <time>2021-01-24T10:38:36Z</time>
      </trkpt>
      <trkpt lat="37.21287" lon="-8.74667">
        <ele>134.72</ele>
        <time>2021-01-24T10:38:37Z</time>
      </trkpt>
      <trkpt lat="37.21288" lon="-8.74672">
        <ele>134.72</ele>
        <time>2021-01-24T10:38:38Z</time>
      </trkpt>
      <trkpt lat="37.2129" lon="-8.74677">
        <ele>134.72</ele>
        <time>2021-01-24T10:38:39Z</time>
      </trkpt>
      <trkpt lat="37.21293" lon="-8.74682">
        <ele>133.28</ele>
        <time>2021-01-24T10:38:40Z</time>
      </trkpt>
      <trkpt lat="37.21296" lon="-8.74687">
        <ele>132.8</ele>
        <time>2021-01-24T10:38:41Z</time>
      </trkpt>
      <trkpt lat="37.213" lon="-8.74691">
        <ele>132.8</ele>
        <time>2021-01-24T10:38:42Z</time>
      </trkpt>
      <trkpt lat="37.21303" lon="-8.74694">
        <ele>132.8</ele>
        <time>2021-01-24T10:38:43Z</time>
      </trkpt>
      <trkpt lat="37.21307" lon="-8.74698">
        <ele>132.32</ele>
        <time>2021-01-24T10:38:44Z</time>
      </trkpt>
      <trkpt lat="37.21322" lon="-8.74714">
        <ele>130.88</ele>
        <time>2021-01-24T10:38:48Z</time>
      </trkpt>
      <trkpt lat="37.21326" lon="-8.74716">
        <ele>130.4</ele>
        <time>2021-01-24T10:38:49Z</time>
      </trkpt>
      <trkpt lat="37.21345" lon="-8.7472">
        <ele>128.47</ele>
        <time>2021-01-24T10:38:53Z</time>
      </trkpt>
      <trkpt lat="37.2135" lon="-8.74719">
        <ele>127.99</ele>
        <time>2021-01-24T10:38:54Z</time>
      </trkpt>
      <trkpt lat="37.21354" lon="-8.74716">
        <ele>127.99</ele>
        <time>2021-01-24T10:38:55Z</time>
      </trkpt>
      <trkpt lat="37.21358" lon="-8.74712">
        <ele>127.99</ele>
        <time>2021-01-24T10:38:56Z</time>
      </trkpt>
      <trkpt lat="37.21362" lon="-8.74708">
        <ele>127.03</ele>
        <time>2021-01-24T10:38:57Z</time>
      </trkpt>
      <trkpt lat="37.21366" lon="-8.74705">
        <ele>127.03</ele>
        <time>2021-01-24T10:38:58Z</time>
      </trkpt>
      <trkpt lat="37.21371" lon="-8.74702">
        <ele>127.03</ele>
        <time>2021-01-24T10:38:59Z</time>
      </trkpt>
      <trkpt lat="37.21375" lon="-8.74699">
        <ele>127.03</ele>
        <time>2021-01-24T10:39:00Z</time>
      </trkpt>
      <trkpt lat="37.21379" lon="-8.74698">
        <ele>127.03</ele>
        <time>2021-01-24T10:39:01Z</time>
      </trkpt>
      <trkpt lat="37.21383" lon="-8.74698">
        <ele>127.03</ele>
        <time>2021-01-24T10:39:02Z</time>
      </trkpt>
      <trkpt lat="37.21386" lon="-8.74699">
        <ele>127.03</ele>
        <time>2021-01-24T10:39:03Z</time>
      </trkpt>
      <trkpt lat="37.21397" lon="-8.74709">
        <ele>127.51</ele>
        <time>2021-01-24T10:39:09Z</time>
      </trkpt>
      <trkpt lat="37.21408" lon="-8.74732">
        <ele>126.55</ele>
        <time>2021-01-24T10:39:16Z</time>
      </trkpt>
      <trkpt lat="37.21419" lon="-8.74743">
        <ele>125.59</ele>
        <time>2021-01-24T10:39:20Z</time>
      </trkpt>
      <trkpt lat="37.21422" lon="-8.74743">
        <ele>125.59</ele>
        <time>2021-01-24T10:39:21Z</time>
      </trkpt>
      <trkpt lat="37.21425" lon="-8.74742">
        <ele>125.59</ele>
        <time>2021-01-24T10:39:22Z</time>
      </trkpt>
      <trkpt lat="37.21446" lon="-8.74735">
        <ele>125.59</ele>
        <time>2021-01-24T10:39:31Z</time>
      </trkpt>
      <trkpt lat="37.21466" lon="-8.74743">
        <ele>124.63</ele>
        <time>2021-01-24T10:39:38Z</time>
      </trkpt>
      <trkpt lat="37.2148" lon="-8.7476">
        <ele>123.19</ele>
        <time>2021-01-24T10:39:42Z</time>
      </trkpt>
      <trkpt lat="37.21483" lon="-8.74764">
        <ele>123.19</ele>
        <time>2021-01-24T10:39:43Z</time>
      </trkpt>
      <trkpt lat="37.21491" lon="-8.74781">
        <ele>124.63</ele>
        <time>2021-01-24T10:39:49Z</time>
      </trkpt>
      <trkpt lat="37.21503" lon="-8.7479">
        <ele>125.59</ele>
        <time>2021-01-24T10:39:55Z</time>
      </trkpt>
      <trkpt lat="37.21518" lon="-8.74797">
        <ele>126.07</ele>
        <time>2021-01-24T10:40:02Z</time>
      </trkpt>
      <trkpt lat="37.21536" lon="-8.74804">
        <ele>127.03</ele>
        <time>2021-01-24T10:40:10Z</time>
      </trkpt>
      <trkpt lat="37.21555" lon="-8.74809">
        <ele>128.47</ele>
        <time>2021-01-24T10:40:18Z</time>
      </trkpt>
      <trkpt lat="37.21571" lon="-8.74813">
        <ele>130.4</ele>
        <time>2021-01-24T10:40:26Z</time>
      </trkpt>
      <trkpt lat="37.21584" lon="-8.74825">
        <ele>131.84</ele>
        <time>2021-01-24T10:40:34Z</time>
      </trkpt>
      <trkpt lat="37.21597" lon="-8.74843">
        <ele>132.32</ele>
        <time>2021-01-24T10:40:42Z</time>
      </trkpt>
      <trkpt lat="37.21605" lon="-8.74869">
        <ele>132.32</ele>
        <time>2021-01-24T10:40:51Z</time>
      </trkpt>
      <trkpt lat="37.21611" lon="-8.74892">
        <ele>133.28</ele>
        <time>2021-01-24T10:41:00Z</time>
      </trkpt>
      <trkpt lat="37.21612" lon="-8.74894">
        <ele>133.28</ele>
        <time>2021-01-24T10:41:01Z</time>
      </trkpt>
      <trkpt lat="37.21625" lon="-8.74909">
        <ele>134.72</ele>
        <time>2021-01-24T10:41:10Z</time>
      </trkpt>
      <trkpt lat="37.21641" lon="-8.74921">
        <ele>136.64</ele>
        <time>2021-01-24T10:41:18Z</time>
      </trkpt>
      <trkpt lat="37.21655" lon="-8.74936">
        <ele>140.01</ele>
        <time>2021-01-24T10:41:28Z</time>
      </trkpt>
      <trkpt lat="37.21668" lon="-8.74951">
        <ele>141.93</ele>
        <time>2021-01-24T10:41:37Z</time>
      </trkpt>
      <trkpt lat="37.2168" lon="-8.74969">
        <ele>144.82</ele>
        <time>2021-01-24T10:41:47Z</time>
      </trkpt>
      <trkpt lat="37.2169" lon="-8.74988">
        <ele>146.26</ele>
        <time>2021-01-24T10:41:57Z</time>
      </trkpt>
      <trkpt lat="37.21705" lon="-8.75005">
        <ele>146.26</ele>
        <time>2021-01-24T10:42:06Z</time>
      </trkpt>
      <trkpt lat="37.21725" lon="-8.75015">
        <ele>146.74</ele>
        <time>2021-01-24T10:42:15Z</time>
      </trkpt>
      <trkpt lat="37.21739" lon="-8.75034">
        <ele>147.7</ele>
        <time>2021-01-24T10:42:24Z</time>
      </trkpt>
      <trkpt lat="37.21754" lon="-8.75045">
        <ele>147.7</ele>
        <time>2021-01-24T10:42:31Z</time>
      </trkpt>
      <trkpt lat="37.21775" lon="-8.75047">
        <ele>149.14</ele>
        <time>2021-01-24T10:42:40Z</time>
      </trkpt>
      <trkpt lat="37.21796" lon="-8.75051">
        <ele>150.1</ele>
        <time>2021-01-24T10:42:50Z</time>
      </trkpt>
      <trkpt lat="37.21815" lon="-8.75055">
        <ele>150.1</ele>
        <time>2021-01-24T10:42:58Z</time>
      </trkpt>
      <trkpt lat="37.21817" lon="-8.75055">
        <ele>150.1</ele>
        <time>2021-01-24T10:42:59Z</time>
      </trkpt>
      <trkpt lat="37.21837" lon="-8.75061">
        <ele>150.1</ele>
        <time>2021-01-24T10:43:08Z</time>
      </trkpt>
      <trkpt lat="37.21862" lon="-8.75064">
        <ele>151.54</ele>
        <time>2021-01-24T10:43:18Z</time>
      </trkpt>
      <trkpt lat="37.21885" lon="-8.75061">
        <ele>153.47</ele>
        <time>2021-01-24T10:43:28Z</time>
      </trkpt>
      <trkpt lat="37.2191" lon="-8.75058">
        <ele>154.43</ele>
        <time>2021-01-24T10:43:39Z</time>
      </trkpt>
      <trkpt lat="37.21935" lon="-8.75059">
        <ele>153.47</ele>
        <time>2021-01-24T10:43:47Z</time>
      </trkpt>
      <trkpt lat="37.21938" lon="-8.75059">
        <ele>153.47</ele>
        <time>2021-01-24T10:43:48Z</time>
      </trkpt>
      <trkpt lat="37.21969" lon="-8.75056">
        <ele>152.51</ele>
        <time>2021-01-24T10:43:57Z</time>
      </trkpt>
      <trkpt lat="37.21998" lon="-8.75048">
        <ele>151.06</ele>
        <time>2021-01-24T10:44:04Z</time>
      </trkpt>
      <trkpt lat="37.22011" lon="-8.75046">
        <ele>152.51</ele>
        <time>2021-01-24T10:44:09Z</time>
      </trkpt>
      <trkpt lat="37.22032" lon="-8.7505">
        <ele>154.91</ele>
        <time>2021-01-24T10:44:18Z</time>
      </trkpt>
      <trkpt lat="37.22051" lon="-8.75055">
        <ele>157.31</ele>
        <time>2021-01-24T10:44:27Z</time>
      </trkpt>
      <trkpt lat="37.22072" lon="-8.75061">
        <ele>157.79</ele>
        <time>2021-01-24T10:44:37Z</time>
      </trkpt>
      <trkpt lat="37.22095" lon="-8.75076">
        <ele>158.75</ele>
        <time>2021-01-24T10:44:48Z</time>
      </trkpt>
      <trkpt lat="37.22112" lon="-8.75088">
        <ele>160.2</ele>
        <time>2021-01-24T10:44:56Z</time>
      </trkpt>
      <trkpt lat="37.22132" lon="-8.75098">
        <ele>162.6</ele>
        <time>2021-01-24T10:45:06Z</time>
      </trkpt>
      <trkpt lat="37.22153" lon="-8.75103">
        <ele>165.48</ele>
        <time>2021-01-24T10:45:15Z</time>
      </trkpt>
      <trkpt lat="37.2217" lon="-8.75105">
        <ele>168.85</ele>
        <time>2021-01-24T10:45:23Z</time>
      </trkpt>
      <trkpt lat="37.22189" lon="-8.75114">
        <ele>171.25</ele>
        <time>2021-01-24T10:45:32Z</time>
      </trkpt>
      <trkpt lat="37.22219" lon="-8.75132">
        <ele>173.17</ele>
        <time>2021-01-24T10:45:46Z</time>
      </trkpt>
      <trkpt lat="37.22235" lon="-8.75141">
        <ele>173.17</ele>
        <time>2021-01-24T10:45:54Z</time>
      </trkpt>
      <trkpt lat="37.2225" lon="-8.75155">
        <ele>174.14</ele>
        <time>2021-01-24T10:46:02Z</time>
      </trkpt>
      <trkpt lat="37.22261" lon="-8.75172">
        <ele>174.14</ele>
        <time>2021-01-24T10:46:09Z</time>
      </trkpt>
      <trkpt lat="37.22278" lon="-8.75197">
        <ele>176.06</ele>
        <time>2021-01-24T10:46:20Z</time>
      </trkpt>
      <trkpt lat="37.22294" lon="-8.75221">
        <ele>176.54</ele>
        <time>2021-01-24T10:46:30Z</time>
      </trkpt>
      <trkpt lat="37.22309" lon="-8.75233">
        <ele>177.02</ele>
        <time>2021-01-24T10:46:37Z</time>
      </trkpt>
      <trkpt lat="37.2233" lon="-8.75244">
        <ele>178.94</ele>
        <time>2021-01-24T10:46:46Z</time>
      </trkpt>
      <trkpt lat="37.22356" lon="-8.75249">
        <ele>180.38</ele>
        <time>2021-01-24T10:46:57Z</time>
      </trkpt>
      <trkpt lat="37.22379" lon="-8.75253">
        <ele>182.31</ele>
        <time>2021-01-24T10:47:08Z</time>
      </trkpt>
      <trkpt lat="37.22399" lon="-8.75255">
        <ele>182.79</ele>
        <time>2021-01-24T10:47:17Z</time>
      </trkpt>
      <trkpt lat="37.22418" lon="-8.75255">
        <ele>183.75</ele>
        <time>2021-01-24T10:47:25Z</time>
      </trkpt>
      <trkpt lat="37.22438" lon="-8.75256">
        <ele>186.63</ele>
        <time>2021-01-24T10:47:34Z</time>
      </trkpt>
      <trkpt lat="37.22442" lon="-8.75239">
        <ele>188.08</ele>
        <time>2021-01-24T10:47:41Z</time>
      </trkpt>
      <trkpt lat="37.22439" lon="-8.75229">
        <ele>189.04</ele>
        <time>2021-01-24T10:47:45Z</time>
      </trkpt>
      <trkpt lat="37.22423" lon="-8.75208">
        <ele>190</ele>
        <time>2021-01-24T10:47:55Z</time>
      </trkpt>
      <trkpt lat="37.22406" lon="-8.75198">
        <ele>190</ele>
        <time>2021-01-24T10:48:02Z</time>
      </trkpt>
      <trkpt lat="37.2239" lon="-8.75186">
        <ele>190</ele>
        <time>2021-01-24T10:48:09Z</time>
      </trkpt>
      <trkpt lat="37.22374" lon="-8.75165">
        <ele>190</ele>
        <time>2021-01-24T10:48:19Z</time>
      </trkpt>
      <trkpt lat="37.22362" lon="-8.75143">
        <ele>190.48</ele>
        <time>2021-01-24T10:48:28Z</time>
      </trkpt>
      <trkpt lat="37.22358" lon="-8.75129">
        <ele>191.92</ele>
        <time>2021-01-24T10:48:33Z</time>
      </trkpt>
      <trkpt lat="37.22357" lon="-8.75127">
        <ele>192.4</ele>
        <time>2021-01-24T10:48:34Z</time>
      </trkpt>
      <trkpt lat="37.22356" lon="-8.75123">
        <ele>192.4</ele>
        <time>2021-01-24T10:48:37Z</time>
      </trkpt>
      <trkpt lat="37.22356" lon="-8.75122">
        <ele>192.4</ele>
        <time>2021-01-24T10:48:44Z</time>
      </trkpt>
      <trkpt lat="37.22356" lon="-8.75121">
        <ele>192.4</ele>
        <time>2021-01-24T10:48:49Z</time>
      </trkpt>
      <trkpt lat="37.22351" lon="-8.75121">
        <ele>192.4</ele>
        <time>2021-01-24T10:48:55Z</time>
      </trkpt>
      <trkpt lat="37.22357" lon="-8.75124">
        <ele>192.4</ele>
        <time>2021-01-24T10:49:00Z</time>
      </trkpt>
      <trkpt lat="37.22363" lon="-8.75123">
        <ele>192.88</ele>
        <time>2021-01-24T10:49:03Z</time>
      </trkpt>
      <trkpt lat="37.2238" lon="-8.75131">
        <ele>196.73</ele>
        <time>2021-01-24T10:49:10Z</time>
      </trkpt>
      <trkpt lat="37.22391" lon="-8.75138">
        <ele>200.09</ele>
        <time>2021-01-24T10:49:15Z</time>
      </trkpt>
      <trkpt lat="37.224" lon="-8.75142">
        <ele>203.46</ele>
        <time>2021-01-24T10:49:20Z</time>
      </trkpt>
      <trkpt lat="37.22402" lon="-8.75142">
        <ele>203.46</ele>
        <time>2021-01-24T10:49:21Z</time>
      </trkpt>
      <trkpt lat="37.22422" lon="-8.7514">
        <ele>205.38</ele>
        <time>2021-01-24T10:49:30Z</time>
      </trkpt>
      <trkpt lat="37.22435" lon="-8.75139">
        <ele>208.74</ele>
        <time>2021-01-24T10:49:35Z</time>
      </trkpt>
      <trkpt lat="37.22442" lon="-8.75139">
        <ele>211.63</ele>
        <time>2021-01-24T10:49:39Z</time>
      </trkpt>
      <trkpt lat="37.22456" lon="-8.75134">
        <ele>214.99</ele>
        <time>2021-01-24T10:49:46Z</time>
      </trkpt>
      <trkpt lat="37.22462" lon="-8.75133">
        <ele>215.47</ele>
        <time>2021-01-24T10:49:50Z</time>
      </trkpt>
      <trkpt lat="37.22478" lon="-8.75144">
        <ele>217.88</ele>
        <time>2021-01-24T10:49:58Z</time>
      </trkpt>
      <trkpt lat="37.22488" lon="-8.7515">
        <ele>220.76</ele>
        <time>2021-01-24T10:50:03Z</time>
      </trkpt>
      <trkpt lat="37.22494" lon="-8.75156">
        <ele>224.12</ele>
        <time>2021-01-24T10:50:08Z</time>
      </trkpt>
      <trkpt lat="37.22499" lon="-8.75159">
        <ele>225.57</ele>
        <time>2021-01-24T10:50:11Z</time>
      </trkpt>
      <trkpt lat="37.22515" lon="-8.75165">
        <ele>227.97</ele>
        <time>2021-01-24T10:50:19Z</time>
      </trkpt>
      <trkpt lat="37.2253" lon="-8.75165">
        <ele>228.45</ele>
        <time>2021-01-24T10:50:27Z</time>
      </trkpt>
      <trkpt lat="37.22547" lon="-8.7516">
        <ele>228.45</ele>
        <time>2021-01-24T10:50:35Z</time>
      </trkpt>
      <trkpt lat="37.22563" lon="-8.7515">
        <ele>227.97</ele>
        <time>2021-01-24T10:50:43Z</time>
      </trkpt>
      <trkpt lat="37.22583" lon="-8.75142">
        <ele>226.53</ele>
        <time>2021-01-24T10:50:50Z</time>
      </trkpt>
      <trkpt lat="37.22607" lon="-8.75136">
        <ele>224.61</ele>
        <time>2021-01-24T10:50:57Z</time>
      </trkpt>
      <trkpt lat="37.22614" lon="-8.75132">
        <ele>223.64</ele>
        <time>2021-01-24T10:50:59Z</time>
      </trkpt>
      <trkpt lat="37.22621" lon="-8.75127">
        <ele>222.68</ele>
        <time>2021-01-24T10:51:01Z</time>
      </trkpt>
      <trkpt lat="37.22639" lon="-8.75115">
        <ele>222.2</ele>
        <time>2021-01-24T10:51:07Z</time>
      </trkpt>
      <trkpt lat="37.22641" lon="-8.75114">
        <ele>222.2</ele>
        <time>2021-01-24T10:51:08Z</time>
      </trkpt>
      <trkpt lat="37.22655" lon="-8.75109">
        <ele>222.2</ele>
        <time>2021-01-24T10:51:14Z</time>
      </trkpt>
      <trkpt lat="37.22663" lon="-8.75096">
        <ele>221.24</ele>
        <time>2021-01-24T10:51:17Z</time>
      </trkpt>
      <trkpt lat="37.22672" lon="-8.75087">
        <ele>220.76</ele>
        <time>2021-01-24T10:51:20Z</time>
      </trkpt>
      <trkpt lat="37.22676" lon="-8.75085">
        <ele>221.24</ele>
        <time>2021-01-24T10:51:22Z</time>
      </trkpt>
      <trkpt lat="37.22691" lon="-8.75085">
        <ele>222.2</ele>
        <time>2021-01-24T10:51:28Z</time>
      </trkpt>
      <trkpt lat="37.22702" lon="-8.75079">
        <ele>224.61</ele>
        <time>2021-01-24T10:51:33Z</time>
      </trkpt>
      <trkpt lat="37.22709" lon="-8.75062">
        <ele>226.53</ele>
        <time>2021-01-24T10:51:40Z</time>
      </trkpt>
      <trkpt lat="37.22722" lon="-8.75043">
        <ele>227.01</ele>
        <time>2021-01-24T10:51:49Z</time>
      </trkpt>
      <trkpt lat="37.2274" lon="-8.75024">
        <ele>229.89</ele>
        <time>2021-01-24T10:51:59Z</time>
      </trkpt>
      <trkpt lat="37.22752" lon="-8.75014">
        <ele>232.3</ele>
        <time>2021-01-24T10:52:06Z</time>
      </trkpt>
      <trkpt lat="37.22767" lon="-8.75001">
        <ele>234.22</ele>
        <time>2021-01-24T10:52:15Z</time>
      </trkpt>
      <trkpt lat="37.2278" lon="-8.74999">
        <ele>234.7</ele>
        <time>2021-01-24T10:52:22Z</time>
      </trkpt>
      <trkpt lat="37.2279" lon="-8.75009">
        <ele>235.18</ele>
        <time>2021-01-24T10:52:28Z</time>
      </trkpt>
      <trkpt lat="37.22789" lon="-8.75028">
        <ele>237.1</ele>
        <time>2021-01-24T10:52:35Z</time>
      </trkpt>
      <trkpt lat="37.22785" lon="-8.75051">
        <ele>239.99</ele>
        <time>2021-01-24T10:52:44Z</time>
      </trkpt>
      <trkpt lat="37.22779" lon="-8.75078">
        <ele>243.35</ele>
        <time>2021-01-24T10:52:54Z</time>
      </trkpt>
      <trkpt lat="37.22773" lon="-8.75098">
        <ele>245.27</ele>
        <time>2021-01-24T10:53:02Z</time>
      </trkpt>
      <trkpt lat="37.2276" lon="-8.75124">
        <ele>245.75</ele>
        <time>2021-01-24T10:53:14Z</time>
      </trkpt>
      <trkpt lat="37.2274" lon="-8.75152">
        <ele>246.72</ele>
        <time>2021-01-24T10:53:28Z</time>
      </trkpt>
      <trkpt lat="37.22725" lon="-8.75175">
        <ele>248.64</ele>
        <time>2021-01-24T10:53:39Z</time>
      </trkpt>
      <trkpt lat="37.22709" lon="-8.75197">
        <ele>251.52</ele>
        <time>2021-01-24T10:53:50Z</time>
      </trkpt>
      <trkpt lat="37.22696" lon="-8.75216">
        <ele>253.44</ele>
        <time>2021-01-24T10:53:59Z</time>
      </trkpt>
      <trkpt lat="37.22675" lon="-8.75238">
        <ele>256.33</ele>
        <time>2021-01-24T10:54:12Z</time>
      </trkpt>
      <trkpt lat="37.22658" lon="-8.75263">
        <ele>258.25</ele>
        <time>2021-01-24T10:54:24Z</time>
      </trkpt>
      <trkpt lat="37.22652" lon="-8.75288">
        <ele>259.21</ele>
        <time>2021-01-24T10:54:34Z</time>
      </trkpt>
      <trkpt lat="37.2265" lon="-8.75313">
        <ele>259.69</ele>
        <time>2021-01-24T10:54:43Z</time>
      </trkpt>
      <trkpt lat="37.22649" lon="-8.75338">
        <ele>259.69</ele>
        <time>2021-01-24T10:54:51Z</time>
      </trkpt>
      <trkpt lat="37.22645" lon="-8.75361">
        <ele>258.25</ele>
        <time>2021-01-24T10:54:57Z</time>
      </trkpt>
      <trkpt lat="37.22644" lon="-8.75391">
        <ele>255.37</ele>
        <time>2021-01-24T10:55:03Z</time>
      </trkpt>
      <trkpt lat="37.2265" lon="-8.75409">
        <ele>252.96</ele>
        <time>2021-01-24T10:55:07Z</time>
      </trkpt>
      <trkpt lat="37.2266" lon="-8.75429">
        <ele>249.12</ele>
        <time>2021-01-24T10:55:11Z</time>
      </trkpt>
      <trkpt lat="37.22669" lon="-8.75445">
        <ele>246.72</ele>
        <time>2021-01-24T10:55:14Z</time>
      </trkpt>
      <trkpt lat="37.22686" lon="-8.75469">
        <ele>243.83</ele>
        <time>2021-01-24T10:55:20Z</time>
      </trkpt>
      <trkpt lat="37.22688" lon="-8.75471">
        <ele>243.83</ele>
        <time>2021-01-24T10:55:24Z</time>
      </trkpt>
      <trkpt lat="37.22687" lon="-8.7547">
        <ele>243.35</ele>
        <time>2021-01-24T10:55:36Z</time>
      </trkpt>
      <trkpt lat="37.22687" lon="-8.75471">
        <ele>243.35</ele>
        <time>2021-01-24T10:55:55Z</time>
      </trkpt>
      <trkpt lat="37.22687" lon="-8.75471">
        <ele>243.35</ele>
        <time>2021-01-24T10:56:11Z</time>
      </trkpt>
      <trkpt lat="37.22686" lon="-8.75471">
        <ele>243.35</ele>
        <time>2021-01-24T10:56:33Z</time>
      </trkpt>
      <trkpt lat="37.22687" lon="-8.75469">
        <ele>243.35</ele>
        <time>2021-01-24T10:56:42Z</time>
      </trkpt>
      <trkpt lat="37.22691" lon="-8.7547">
        <ele>243.35</ele>
        <time>2021-01-24T10:56:49Z</time>
      </trkpt>
      <trkpt lat="37.2269" lon="-8.75469">
        <ele>242.87</ele>
        <time>2021-01-24T10:57:08Z</time>
      </trkpt>
      <trkpt lat="37.22691" lon="-8.75469">
        <ele>242.87</ele>
        <time>2021-01-24T10:57:31Z</time>
      </trkpt>
      <trkpt lat="37.22692" lon="-8.7547">
        <ele>242.87</ele>
        <time>2021-01-24T10:57:59Z</time>
      </trkpt>
      <trkpt lat="37.22691" lon="-8.7547">
        <ele>242.87</ele>
        <time>2021-01-24T10:58:24Z</time>
      </trkpt>
      <trkpt lat="37.22691" lon="-8.75471">
        <ele>242.87</ele>
        <time>2021-01-24T10:58:41Z</time>
      </trkpt>
      <trkpt lat="37.22691" lon="-8.75471">
        <ele>242.87</ele>
        <time>2021-01-24T10:59:03Z</time>
      </trkpt>
      <trkpt lat="37.2269" lon="-8.7547">
        <ele>242.87</ele>
        <time>2021-01-24T10:59:30Z</time>
      </trkpt>
      <trkpt lat="37.22691" lon="-8.75469">
        <ele>242.87</ele>
        <time>2021-01-24T10:59:42Z</time>
      </trkpt>
      <trkpt lat="37.22693" lon="-8.75465">
        <ele>242.87</ele>
        <time>2021-01-24T10:59:47Z</time>
      </trkpt>
      <trkpt lat="37.22694" lon="-8.75464">
        <ele>242.87</ele>
        <time>2021-01-24T10:59:48Z</time>
      </trkpt>
      <trkpt lat="37.22708" lon="-8.75443">
        <ele>240.47</ele>
        <time>2021-01-24T10:59:57Z</time>
      </trkpt>
      <trkpt lat="37.22717" lon="-8.75436">
        <ele>239.02</ele>
        <time>2021-01-24T11:00:00Z</time>
      </trkpt>
      <trkpt lat="37.22727" lon="-8.75429">
        <ele>237.1</ele>
        <time>2021-01-24T11:00:03Z</time>
      </trkpt>
      <trkpt lat="37.22744" lon="-8.7542">
        <ele>234.22</ele>
        <time>2021-01-24T11:00:08Z</time>
      </trkpt>
      <trkpt lat="37.22762" lon="-8.75408">
        <ele>230.85</ele>
        <time>2021-01-24T11:00:14Z</time>
      </trkpt>
      <trkpt lat="37.22779" lon="-8.754">
        <ele>227.49</ele>
        <time>2021-01-24T11:00:19Z</time>
      </trkpt>
      <trkpt lat="37.22795" lon="-8.75393">
        <ele>224.61</ele>
        <time>2021-01-24T11:00:24Z</time>
      </trkpt>
      <trkpt lat="37.22815" lon="-8.75385">
        <ele>221.24</ele>
        <time>2021-01-24T11:00:30Z</time>
      </trkpt>
      <trkpt lat="37.22819" lon="-8.75383">
        <ele>220.76</ele>
        <time>2021-01-24T11:00:31Z</time>
      </trkpt>
      <trkpt lat="37.22822" lon="-8.75379">
        <ele>220.28</ele>
        <time>2021-01-24T11:00:32Z</time>
      </trkpt>
      <trkpt lat="37.22825" lon="-8.75376">
        <ele>220.28</ele>
        <time>2021-01-24T11:00:33Z</time>
      </trkpt>
      <trkpt lat="37.22829" lon="-8.75372">
        <ele>219.8</ele>
        <time>2021-01-24T11:00:34Z</time>
      </trkpt>
      <trkpt lat="37.22834" lon="-8.75363">
        <ele>218.84</ele>
        <time>2021-01-24T11:00:36Z</time>
      </trkpt>
      <trkpt lat="37.22837" lon="-8.75359">
        <ele>217.88</ele>
        <time>2021-01-24T11:00:37Z</time>
      </trkpt>
      <trkpt lat="37.22854" lon="-8.75336">
        <ele>214.51</ele>
        <time>2021-01-24T11:00:42Z</time>
      </trkpt>
      <trkpt lat="37.22868" lon="-8.75316">
        <ele>211.15</ele>
        <time>2021-01-24T11:00:47Z</time>
      </trkpt>
      <trkpt lat="37.2288" lon="-8.75296">
        <ele>207.78</ele>
        <time>2021-01-24T11:00:52Z</time>
      </trkpt>
      <trkpt lat="37.22896" lon="-8.7527">
        <ele>204.9</ele>
        <time>2021-01-24T11:00:59Z</time>
      </trkpt>
      <trkpt lat="37.22907" lon="-8.7526">
        <ele>202.98</ele>
        <time>2021-01-24T11:01:02Z</time>
      </trkpt>
      <trkpt lat="37.22932" lon="-8.75225">
        <ele>200.09</ele>
        <time>2021-01-24T11:01:10Z</time>
      </trkpt>
      <trkpt lat="37.22943" lon="-8.75209">
        <ele>198.17</ele>
        <time>2021-01-24T11:01:14Z</time>
      </trkpt>
      <trkpt lat="37.22961" lon="-8.75182">
        <ele>195.28</ele>
        <time>2021-01-24T11:01:21Z</time>
      </trkpt>
      <trkpt lat="37.22973" lon="-8.75161">
        <ele>191.92</ele>
        <time>2021-01-24T11:01:27Z</time>
      </trkpt>
      <trkpt lat="37.22981" lon="-8.75139">
        <ele>190</ele>
        <time>2021-01-24T11:01:32Z</time>
      </trkpt>
      <trkpt lat="37.22991" lon="-8.7511">
        <ele>187.11</ele>
        <time>2021-01-24T11:01:39Z</time>
      </trkpt>
      <trkpt lat="37.22994" lon="-8.75101">
        <ele>185.67</ele>
        <time>2021-01-24T11:01:41Z</time>
      </trkpt>
      <trkpt lat="37.23004" lon="-8.75078">
        <ele>183.27</ele>
        <time>2021-01-24T11:01:45Z</time>
      </trkpt>
      <trkpt lat="37.23008" lon="-8.75068">
        <ele>182.31</ele>
        <time>2021-01-24T11:01:47Z</time>
      </trkpt>
      <trkpt lat="37.23022" lon="-8.75027">
        <ele>178.94</ele>
        <time>2021-01-24T11:01:54Z</time>
      </trkpt>
      <trkpt lat="37.23025" lon="-8.75022">
        <ele>178.46</ele>
        <time>2021-01-24T11:01:55Z</time>
      </trkpt>
      <trkpt lat="37.23043" lon="-8.74974">
        <ele>176.06</ele>
        <time>2021-01-24T11:02:02Z</time>
      </trkpt>
      <trkpt lat="37.23051" lon="-8.74938">
        <ele>174.14</ele>
        <time>2021-01-24T11:02:07Z</time>
      </trkpt>
      <trkpt lat="37.23053" lon="-8.74889">
        <ele>171.73</ele>
        <time>2021-01-24T11:02:13Z</time>
      </trkpt>
      <trkpt lat="37.23046" lon="-8.74849">
        <ele>170.29</ele>
        <time>2021-01-24T11:02:19Z</time>
      </trkpt>
      <trkpt lat="37.23046" lon="-8.74843">
        <ele>169.33</ele>
        <time>2021-01-24T11:02:20Z</time>
      </trkpt>
      <trkpt lat="37.23046" lon="-8.74837">
        <ele>169.33</ele>
        <time>2021-01-24T11:02:21Z</time>
      </trkpt>
      <trkpt lat="37.23052" lon="-8.74803">
        <ele>165.96</ele>
        <time>2021-01-24T11:02:26Z</time>
      </trkpt>
      <trkpt lat="37.23053" lon="-8.74775">
        <ele>163.08</ele>
        <time>2021-01-24T11:02:31Z</time>
      </trkpt>
      <trkpt lat="37.23052" lon="-8.74766">
        <ele>162.12</ele>
        <time>2021-01-24T11:02:33Z</time>
      </trkpt>
      <trkpt lat="37.23049" lon="-8.74739">
        <ele>159.72</ele>
        <time>2021-01-24T11:02:39Z</time>
      </trkpt>
      <trkpt lat="37.23046" lon="-8.74709">
        <ele>156.83</ele>
        <time>2021-01-24T11:02:45Z</time>
      </trkpt>
      <trkpt lat="37.23047" lon="-8.74703">
        <ele>156.35</ele>
        <time>2021-01-24T11:02:46Z</time>
      </trkpt>
      <trkpt lat="37.23051" lon="-8.74686">
        <ele>155.39</ele>
        <time>2021-01-24T11:02:49Z</time>
      </trkpt>
      <trkpt lat="37.23052" lon="-8.74667">
        <ele>154.43</ele>
        <time>2021-01-24T11:02:52Z</time>
      </trkpt>
      <trkpt lat="37.23053" lon="-8.74661">
        <ele>154.43</ele>
        <time>2021-01-24T11:02:53Z</time>
      </trkpt>
      <trkpt lat="37.23054" lon="-8.74656">
        <ele>153.47</ele>
        <time>2021-01-24T11:02:54Z</time>
      </trkpt>
      <trkpt lat="37.23056" lon="-8.74651">
        <ele>153.95</ele>
        <time>2021-01-24T11:02:55Z</time>
      </trkpt>
      <trkpt lat="37.23057" lon="-8.74648">
        <ele>153.47</ele>
        <time>2021-01-24T11:02:56Z</time>
      </trkpt>
      <trkpt lat="37.23058" lon="-8.74644">
        <ele>153.47</ele>
        <time>2021-01-24T11:02:57Z</time>
      </trkpt>
      <trkpt lat="37.23063" lon="-8.74629">
        <ele>153.47</ele>
        <time>2021-01-24T11:03:03Z</time>
      </trkpt>
      <trkpt lat="37.23069" lon="-8.74606">
        <ele>152.51</ele>
        <time>2021-01-24T11:03:09Z</time>
      </trkpt>
      <trkpt lat="37.2307" lon="-8.74579">
        <ele>152.99</ele>
        <time>2021-01-24T11:03:15Z</time>
      </trkpt>
      <trkpt lat="37.2307" lon="-8.74574">
        <ele>152.03</ele>
        <time>2021-01-24T11:03:16Z</time>
      </trkpt>
      <trkpt lat="37.23068" lon="-8.74568">
        <ele>151.54</ele>
        <time>2021-01-24T11:03:17Z</time>
      </trkpt>
      <trkpt lat="37.23067" lon="-8.74563">
        <ele>151.54</ele>
        <time>2021-01-24T11:03:18Z</time>
      </trkpt>
      <trkpt lat="37.23066" lon="-8.74557">
        <ele>151.54</ele>
        <time>2021-01-24T11:03:19Z</time>
      </trkpt>
      <trkpt lat="37.23065" lon="-8.74552">
        <ele>150.58</ele>
        <time>2021-01-24T11:03:20Z</time>
      </trkpt>
      <trkpt lat="37.23065" lon="-8.74546">
        <ele>150.1</ele>
        <time>2021-01-24T11:03:21Z</time>
      </trkpt>
      <trkpt lat="37.23064" lon="-8.74534">
        <ele>149.14</ele>
        <time>2021-01-24T11:03:23Z</time>
      </trkpt>
      <trkpt lat="37.23065" lon="-8.74527">
        <ele>149.14</ele>
        <time>2021-01-24T11:03:24Z</time>
      </trkpt>
      <trkpt lat="37.23069" lon="-8.74494">
        <ele>146.26</ele>
        <time>2021-01-24T11:03:29Z</time>
      </trkpt>
      <trkpt lat="37.23068" lon="-8.74489">
        <ele>145.78</ele>
        <time>2021-01-24T11:03:30Z</time>
      </trkpt>
      <trkpt lat="37.23067" lon="-8.74485">
        <ele>145.78</ele>
        <time>2021-01-24T11:03:31Z</time>
      </trkpt>
      <trkpt lat="37.23056" lon="-8.74455">
        <ele>142.41</ele>
        <time>2021-01-24T11:03:38Z</time>
      </trkpt>
      <trkpt lat="37.23055" lon="-8.74428">
        <ele>139.05</ele>
        <time>2021-01-24T11:03:43Z</time>
      </trkpt>
      <trkpt lat="37.23056" lon="-8.74417">
        <ele>137.61</ele>
        <time>2021-01-24T11:03:45Z</time>
      </trkpt>
      <trkpt lat="37.23057" lon="-8.74412">
        <ele>137.13</ele>
        <time>2021-01-24T11:03:46Z</time>
      </trkpt>
      <trkpt lat="37.23059" lon="-8.74407">
        <ele>136.16</ele>
        <time>2021-01-24T11:03:47Z</time>
      </trkpt>
      <trkpt lat="37.23062" lon="-8.74402">
        <ele>136.16</ele>
        <time>2021-01-24T11:03:48Z</time>
      </trkpt>
      <trkpt lat="37.23064" lon="-8.74398">
        <ele>135.68</ele>
        <time>2021-01-24T11:03:49Z</time>
      </trkpt>
      <trkpt lat="37.23066" lon="-8.74394">
        <ele>135.2</ele>
        <time>2021-01-24T11:03:50Z</time>
      </trkpt>
      <trkpt lat="37.23073" lon="-8.74374">
        <ele>133.76</ele>
        <time>2021-01-24T11:03:56Z</time>
      </trkpt>
      <trkpt lat="37.23077" lon="-8.74361">
        <ele>133.28</ele>
        <time>2021-01-24T11:04:02Z</time>
      </trkpt>
      <trkpt lat="37.23081" lon="-8.74339">
        <ele>133.28</ele>
        <time>2021-01-24T11:04:09Z</time>
      </trkpt>
      <trkpt lat="37.23082" lon="-8.74311">
        <ele>133.76</ele>
        <time>2021-01-24T11:04:17Z</time>
      </trkpt>
      <trkpt lat="37.23074" lon="-8.74298">
        <ele>133.76</ele>
        <time>2021-01-24T11:04:22Z</time>
      </trkpt>
      <trkpt lat="37.23057" lon="-8.74283">
        <ele>136.16</ele>
        <time>2021-01-24T11:04:31Z</time>
      </trkpt>
      <trkpt lat="37.2304" lon="-8.74267">
        <ele>134.72</ele>
        <time>2021-01-24T11:04:37Z</time>
      </trkpt>
      <trkpt lat="37.2302" lon="-8.74247">
        <ele>134.24</ele>
        <time>2021-01-24T11:04:44Z</time>
      </trkpt>
      <trkpt lat="37.23008" lon="-8.74239">
        <ele>134.24</ele>
        <time>2021-01-24T11:04:49Z</time>
      </trkpt>
      <trkpt lat="37.2299" lon="-8.7422">
        <ele>134.24</ele>
        <time>2021-01-24T11:04:57Z</time>
      </trkpt>
      <trkpt lat="37.22979" lon="-8.74205">
        <ele>134.24</ele>
        <time>2021-01-24T11:05:03Z</time>
      </trkpt>
      <trkpt lat="37.22969" lon="-8.74188">
        <ele>133.76</ele>
        <time>2021-01-24T11:05:09Z</time>
      </trkpt>
      <trkpt lat="37.2295" lon="-8.74186">
        <ele>133.28</ele>
        <time>2021-01-24T11:05:14Z</time>
      </trkpt>
      <trkpt lat="37.22917" lon="-8.74191">
        <ele>134.72</ele>
        <time>2021-01-24T11:05:25Z</time>
      </trkpt>
      <trkpt lat="37.22899" lon="-8.74188">
        <ele>133.28</ele>
        <time>2021-01-24T11:05:29Z</time>
      </trkpt>
      <trkpt lat="37.22884" lon="-8.74183">
        <ele>132.32</ele>
        <time>2021-01-24T11:05:32Z</time>
      </trkpt>
      <trkpt lat="37.22875" lon="-8.74179">
        <ele>132.32</ele>
        <time>2021-01-24T11:05:34Z</time>
      </trkpt>
      <trkpt lat="37.22871" lon="-8.74176">
        <ele>132.32</ele>
        <time>2021-01-24T11:05:35Z</time>
      </trkpt>
      <trkpt lat="37.22855" lon="-8.74162">
        <ele>131.84</ele>
        <time>2021-01-24T11:05:39Z</time>
      </trkpt>
      <trkpt lat="37.22834" lon="-8.74151">
        <ele>131.36</ele>
        <time>2021-01-24T11:05:45Z</time>
      </trkpt>
      <trkpt lat="37.22812" lon="-8.74142">
        <ele>128.95</ele>
        <time>2021-01-24T11:05:50Z</time>
      </trkpt>
      <trkpt lat="37.22809" lon="-8.74139">
        <ele>128.95</ele>
        <time>2021-01-24T11:05:51Z</time>
      </trkpt>
      <trkpt lat="37.22806" lon="-8.74135">
        <ele>128.95</ele>
        <time>2021-01-24T11:05:52Z</time>
      </trkpt>
      <trkpt lat="37.22803" lon="-8.74132">
        <ele>128.47</ele>
        <time>2021-01-24T11:05:53Z</time>
      </trkpt>
      <trkpt lat="37.228" lon="-8.7413">
        <ele>128.47</ele>
        <time>2021-01-24T11:05:54Z</time>
      </trkpt>
      <trkpt lat="37.2279" lon="-8.74124">
        <ele>128.47</ele>
        <time>2021-01-24T11:05:57Z</time>
      </trkpt>
      <trkpt lat="37.22759" lon="-8.74115">
        <ele>127.99</ele>
        <time>2021-01-24T11:06:05Z</time>
      </trkpt>
      <trkpt lat="37.22726" lon="-8.74099">
        <ele>127.03</ele>
        <time>2021-01-24T11:06:13Z</time>
      </trkpt>
      <trkpt lat="37.22704" lon="-8.74092">
        <ele>126.55</ele>
        <time>2021-01-24T11:06:18Z</time>
      </trkpt>
      <trkpt lat="37.227" lon="-8.74089">
        <ele>126.55</ele>
        <time>2021-01-24T11:06:19Z</time>
      </trkpt>
      <trkpt lat="37.22665" lon="-8.74064">
        <ele>125.59</ele>
        <time>2021-01-24T11:06:29Z</time>
      </trkpt>
      <trkpt lat="37.22642" lon="-8.74052">
        <ele>125.11</ele>
        <time>2021-01-24T11:06:36Z</time>
      </trkpt>
      <trkpt lat="37.22638" lon="-8.74053">
        <ele>124.63</ele>
        <time>2021-01-24T11:06:37Z</time>
      </trkpt>
      <trkpt lat="37.22633" lon="-8.74055">
        <ele>124.15</ele>
        <time>2021-01-24T11:06:38Z</time>
      </trkpt>
      <trkpt lat="37.22628" lon="-8.74058">
        <ele>123.19</ele>
        <time>2021-01-24T11:06:39Z</time>
      </trkpt>
      <trkpt lat="37.22623" lon="-8.7406">
        <ele>122.71</ele>
        <time>2021-01-24T11:06:40Z</time>
      </trkpt>
      <trkpt lat="37.22619" lon="-8.74062">
        <ele>122.22</ele>
        <time>2021-01-24T11:06:41Z</time>
      </trkpt>
      <trkpt lat="37.22614" lon="-8.74064">
        <ele>121.26</ele>
        <time>2021-01-24T11:06:42Z</time>
      </trkpt>
      <trkpt lat="37.22608" lon="-8.74064">
        <ele>121.26</ele>
        <time>2021-01-24T11:06:43Z</time>
      </trkpt>
      <trkpt lat="37.22603" lon="-8.74062">
        <ele>120.78</ele>
        <time>2021-01-24T11:06:44Z</time>
      </trkpt>
      <trkpt lat="37.22599" lon="-8.74058">
        <ele>120.78</ele>
        <time>2021-01-24T11:06:45Z</time>
      </trkpt>
      <trkpt lat="37.22595" lon="-8.74053">
        <ele>120.3</ele>
        <time>2021-01-24T11:06:46Z</time>
      </trkpt>
      <trkpt lat="37.22591" lon="-8.74047">
        <ele>120.3</ele>
        <time>2021-01-24T11:06:47Z</time>
      </trkpt>
      <trkpt lat="37.22589" lon="-8.74041">
        <ele>120.3</ele>
        <time>2021-01-24T11:06:48Z</time>
      </trkpt>
      <trkpt lat="37.22586" lon="-8.74034">
        <ele>119.34</ele>
        <time>2021-01-24T11:06:49Z</time>
      </trkpt>
      <trkpt lat="37.22585" lon="-8.74027">
        <ele>119.34</ele>
        <time>2021-01-24T11:06:50Z</time>
      </trkpt>
      <trkpt lat="37.22585" lon="-8.7402">
        <ele>119.34</ele>
        <time>2021-01-24T11:06:51Z</time>
      </trkpt>
      <trkpt lat="37.22583" lon="-8.73998">
        <ele>118.86</ele>
        <time>2021-01-24T11:06:54Z</time>
      </trkpt>
      <trkpt lat="37.22581" lon="-8.73993">
        <ele>118.86</ele>
        <time>2021-01-24T11:06:55Z</time>
      </trkpt>
      <trkpt lat="37.22578" lon="-8.73987">
        <ele>118.86</ele>
        <time>2021-01-24T11:06:56Z</time>
      </trkpt>
      <trkpt lat="37.22575" lon="-8.73983">
        <ele>118.86</ele>
        <time>2021-01-24T11:06:57Z</time>
      </trkpt>
      <trkpt lat="37.22572" lon="-8.7398">
        <ele>118.86</ele>
        <time>2021-01-24T11:06:58Z</time>
      </trkpt>
      <trkpt lat="37.22569" lon="-8.73977">
        <ele>118.86</ele>
        <time>2021-01-24T11:06:59Z</time>
      </trkpt>
      <trkpt lat="37.22549" lon="-8.73949">
        <ele>119.34</ele>
        <time>2021-01-24T11:07:07Z</time>
      </trkpt>
      <trkpt lat="37.22544" lon="-8.73915">
        <ele>119.34</ele>
        <time>2021-01-24T11:07:13Z</time>
      </trkpt>
      <trkpt lat="37.22548" lon="-8.73859">
        <ele>117.42</ele>
        <time>2021-01-24T11:07:22Z</time>
      </trkpt>
      <trkpt lat="37.2255" lon="-8.73838">
        <ele>117.42</ele>
        <time>2021-01-24T11:07:26Z</time>
      </trkpt>
      <trkpt lat="37.22552" lon="-8.73827">
        <ele>117.42</ele>
        <time>2021-01-24T11:07:28Z</time>
      </trkpt>
      <trkpt lat="37.22554" lon="-8.73822">
        <ele>117.42</ele>
        <time>2021-01-24T11:07:29Z</time>
      </trkpt>
      <trkpt lat="37.22556" lon="-8.73818">
        <ele>117.42</ele>
        <time>2021-01-24T11:07:30Z</time>
      </trkpt>
      <trkpt lat="37.22564" lon="-8.73801">
        <ele>118.86</ele>
        <time>2021-01-24T11:07:34Z</time>
      </trkpt>
      <trkpt lat="37.22572" lon="-8.73783">
        <ele>118.86</ele>
        <time>2021-01-24T11:07:38Z</time>
      </trkpt>
      <trkpt lat="37.22579" lon="-8.73757">
        <ele>118.86</ele>
        <time>2021-01-24T11:07:43Z</time>
      </trkpt>
      <trkpt lat="37.22581" lon="-8.73752">
        <ele>118.86</ele>
        <time>2021-01-24T11:07:44Z</time>
      </trkpt>
      <trkpt lat="37.22585" lon="-8.73743">
        <ele>118.86</ele>
        <time>2021-01-24T11:07:46Z</time>
      </trkpt>
      <trkpt lat="37.22595" lon="-8.73709">
        <ele>118.86</ele>
        <time>2021-01-24T11:07:53Z</time>
      </trkpt>
      <trkpt lat="37.22604" lon="-8.73695">
        <ele>117.42</ele>
        <time>2021-01-24T11:07:56Z</time>
      </trkpt>
      <trkpt lat="37.22608" lon="-8.7369">
        <ele>116.94</ele>
        <time>2021-01-24T11:07:57Z</time>
      </trkpt>
      <trkpt lat="37.22612" lon="-8.73685">
        <ele>116.46</ele>
        <time>2021-01-24T11:07:58Z</time>
      </trkpt>
      <trkpt lat="37.22627" lon="-8.73671">
        <ele>115.98</ele>
        <time>2021-01-24T11:08:01Z</time>
      </trkpt>
      <trkpt lat="37.22631" lon="-8.73666">
        <ele>115.5</ele>
        <time>2021-01-24T11:08:02Z</time>
      </trkpt>
      <trkpt lat="37.22635" lon="-8.7366">
        <ele>115.5</ele>
        <time>2021-01-24T11:08:03Z</time>
      </trkpt>
      <trkpt lat="37.22638" lon="-8.73653">
        <ele>114.53</ele>
        <time>2021-01-24T11:08:04Z</time>
      </trkpt>
      <trkpt lat="37.2264" lon="-8.73645">
        <ele>114.05</ele>
        <time>2021-01-24T11:08:05Z</time>
      </trkpt>
      <trkpt lat="37.22642" lon="-8.73637">
        <ele>113.57</ele>
        <time>2021-01-24T11:08:06Z</time>
      </trkpt>
      <trkpt lat="37.22643" lon="-8.73628">
        <ele>113.09</ele>
        <time>2021-01-24T11:08:07Z</time>
      </trkpt>
      <trkpt lat="37.22644" lon="-8.73619">
        <ele>112.61</ele>
        <time>2021-01-24T11:08:08Z</time>
      </trkpt>
      <trkpt lat="37.22644" lon="-8.7361">
        <ele>112.61</ele>
        <time>2021-01-24T11:08:09Z</time>
      </trkpt>
      <trkpt lat="37.22643" lon="-8.73602">
        <ele>112.61</ele>
        <time>2021-01-24T11:08:10Z</time>
      </trkpt>
      <trkpt lat="37.22633" lon="-8.73538">
        <ele>111.65</ele>
        <time>2021-01-24T11:08:18Z</time>
      </trkpt>
      <trkpt lat="37.22614" lon="-8.73478">
        <ele>110.21</ele>
        <time>2021-01-24T11:08:26Z</time>
      </trkpt>
      <trkpt lat="37.22613" lon="-8.73471">
        <ele>110.21</ele>
        <time>2021-01-24T11:08:27Z</time>
      </trkpt>
      <trkpt lat="37.22613" lon="-8.73464">
        <ele>109.73</ele>
        <time>2021-01-24T11:08:28Z</time>
      </trkpt>
      <trkpt lat="37.22613" lon="-8.73458">
        <ele>109.73</ele>
        <time>2021-01-24T11:08:29Z</time>
      </trkpt>
      <trkpt lat="37.22612" lon="-8.73452">
        <ele>109.73</ele>
        <time>2021-01-24T11:08:30Z</time>
      </trkpt>
      <trkpt lat="37.22611" lon="-8.73446">
        <ele>109.73</ele>
        <time>2021-01-24T11:08:31Z</time>
      </trkpt>
      <trkpt lat="37.22609" lon="-8.73441">
        <ele>109.73</ele>
        <time>2021-01-24T11:08:32Z</time>
      </trkpt>
      <trkpt lat="37.22608" lon="-8.73436">
        <ele>109.73</ele>
        <time>2021-01-24T11:08:33Z</time>
      </trkpt>
      <trkpt lat="37.22604" lon="-8.7342">
        <ele>109.73</ele>
        <time>2021-01-24T11:08:36Z</time>
      </trkpt>
      <trkpt lat="37.22603" lon="-8.73414">
        <ele>109.73</ele>
        <time>2021-01-24T11:08:37Z</time>
      </trkpt>
      <trkpt lat="37.22603" lon="-8.73408">
        <ele>109.73</ele>
        <time>2021-01-24T11:08:38Z</time>
      </trkpt>
      <trkpt lat="37.22603" lon="-8.73383">
        <ele>109.73</ele>
        <time>2021-01-24T11:08:42Z</time>
      </trkpt>
      <trkpt lat="37.22607" lon="-8.73335">
        <ele>109.25</ele>
        <time>2021-01-24T11:08:49Z</time>
      </trkpt>
      <trkpt lat="37.22606" lon="-8.73314">
        <ele>108.77</ele>
        <time>2021-01-24T11:08:52Z</time>
      </trkpt>
      <trkpt lat="37.22608" lon="-8.73299">
        <ele>108.77</ele>
        <time>2021-01-24T11:08:54Z</time>
      </trkpt>
      <trkpt lat="37.22609" lon="-8.73292">
        <ele>108.29</ele>
        <time>2021-01-24T11:08:55Z</time>
      </trkpt>
      <trkpt lat="37.22631" lon="-8.73234">
        <ele>107.32</ele>
        <time>2021-01-24T11:09:03Z</time>
      </trkpt>
      <trkpt lat="37.2265" lon="-8.73191">
        <ele>106.84</ele>
        <time>2021-01-24T11:09:10Z</time>
      </trkpt>
      <trkpt lat="37.22651" lon="-8.73185">
        <ele>106.84</ele>
        <time>2021-01-24T11:09:11Z</time>
      </trkpt>
      <trkpt lat="37.22652" lon="-8.73178">
        <ele>106.84</ele>
        <time>2021-01-24T11:09:12Z</time>
      </trkpt>
      <trkpt lat="37.22658" lon="-8.73126">
        <ele>106.84</ele>
        <time>2021-01-24T11:09:20Z</time>
      </trkpt>
      <trkpt lat="37.22676" lon="-8.73064">
        <ele>104.92</ele>
        <time>2021-01-24T11:09:29Z</time>
      </trkpt>
      <trkpt lat="37.22677" lon="-8.73057">
        <ele>104.44</ele>
        <time>2021-01-24T11:09:30Z</time>
      </trkpt>
      <trkpt lat="37.22677" lon="-8.73051">
        <ele>104.44</ele>
        <time>2021-01-24T11:09:31Z</time>
      </trkpt>
      <trkpt lat="37.22677" lon="-8.73038">
        <ele>104.44</ele>
        <time>2021-01-24T11:09:33Z</time>
      </trkpt>
      <trkpt lat="37.22674" lon="-8.7301">
        <ele>105.88</ele>
        <time>2021-01-24T11:09:38Z</time>
      </trkpt>
      <trkpt lat="37.22673" lon="-8.72977">
        <ele>106.36</ele>
        <time>2021-01-24T11:09:44Z</time>
      </trkpt>
      <trkpt lat="37.22673" lon="-8.72971">
        <ele>106.84</ele>
        <time>2021-01-24T11:09:45Z</time>
      </trkpt>
      <trkpt lat="37.22669" lon="-8.72936">
        <ele>106.84</ele>
        <time>2021-01-24T11:09:51Z</time>
      </trkpt>
      <trkpt lat="37.22659" lon="-8.72885">
        <ele>106.36</ele>
        <time>2021-01-24T11:10:00Z</time>
      </trkpt>
      <trkpt lat="37.22645" lon="-8.7283">
        <ele>104.92</ele>
        <time>2021-01-24T11:10:09Z</time>
      </trkpt>
      <trkpt lat="37.22632" lon="-8.72785">
        <ele>104.44</ele>
        <time>2021-01-24T11:10:16Z</time>
      </trkpt>
      <trkpt lat="37.22629" lon="-8.72767">
        <ele>104.44</ele>
        <time>2021-01-24T11:10:19Z</time>
      </trkpt>
      <trkpt lat="37.22629" lon="-8.72761">
        <ele>103.96</ele>
        <time>2021-01-24T11:10:20Z</time>
      </trkpt>
      <trkpt lat="37.22629" lon="-8.72724">
        <ele>102.52</ele>
        <time>2021-01-24T11:10:26Z</time>
      </trkpt>
      <trkpt lat="37.22626" lon="-8.72691">
        <ele>102.04</ele>
        <time>2021-01-24T11:10:31Z</time>
      </trkpt>
      <trkpt lat="37.22625" lon="-8.72685">
        <ele>102.04</ele>
        <time>2021-01-24T11:10:32Z</time>
      </trkpt>
      <trkpt lat="37.22622" lon="-8.72679">
        <ele>101.56</ele>
        <time>2021-01-24T11:10:33Z</time>
      </trkpt>
      <trkpt lat="37.2262" lon="-8.72674">
        <ele>101.56</ele>
        <time>2021-01-24T11:10:34Z</time>
      </trkpt>
      <trkpt lat="37.22617" lon="-8.7267">
        <ele>101.56</ele>
        <time>2021-01-24T11:10:35Z</time>
      </trkpt>
      <trkpt lat="37.22614" lon="-8.72665">
        <ele>101.56</ele>
        <time>2021-01-24T11:10:36Z</time>
      </trkpt>
      <trkpt lat="37.22612" lon="-8.7266">
        <ele>101.56</ele>
        <time>2021-01-24T11:10:37Z</time>
      </trkpt>
      <trkpt lat="37.22588" lon="-8.72602">
        <ele>100.6</ele>
        <time>2021-01-24T11:10:48Z</time>
      </trkpt>
      <trkpt lat="37.22583" lon="-8.72592">
        <ele>100.11</ele>
        <time>2021-01-24T11:10:50Z</time>
      </trkpt>
      <trkpt lat="37.22579" lon="-8.72587">
        <ele>99.63</ele>
        <time>2021-01-24T11:10:51Z</time>
      </trkpt>
      <trkpt lat="37.22575" lon="-8.72583">
        <ele>99.63</ele>
        <time>2021-01-24T11:10:52Z</time>
      </trkpt>
      <trkpt lat="37.22572" lon="-8.72579">
        <ele>99.15</ele>
        <time>2021-01-24T11:10:53Z</time>
      </trkpt>
      <trkpt lat="37.22567" lon="-8.72576">
        <ele>99.15</ele>
        <time>2021-01-24T11:10:54Z</time>
      </trkpt>
      <trkpt lat="37.22563" lon="-8.72574">
        <ele>99.15</ele>
        <time>2021-01-24T11:10:55Z</time>
      </trkpt>
      <trkpt lat="37.22559" lon="-8.72572">
        <ele>99.15</ele>
        <time>2021-01-24T11:10:56Z</time>
      </trkpt>
      <trkpt lat="37.22556" lon="-8.72572">
        <ele>99.15</ele>
        <time>2021-01-24T11:10:57Z</time>
      </trkpt>
      <trkpt lat="37.22552" lon="-8.72572">
        <ele>99.15</ele>
        <time>2021-01-24T11:10:58Z</time>
      </trkpt>
      <trkpt lat="37.22549" lon="-8.72575">
        <ele>99.15</ele>
        <time>2021-01-24T11:10:59Z</time>
      </trkpt>
      <trkpt lat="37.22548" lon="-8.72579">
        <ele>98.67</ele>
        <time>2021-01-24T11:11:00Z</time>
      </trkpt>
      <trkpt lat="37.22547" lon="-8.72583">
        <ele>98.67</ele>
        <time>2021-01-24T11:11:01Z</time>
      </trkpt>
      <trkpt lat="37.22548" lon="-8.72588">
        <ele>98.67</ele>
        <time>2021-01-24T11:11:02Z</time>
      </trkpt>
      <trkpt lat="37.22549" lon="-8.72593">
        <ele>98.67</ele>
        <time>2021-01-24T11:11:03Z</time>
      </trkpt>
      <trkpt lat="37.2255" lon="-8.72598">
        <ele>98.67</ele>
        <time>2021-01-24T11:11:04Z</time>
      </trkpt>
      <trkpt lat="37.22552" lon="-8.72634">
        <ele>100.11</ele>
        <time>2021-01-24T11:11:12Z</time>
      </trkpt>
      <trkpt lat="37.22548" lon="-8.72639">
        <ele>100.6</ele>
        <time>2021-01-24T11:11:17Z</time>
      </trkpt>
      <trkpt lat="37.22547" lon="-8.72638">
        <ele>100.6</ele>
        <time>2021-01-24T11:11:27Z</time>
      </trkpt>
      <trkpt lat="37.22547" lon="-8.72638">
        <ele>100.6</ele>
        <time>2021-01-24T11:11:44Z</time>
      </trkpt>
      <trkpt lat="37.22547" lon="-8.72637">
        <ele>100.6</ele>
        <time>2021-01-24T11:12:11Z</time>
      </trkpt>
      <trkpt lat="37.22546" lon="-8.72636">
        <ele>100.11</ele>
        <time>2021-01-24T11:12:36Z</time>
      </trkpt>
      <trkpt lat="37.22548" lon="-8.72635">
        <ele>100.11</ele>
        <time>2021-01-24T11:12:51Z</time>
      </trkpt>
      <trkpt lat="37.22548" lon="-8.72636">
        <ele>100.11</ele>
        <time>2021-01-24T11:13:10Z</time>
      </trkpt>
      <trkpt lat="37.22547" lon="-8.72637">
        <ele>100.6</ele>
        <time>2021-01-24T11:13:18Z</time>
      </trkpt>
      <trkpt lat="37.22546" lon="-8.72637">
        <ele>100.6</ele>
        <time>2021-01-24T11:13:21Z</time>
      </trkpt>
      <trkpt lat="37.22545" lon="-8.72637">
        <ele>100.6</ele>
        <time>2021-01-24T11:13:22Z</time>
      </trkpt>
      <trkpt lat="37.22529" lon="-8.72629">
        <ele>100.6</ele>
        <time>2021-01-24T11:13:29Z</time>
      </trkpt>
      <trkpt lat="37.22521" lon="-8.72618">
        <ele>99.15</ele>
        <time>2021-01-24T11:13:32Z</time>
      </trkpt>
      <trkpt lat="37.22506" lon="-8.72594">
        <ele>97.23</ele>
        <time>2021-01-24T11:13:37Z</time>
      </trkpt>
      <trkpt lat="37.22504" lon="-8.72588">
        <ele>97.23</ele>
        <time>2021-01-24T11:13:38Z</time>
      </trkpt>
      <trkpt lat="37.22498" lon="-8.72568">
        <ele>95.79</ele>
        <time>2021-01-24T11:13:41Z</time>
      </trkpt>
      <trkpt lat="37.22496" lon="-8.72562">
        <ele>95.79</ele>
        <time>2021-01-24T11:13:42Z</time>
      </trkpt>
      <trkpt lat="37.22493" lon="-8.72556">
        <ele>95.79</ele>
        <time>2021-01-24T11:13:43Z</time>
      </trkpt>
      <trkpt lat="37.22489" lon="-8.7255">
        <ele>95.31</ele>
        <time>2021-01-24T11:13:44Z</time>
      </trkpt>
      <trkpt lat="37.22485" lon="-8.72545">
        <ele>95.31</ele>
        <time>2021-01-24T11:13:45Z</time>
      </trkpt>
      <trkpt lat="37.22481" lon="-8.72541">
        <ele>95.31</ele>
        <time>2021-01-24T11:13:46Z</time>
      </trkpt>
      <trkpt lat="37.22473" lon="-8.72531">
        <ele>94.83</ele>
        <time>2021-01-24T11:13:48Z</time>
      </trkpt>
      <trkpt lat="37.2247" lon="-8.72525">
        <ele>93.87</ele>
        <time>2021-01-24T11:13:49Z</time>
      </trkpt>
      <trkpt lat="37.22457" lon="-8.72502">
        <ele>93.39</ele>
        <time>2021-01-24T11:13:53Z</time>
      </trkpt>
      <trkpt lat="37.22437" lon="-8.72471">
        <ele>92.9</ele>
        <time>2021-01-24T11:13:59Z</time>
      </trkpt>
      <trkpt lat="37.22433" lon="-8.72468">
        <ele>92.9</ele>
        <time>2021-01-24T11:14:00Z</time>
      </trkpt>
      <trkpt lat="37.22428" lon="-8.72466">
        <ele>92.42</ele>
        <time>2021-01-24T11:14:01Z</time>
      </trkpt>
      <trkpt lat="37.22416" lon="-8.72462">
        <ele>91.94</ele>
        <time>2021-01-24T11:14:03Z</time>
      </trkpt>
      <trkpt lat="37.22396" lon="-8.72454">
        <ele>91.94</ele>
        <time>2021-01-24T11:14:07Z</time>
      </trkpt>
      <trkpt lat="37.22392" lon="-8.72452">
        <ele>91.94</ele>
        <time>2021-01-24T11:14:08Z</time>
      </trkpt>
      <trkpt lat="37.22389" lon="-8.72449">
        <ele>91.46</ele>
        <time>2021-01-24T11:14:09Z</time>
      </trkpt>
      <trkpt lat="37.22386" lon="-8.72446">
        <ele>91.46</ele>
        <time>2021-01-24T11:14:10Z</time>
      </trkpt>
      <trkpt lat="37.22384" lon="-8.72443">
        <ele>91.46</ele>
        <time>2021-01-24T11:14:11Z</time>
      </trkpt>
      <trkpt lat="37.22359" lon="-8.72417">
        <ele>91.46</ele>
        <time>2021-01-24T11:14:20Z</time>
      </trkpt>
      <trkpt lat="37.22344" lon="-8.72395">
        <ele>91.46</ele>
        <time>2021-01-24T11:14:27Z</time>
      </trkpt>
      <trkpt lat="37.22335" lon="-8.72371">
        <ele>91.46</ele>
        <time>2021-01-24T11:14:35Z</time>
      </trkpt>
      <trkpt lat="37.22326" lon="-8.72353">
        <ele>91.46</ele>
        <time>2021-01-24T11:14:41Z</time>
      </trkpt>
      <trkpt lat="37.22323" lon="-8.72328">
        <ele>91.46</ele>
        <time>2021-01-24T11:14:47Z</time>
      </trkpt>
      <trkpt lat="37.22321" lon="-8.72299">
        <ele>90.98</ele>
        <time>2021-01-24T11:14:55Z</time>
      </trkpt>
      <trkpt lat="37.22316" lon="-8.72266">
        <ele>90.98</ele>
        <time>2021-01-24T11:15:04Z</time>
      </trkpt>
      <trkpt lat="37.2231" lon="-8.72226">
        <ele>90.98</ele>
        <time>2021-01-24T11:15:14Z</time>
      </trkpt>
      <trkpt lat="37.22309" lon="-8.72204">
        <ele>90.98</ele>
        <time>2021-01-24T11:15:19Z</time>
      </trkpt>
      <trkpt lat="37.22313" lon="-8.72166">
        <ele>90.98</ele>
        <time>2021-01-24T11:15:28Z</time>
      </trkpt>
      <trkpt lat="37.22323" lon="-8.72122">
        <ele>90.98</ele>
        <time>2021-01-24T11:15:38Z</time>
      </trkpt>
      <trkpt lat="37.22329" lon="-8.72097">
        <ele>90.98</ele>
        <time>2021-01-24T11:15:45Z</time>
      </trkpt>
      <trkpt lat="37.22338" lon="-8.72077">
        <ele>90.98</ele>
        <time>2021-01-24T11:15:52Z</time>
      </trkpt>
      <trkpt lat="37.22341" lon="-8.72069">
        <ele>92.42</ele>
        <time>2021-01-24T11:15:55Z</time>
      </trkpt>
      <trkpt lat="37.22339" lon="-8.72053">
        <ele>92.42</ele>
        <time>2021-01-24T11:16:00Z</time>
      </trkpt>
      <trkpt lat="37.22325" lon="-8.72024">
        <ele>92.42</ele>
        <time>2021-01-24T11:16:09Z</time>
      </trkpt>
      <trkpt lat="37.22318" lon="-8.72005">
        <ele>92.42</ele>
        <time>2021-01-24T11:16:16Z</time>
      </trkpt>
      <trkpt lat="37.22307" lon="-8.71987">
        <ele>92.42</ele>
        <time>2021-01-24T11:16:23Z</time>
      </trkpt>
      <trkpt lat="37.22291" lon="-8.71961">
        <ele>92.42</ele>
        <time>2021-01-24T11:16:32Z</time>
      </trkpt>
      <trkpt lat="37.22268" lon="-8.71931">
        <ele>92.42</ele>
        <time>2021-01-24T11:16:42Z</time>
      </trkpt>
      <trkpt lat="37.22249" lon="-8.71898">
        <ele>92.42</ele>
        <time>2021-01-24T11:16:52Z</time>
      </trkpt>
      <trkpt lat="37.22237" lon="-8.71863">
        <ele>92.42</ele>
        <time>2021-01-24T11:17:01Z</time>
      </trkpt>
      <trkpt lat="37.22229" lon="-8.71829">
        <ele>92.42</ele>
        <time>2021-01-24T11:17:09Z</time>
      </trkpt>
      <trkpt lat="37.22234" lon="-8.71798">
        <ele>92.42</ele>
        <time>2021-01-24T11:17:16Z</time>
      </trkpt>
      <trkpt lat="37.22235" lon="-8.71762">
        <ele>92.42</ele>
        <time>2021-01-24T11:17:24Z</time>
      </trkpt>
      <trkpt lat="37.22241" lon="-8.71734">
        <ele>92.42</ele>
        <time>2021-01-24T11:17:31Z</time>
      </trkpt>
      <trkpt lat="37.22252" lon="-8.71701">
        <ele>92.9</ele>
        <time>2021-01-24T11:17:39Z</time>
      </trkpt>
      <trkpt lat="37.2227" lon="-8.71662">
        <ele>92.9</ele>
        <time>2021-01-24T11:17:50Z</time>
      </trkpt>
      <trkpt lat="37.22278" lon="-8.7164">
        <ele>92.9</ele>
        <time>2021-01-24T11:17:57Z</time>
      </trkpt>
      <trkpt lat="37.22287" lon="-8.71614">
        <ele>92.9</ele>
        <time>2021-01-24T11:18:04Z</time>
      </trkpt>
      <trkpt lat="37.22299" lon="-8.71577">
        <ele>92.9</ele>
        <time>2021-01-24T11:18:13Z</time>
      </trkpt>
      <trkpt lat="37.22311" lon="-8.71547">
        <ele>92.9</ele>
        <time>2021-01-24T11:18:20Z</time>
      </trkpt>
      <trkpt lat="37.22322" lon="-8.71508">
        <ele>92.9</ele>
        <time>2021-01-24T11:18:29Z</time>
      </trkpt>
      <trkpt lat="37.22328" lon="-8.71479">
        <ele>92.9</ele>
        <time>2021-01-24T11:18:36Z</time>
      </trkpt>
      <trkpt lat="37.22329" lon="-8.71443">
        <ele>92.9</ele>
        <time>2021-01-24T11:18:44Z</time>
      </trkpt>
      <trkpt lat="37.22324" lon="-8.71413">
        <ele>92.9</ele>
        <time>2021-01-24T11:18:52Z</time>
      </trkpt>
      <trkpt lat="37.22313" lon="-8.71406">
        <ele>92.9</ele>
        <time>2021-01-24T11:18:58Z</time>
      </trkpt>
      <trkpt lat="37.22291" lon="-8.71407">
        <ele>92.9</ele>
        <time>2021-01-24T11:19:07Z</time>
      </trkpt>
      <trkpt lat="37.22268" lon="-8.71406">
        <ele>92.9</ele>
        <time>2021-01-24T11:19:15Z</time>
      </trkpt>
      <trkpt lat="37.22241" lon="-8.7141">
        <ele>92.9</ele>
        <time>2021-01-24T11:19:23Z</time>
      </trkpt>
      <trkpt lat="37.22217" lon="-8.71422">
        <ele>92.9</ele>
        <time>2021-01-24T11:19:31Z</time>
      </trkpt>
      <trkpt lat="37.22195" lon="-8.71436">
        <ele>92.9</ele>
        <time>2021-01-24T11:19:39Z</time>
      </trkpt>
      <trkpt lat="37.22192" lon="-8.71435">
        <ele>92.9</ele>
        <time>2021-01-24T11:19:40Z</time>
      </trkpt>
      <trkpt lat="37.2219" lon="-8.71433">
        <ele>92.9</ele>
        <time>2021-01-24T11:19:41Z</time>
      </trkpt>
      <trkpt lat="37.2219" lon="-8.7143">
        <ele>92.9</ele>
        <time>2021-01-24T11:19:42Z</time>
      </trkpt>
      <trkpt lat="37.2219" lon="-8.71427">
        <ele>92.9</ele>
        <time>2021-01-24T11:19:43Z</time>
      </trkpt>
      <trkpt lat="37.22191" lon="-8.71423">
        <ele>92.9</ele>
        <time>2021-01-24T11:19:44Z</time>
      </trkpt>
      <trkpt lat="37.22205" lon="-8.71397">
        <ele>92.9</ele>
        <time>2021-01-24T11:19:53Z</time>
      </trkpt>
      <trkpt lat="37.22215" lon="-8.7139">
        <ele>92.9</ele>
        <time>2021-01-24T11:20:00Z</time>
      </trkpt>
      <trkpt lat="37.22217" lon="-8.71388">
        <ele>92.9</ele>
        <time>2021-01-24T11:20:06Z</time>
      </trkpt>
      <trkpt lat="37.2222" lon="-8.71384">
        <ele>91.46</ele>
        <time>2021-01-24T11:20:17Z</time>
      </trkpt>
      <trkpt lat="37.22221" lon="-8.71384">
        <ele>91.46</ele>
        <time>2021-01-24T11:20:24Z</time>
      </trkpt>
      <trkpt lat="37.22221" lon="-8.71382">
        <ele>91.46</ele>
        <time>2021-01-24T11:20:25Z</time>
      </trkpt>
      <trkpt lat="37.22221" lon="-8.71381">
        <ele>91.46</ele>
        <time>2021-01-24T11:20:26Z</time>
      </trkpt>
      <trkpt lat="37.22222" lon="-8.71379">
        <ele>91.46</ele>
        <time>2021-01-24T11:20:27Z</time>
      </trkpt>
      <trkpt lat="37.22223" lon="-8.71376">
        <ele>91.46</ele>
        <time>2021-01-24T11:20:28Z</time>
      </trkpt>
      <trkpt lat="37.22224" lon="-8.71374">
        <ele>91.46</ele>
        <time>2021-01-24T11:20:29Z</time>
      </trkpt>
      <trkpt lat="37.22225" lon="-8.71372">
        <ele>91.46</ele>
        <time>2021-01-24T11:20:30Z</time>
      </trkpt>
      <trkpt lat="37.22237" lon="-8.71359">
        <ele>91.46</ele>
        <time>2021-01-24T11:20:38Z</time>
      </trkpt>
      <trkpt lat="37.22253" lon="-8.71351">
        <ele>91.46</ele>
        <time>2021-01-24T11:20:46Z</time>
      </trkpt>
      <trkpt lat="37.22267" lon="-8.71343">
        <ele>91.46</ele>
        <time>2021-01-24T11:20:54Z</time>
      </trkpt>
      <trkpt lat="37.22278" lon="-8.71335">
        <ele>91.46</ele>
        <time>2021-01-24T11:21:00Z</time>
      </trkpt>
      <trkpt lat="37.22278" lon="-8.71332">
        <ele>91.46</ele>
        <time>2021-01-24T11:21:01Z</time>
      </trkpt>
      <trkpt lat="37.22278" lon="-8.7133">
        <ele>91.46</ele>
        <time>2021-01-24T11:21:02Z</time>
      </trkpt>
      <trkpt lat="37.22278" lon="-8.71327">
        <ele>91.46</ele>
        <time>2021-01-24T11:21:03Z</time>
      </trkpt>
      <trkpt lat="37.22277" lon="-8.71324">
        <ele>91.46</ele>
        <time>2021-01-24T11:21:04Z</time>
      </trkpt>
      <trkpt lat="37.22269" lon="-8.71304">
        <ele>91.94</ele>
        <time>2021-01-24T11:21:11Z</time>
      </trkpt>
      <trkpt lat="37.22265" lon="-8.71301">
        <ele>92.9</ele>
        <time>2021-01-24T11:21:13Z</time>
      </trkpt>
      <trkpt lat="37.22249" lon="-8.71301">
        <ele>94.35</ele>
        <time>2021-01-24T11:21:20Z</time>
      </trkpt>
      <trkpt lat="37.22245" lon="-8.71303">
        <ele>95.31</ele>
        <time>2021-01-24T11:21:22Z</time>
      </trkpt>
      <trkpt lat="37.22232" lon="-8.71319">
        <ele>98.67</ele>
        <time>2021-01-24T11:21:30Z</time>
      </trkpt>
      <trkpt lat="37.22211" lon="-8.7133">
        <ele>101.08</ele>
        <time>2021-01-24T11:21:40Z</time>
      </trkpt>
      <trkpt lat="37.2219" lon="-8.71339">
        <ele>103.96</ele>
        <time>2021-01-24T11:21:50Z</time>
      </trkpt>
      <trkpt lat="37.22169" lon="-8.71349">
        <ele>107.32</ele>
        <time>2021-01-24T11:22:00Z</time>
      </trkpt>
      <trkpt lat="37.22147" lon="-8.71344">
        <ele>109.73</ele>
        <time>2021-01-24T11:22:10Z</time>
      </trkpt>
      <trkpt lat="37.22132" lon="-8.71346">
        <ele>112.61</ele>
        <time>2021-01-24T11:22:17Z</time>
      </trkpt>
      <trkpt lat="37.22117" lon="-8.71361">
        <ele>115.5</ele>
        <time>2021-01-24T11:22:26Z</time>
      </trkpt>
      <trkpt lat="37.22104" lon="-8.71377">
        <ele>117.42</ele>
        <time>2021-01-24T11:22:34Z</time>
      </trkpt>
      <trkpt lat="37.22086" lon="-8.71386">
        <ele>119.82</ele>
        <time>2021-01-24T11:22:43Z</time>
      </trkpt>
      <trkpt lat="37.22069" lon="-8.71396">
        <ele>122.22</ele>
        <time>2021-01-24T11:22:52Z</time>
      </trkpt>
      <trkpt lat="37.22063" lon="-8.71411">
        <ele>123.67</ele>
        <time>2021-01-24T11:22:58Z</time>
      </trkpt>
      <trkpt lat="37.22066" lon="-8.71434">
        <ele>126.07</ele>
        <time>2021-01-24T11:23:06Z</time>
      </trkpt>
      <trkpt lat="37.22066" lon="-8.71453">
        <ele>128.47</ele>
        <time>2021-01-24T11:23:13Z</time>
      </trkpt>
      <trkpt lat="37.22053" lon="-8.71462">
        <ele>130.88</ele>
        <time>2021-01-24T11:23:20Z</time>
      </trkpt>
      <trkpt lat="37.22033" lon="-8.7146">
        <ele>132.8</ele>
        <time>2021-01-24T11:23:29Z</time>
      </trkpt>
      <trkpt lat="37.22017" lon="-8.7147">
        <ele>135.2</ele>
        <time>2021-01-24T11:23:37Z</time>
      </trkpt>
      <trkpt lat="37.21996" lon="-8.7148">
        <ele>137.13</ele>
        <time>2021-01-24T11:23:47Z</time>
      </trkpt>
      <trkpt lat="37.21978" lon="-8.71473">
        <ele>139.53</ele>
        <time>2021-01-24T11:23:56Z</time>
      </trkpt>
      <trkpt lat="37.21962" lon="-8.71457">
        <ele>141.93</ele>
        <time>2021-01-24T11:24:05Z</time>
      </trkpt>
      <trkpt lat="37.21948" lon="-8.71448">
        <ele>142.89</ele>
        <time>2021-01-24T11:24:12Z</time>
      </trkpt>
      <trkpt lat="37.21926" lon="-8.71451">
        <ele>144.82</ele>
        <time>2021-01-24T11:24:22Z</time>
      </trkpt>
      <trkpt lat="37.21906" lon="-8.71443">
        <ele>147.22</ele>
        <time>2021-01-24T11:24:31Z</time>
      </trkpt>
      <trkpt lat="37.21885" lon="-8.7142">
        <ele>149.14</ele>
        <time>2021-01-24T11:24:43Z</time>
      </trkpt>
      <trkpt lat="37.2187" lon="-8.71406">
        <ele>151.06</ele>
        <time>2021-01-24T11:24:51Z</time>
      </trkpt>
      <trkpt lat="37.21854" lon="-8.7141">
        <ele>152.03</ele>
        <time>2021-01-24T11:24:58Z</time>
      </trkpt>
      <trkpt lat="37.21823" lon="-8.71417">
        <ele>152.51</ele>
        <time>2021-01-24T11:25:10Z</time>
      </trkpt>
      <trkpt lat="37.21799" lon="-8.71426">
        <ele>151.06</ele>
        <time>2021-01-24T11:25:17Z</time>
      </trkpt>
      <trkpt lat="37.21781" lon="-8.71437">
        <ele>150.1</ele>
        <time>2021-01-24T11:25:22Z</time>
      </trkpt>
      <trkpt lat="37.21767" lon="-8.71465">
        <ele>149.62</ele>
        <time>2021-01-24T11:25:29Z</time>
      </trkpt>
      <trkpt lat="37.21771" lon="-8.71493">
        <ele>149.62</ele>
        <time>2021-01-24T11:25:36Z</time>
      </trkpt>
      <trkpt lat="37.21783" lon="-8.71508">
        <ele>151.06</ele>
        <time>2021-01-24T11:25:42Z</time>
      </trkpt>
      <trkpt lat="37.21799" lon="-8.71528">
        <ele>152.03</ele>
        <time>2021-01-24T11:25:50Z</time>
      </trkpt>
      <trkpt lat="37.21817" lon="-8.71565">
        <ele>152.51</ele>
        <time>2021-01-24T11:26:00Z</time>
      </trkpt>
      <trkpt lat="37.21827" lon="-8.71597">
        <ele>153.95</ele>
        <time>2021-01-24T11:26:09Z</time>
      </trkpt>
      <trkpt lat="37.21834" lon="-8.71636">
        <ele>155.39</ele>
        <time>2021-01-24T11:26:19Z</time>
      </trkpt>
      <trkpt lat="37.21842" lon="-8.71673">
        <ele>156.35</ele>
        <time>2021-01-24T11:26:29Z</time>
      </trkpt>
      <trkpt lat="37.21852" lon="-8.71696">
        <ele>156.83</ele>
        <time>2021-01-24T11:26:36Z</time>
      </trkpt>
      <trkpt lat="37.21874" lon="-8.71717">
        <ele>157.79</ele>
        <time>2021-01-24T11:26:45Z</time>
      </trkpt>
      <trkpt lat="37.21895" lon="-8.7172">
        <ele>161.16</ele>
        <time>2021-01-24T11:26:54Z</time>
      </trkpt>
      <trkpt lat="37.21913" lon="-8.71716">
        <ele>163.08</ele>
        <time>2021-01-24T11:27:02Z</time>
      </trkpt>
      <trkpt lat="37.21938" lon="-8.71715">
        <ele>165.96</ele>
        <time>2021-01-24T11:27:13Z</time>
      </trkpt>
      <trkpt lat="37.21957" lon="-8.71723">
        <ele>168.37</ele>
        <time>2021-01-24T11:27:22Z</time>
      </trkpt>
      <trkpt lat="37.21977" lon="-8.71737">
        <ele>170.29</ele>
        <time>2021-01-24T11:27:31Z</time>
      </trkpt>
      <trkpt lat="37.21996" lon="-8.71742">
        <ele>172.21</ele>
        <time>2021-01-24T11:27:39Z</time>
      </trkpt>
      <trkpt lat="37.22016" lon="-8.7175">
        <ele>175.1</ele>
        <time>2021-01-24T11:27:48Z</time>
      </trkpt>
      <trkpt lat="37.22033" lon="-8.71768">
        <ele>177.5</ele>
        <time>2021-01-24T11:27:58Z</time>
      </trkpt>
      <trkpt lat="37.22034" lon="-8.71794">
        <ele>179.42</ele>
        <time>2021-01-24T11:28:07Z</time>
      </trkpt>
      <trkpt lat="37.22027" lon="-8.71823">
        <ele>180.87</ele>
        <time>2021-01-24T11:28:17Z</time>
      </trkpt>
      <trkpt lat="37.22015" lon="-8.71854">
        <ele>182.31</ele>
        <time>2021-01-24T11:28:28Z</time>
      </trkpt>
      <trkpt lat="37.21994" lon="-8.71883">
        <ele>182.79</ele>
        <time>2021-01-24T11:28:38Z</time>
      </trkpt>
      <trkpt lat="37.21986" lon="-8.71895">
        <ele>182.79</ele>
        <time>2021-01-24T11:28:41Z</time>
      </trkpt>
      <trkpt lat="37.2198" lon="-8.71905">
        <ele>181.35</ele>
        <time>2021-01-24T11:28:43Z</time>
      </trkpt>
      <trkpt lat="37.21977" lon="-8.71935">
        <ele>179.9</ele>
        <time>2021-01-24T11:28:48Z</time>
      </trkpt>
      <trkpt lat="37.21978" lon="-8.7194">
        <ele>179.9</ele>
        <time>2021-01-24T11:28:49Z</time>
      </trkpt>
      <trkpt lat="37.21994" lon="-8.71979">
        <ele>179.9</ele>
        <time>2021-01-24T11:28:59Z</time>
      </trkpt>
      <trkpt lat="37.21997" lon="-8.71984">
        <ele>179.9</ele>
        <time>2021-01-24T11:29:00Z</time>
      </trkpt>
      <trkpt lat="37.22003" lon="-8.71999">
        <ele>178.94</ele>
        <time>2021-01-24T11:29:03Z</time>
      </trkpt>
      <trkpt lat="37.22016" lon="-8.72044">
        <ele>175.58</ele>
        <time>2021-01-24T11:29:09Z</time>
      </trkpt>
      <trkpt lat="37.22026" lon="-8.72071">
        <ele>173.17</ele>
        <time>2021-01-24T11:29:12Z</time>
      </trkpt>
      <trkpt lat="37.22053" lon="-8.72111">
        <ele>169.33</ele>
        <time>2021-01-24T11:29:18Z</time>
      </trkpt>
      <trkpt lat="37.22066" lon="-8.72144">
        <ele>166.45</ele>
        <time>2021-01-24T11:29:22Z</time>
      </trkpt>
      <trkpt lat="37.22082" lon="-8.72197">
        <ele>162.6</ele>
        <time>2021-01-24T11:29:28Z</time>
      </trkpt>
      <trkpt lat="37.22085" lon="-8.72207">
        <ele>161.64</ele>
        <time>2021-01-24T11:29:29Z</time>
      </trkpt>
      <trkpt lat="37.22091" lon="-8.72255">
        <ele>158.27</ele>
        <time>2021-01-24T11:29:35Z</time>
      </trkpt>
      <trkpt lat="37.22103" lon="-8.72291">
        <ele>155.39</ele>
        <time>2021-01-24T11:29:40Z</time>
      </trkpt>
      <trkpt lat="37.22112" lon="-8.7231">
        <ele>152.99</ele>
        <time>2021-01-24T11:29:43Z</time>
      </trkpt>
      <trkpt lat="37.22113" lon="-8.7234">
        <ele>151.06</ele>
        <time>2021-01-24T11:29:48Z</time>
      </trkpt>
      <trkpt lat="37.22106" lon="-8.72346">
        <ele>149.62</ele>
        <time>2021-01-24T11:29:50Z</time>
      </trkpt>
      <trkpt lat="37.22087" lon="-8.72357">
        <ele>145.3</ele>
        <time>2021-01-24T11:29:55Z</time>
      </trkpt>
      <trkpt lat="37.22086" lon="-8.72359">
        <ele>145.3</ele>
        <time>2021-01-24T11:29:56Z</time>
      </trkpt>
      <trkpt lat="37.22089" lon="-8.7237">
        <ele>144.34</ele>
        <time>2021-01-24T11:29:59Z</time>
      </trkpt>
      <trkpt lat="37.22104" lon="-8.72391">
        <ele>146.26</ele>
        <time>2021-01-24T11:30:07Z</time>
      </trkpt>
      <trkpt lat="37.22108" lon="-8.72396">
        <ele>147.22</ele>
        <time>2021-01-24T11:30:09Z</time>
      </trkpt>
      <trkpt lat="37.22119" lon="-8.72411">
        <ele>150.58</ele>
        <time>2021-01-24T11:30:15Z</time>
      </trkpt>
      <trkpt lat="37.22129" lon="-8.72426">
        <ele>153.47</ele>
        <time>2021-01-24T11:30:21Z</time>
      </trkpt>
      <trkpt lat="37.22137" lon="-8.72447">
        <ele>157.31</ele>
        <time>2021-01-24T11:30:29Z</time>
      </trkpt>
      <trkpt lat="37.2214" lon="-8.72467">
        <ele>159.72</ele>
        <time>2021-01-24T11:30:36Z</time>
      </trkpt>
      <trkpt lat="37.22142" lon="-8.72489">
        <ele>163.08</ele>
        <time>2021-01-24T11:30:44Z</time>
      </trkpt>
      <trkpt lat="37.22149" lon="-8.72514">
        <ele>166.45</ele>
        <time>2021-01-24T11:30:53Z</time>
      </trkpt>
      <trkpt lat="37.22164" lon="-8.7254">
        <ele>169.33</ele>
        <time>2021-01-24T11:31:04Z</time>
      </trkpt>
      <trkpt lat="37.22171" lon="-8.72569">
        <ele>171.73</ele>
        <time>2021-01-24T11:31:14Z</time>
      </trkpt>
      <trkpt lat="37.2218" lon="-8.72607">
        <ele>175.1</ele>
        <time>2021-01-24T11:31:27Z</time>
      </trkpt>
      <trkpt lat="37.22186" lon="-8.72642">
        <ele>177.02</ele>
        <time>2021-01-24T11:31:39Z</time>
      </trkpt>
      <trkpt lat="37.22191" lon="-8.72681">
        <ele>178.46</ele>
        <time>2021-01-24T11:31:52Z</time>
      </trkpt>
      <trkpt lat="37.22197" lon="-8.72713">
        <ele>179.42</ele>
        <time>2021-01-24T11:32:02Z</time>
      </trkpt>
      <trkpt lat="37.22213" lon="-8.72745">
        <ele>179.42</ele>
        <time>2021-01-24T11:32:12Z</time>
      </trkpt>
      <trkpt lat="37.22232" lon="-8.72773">
        <ele>179.42</ele>
        <time>2021-01-24T11:32:22Z</time>
      </trkpt>
      <trkpt lat="37.22243" lon="-8.7281">
        <ele>182.79</ele>
        <time>2021-01-24T11:32:33Z</time>
      </trkpt>
      <trkpt lat="37.22248" lon="-8.72845">
        <ele>184.71</ele>
        <time>2021-01-24T11:32:43Z</time>
      </trkpt>
      <trkpt lat="37.22251" lon="-8.72881">
        <ele>188.08</ele>
        <time>2021-01-24T11:32:53Z</time>
      </trkpt>
      <trkpt lat="37.22259" lon="-8.72912">
        <ele>191.44</ele>
        <time>2021-01-24T11:33:02Z</time>
      </trkpt>
      <trkpt lat="37.22277" lon="-8.72943">
        <ele>194.8</ele>
        <time>2021-01-24T11:33:13Z</time>
      </trkpt>
      <trkpt lat="37.22287" lon="-8.72973">
        <ele>198.17</ele>
        <time>2021-01-24T11:33:22Z</time>
      </trkpt>
      <trkpt lat="37.22291" lon="-8.73013">
        <ele>200.09</ele>
        <time>2021-01-24T11:33:32Z</time>
      </trkpt>
      <trkpt lat="37.22288" lon="-8.73043">
        <ele>200.09</ele>
        <time>2021-01-24T11:33:39Z</time>
      </trkpt>
      <trkpt lat="37.22279" lon="-8.73074">
        <ele>197.21</ele>
        <time>2021-01-24T11:33:46Z</time>
      </trkpt>
      <trkpt lat="37.22277" lon="-8.73078">
        <ele>196.73</ele>
        <time>2021-01-24T11:33:47Z</time>
      </trkpt>
      <trkpt lat="37.22266" lon="-8.73096">
        <ele>192.4</ele>
        <time>2021-01-24T11:33:51Z</time>
      </trkpt>
      <trkpt lat="37.22259" lon="-8.73112">
        <ele>188.56</ele>
        <time>2021-01-24T11:33:54Z</time>
      </trkpt>
      <trkpt lat="37.22251" lon="-8.73134">
        <ele>184.23</ele>
        <time>2021-01-24T11:33:57Z</time>
      </trkpt>
      <trkpt lat="37.22249" lon="-8.73143">
        <ele>183.27</ele>
        <time>2021-01-24T11:33:58Z</time>
      </trkpt>
      <trkpt lat="37.22247" lon="-8.73152">
        <ele>182.31</ele>
        <time>2021-01-24T11:33:59Z</time>
      </trkpt>
      <trkpt lat="37.22246" lon="-8.73161">
        <ele>181.35</ele>
        <time>2021-01-24T11:34:00Z</time>
      </trkpt>
      <trkpt lat="37.22247" lon="-8.73171">
        <ele>180.38</ele>
        <time>2021-01-24T11:34:01Z</time>
      </trkpt>
      <trkpt lat="37.22248" lon="-8.7318">
        <ele>179.9</ele>
        <time>2021-01-24T11:34:02Z</time>
      </trkpt>
      <trkpt lat="37.2225" lon="-8.73191">
        <ele>178.94</ele>
        <time>2021-01-24T11:34:03Z</time>
      </trkpt>
      <trkpt lat="37.22261" lon="-8.73248">
        <ele>177.5</ele>
        <time>2021-01-24T11:34:09Z</time>
      </trkpt>
      <trkpt lat="37.22268" lon="-8.73271">
        <ele>178.94</ele>
        <time>2021-01-24T11:34:13Z</time>
      </trkpt>
      <trkpt lat="37.22269" lon="-8.73276">
        <ele>178.94</ele>
        <time>2021-01-24T11:34:14Z</time>
      </trkpt>
      <trkpt lat="37.2227" lon="-8.73281">
        <ele>179.42</ele>
        <time>2021-01-24T11:34:15Z</time>
      </trkpt>
      <trkpt lat="37.2227" lon="-8.73285">
        <ele>179.42</ele>
        <time>2021-01-24T11:34:16Z</time>
      </trkpt>
      <trkpt lat="37.2227" lon="-8.73289">
        <ele>179.42</ele>
        <time>2021-01-24T11:34:17Z</time>
      </trkpt>
      <trkpt lat="37.22269" lon="-8.73294">
        <ele>179.42</ele>
        <time>2021-01-24T11:34:18Z</time>
      </trkpt>
      <trkpt lat="37.22268" lon="-8.73298">
        <ele>179.42</ele>
        <time>2021-01-24T11:34:19Z</time>
      </trkpt>
      <trkpt lat="37.22267" lon="-8.73303">
        <ele>179.42</ele>
        <time>2021-01-24T11:34:20Z</time>
      </trkpt>
      <trkpt lat="37.22266" lon="-8.73306">
        <ele>179.42</ele>
        <time>2021-01-24T11:34:21Z</time>
      </trkpt>
      <trkpt lat="37.22251" lon="-8.73328">
        <ele>181.35</ele>
        <time>2021-01-24T11:34:28Z</time>
      </trkpt>
      <trkpt lat="37.22239" lon="-8.7334">
        <ele>184.71</ele>
        <time>2021-01-24T11:34:33Z</time>
      </trkpt>
      <trkpt lat="37.22226" lon="-8.73355">
        <ele>187.59</ele>
        <time>2021-01-24T11:34:39Z</time>
      </trkpt>
      <trkpt lat="37.22214" lon="-8.73366">
        <ele>190.96</ele>
        <time>2021-01-24T11:34:44Z</time>
      </trkpt>
      <trkpt lat="37.22199" lon="-8.73377">
        <ele>193.36</ele>
        <time>2021-01-24T11:34:51Z</time>
      </trkpt>
      <trkpt lat="37.22192" lon="-8.73381">
        <ele>193.36</ele>
        <time>2021-01-24T11:34:53Z</time>
      </trkpt>
      <trkpt lat="37.22171" lon="-8.73382">
        <ele>190</ele>
        <time>2021-01-24T11:34:57Z</time>
      </trkpt>
      <trkpt lat="37.22158" lon="-8.73377">
        <ele>189.52</ele>
        <time>2021-01-24T11:34:59Z</time>
      </trkpt>
      <trkpt lat="37.22155" lon="-8.73376">
        <ele>189.52</ele>
        <time>2021-01-24T11:35:00Z</time>
      </trkpt>
      <trkpt lat="37.22126" lon="-8.73354">
        <ele>189.04</ele>
        <time>2021-01-24T11:35:08Z</time>
      </trkpt>
      <trkpt lat="37.22116" lon="-8.73348">
        <ele>190.48</ele>
        <time>2021-01-24T11:35:11Z</time>
      </trkpt>
      <trkpt lat="37.22103" lon="-8.73339">
        <ele>193.36</ele>
        <time>2021-01-24T11:35:16Z</time>
      </trkpt>
      <trkpt lat="37.22081" lon="-8.73322">
        <ele>196.25</ele>
        <time>2021-01-24T11:35:26Z</time>
      </trkpt>
      <trkpt lat="37.22071" lon="-8.73304">
        <ele>194.32</ele>
        <time>2021-01-24T11:35:32Z</time>
      </trkpt>
      <trkpt lat="37.22074" lon="-8.73275">
        <ele>190</ele>
        <time>2021-01-24T11:35:37Z</time>
      </trkpt>
      <trkpt lat="37.22066" lon="-8.73256">
        <ele>188.08</ele>
        <time>2021-01-24T11:35:41Z</time>
      </trkpt>
      <trkpt lat="37.22047" lon="-8.73235">
        <ele>183.27</ele>
        <time>2021-01-24T11:35:46Z</time>
      </trkpt>
      <trkpt lat="37.22034" lon="-8.73219">
        <ele>179.9</ele>
        <time>2021-01-24T11:35:49Z</time>
      </trkpt>
      <trkpt lat="37.2202" lon="-8.732">
        <ele>176.06</ele>
        <time>2021-01-24T11:35:52Z</time>
      </trkpt>
      <trkpt lat="37.22002" lon="-8.73176">
        <ele>171.73</ele>
        <time>2021-01-24T11:35:55Z</time>
      </trkpt>
      <trkpt lat="37.21981" lon="-8.73154">
        <ele>170.29</ele>
        <time>2021-01-24T11:35:58Z</time>
      </trkpt>
      <trkpt lat="37.21963" lon="-8.73139">
        <ele>173.66</ele>
        <time>2021-01-24T11:36:02Z</time>
      </trkpt>
      <trkpt lat="37.21948" lon="-8.73128">
        <ele>177.02</ele>
        <time>2021-01-24T11:36:08Z</time>
      </trkpt>
      <trkpt lat="37.21936" lon="-8.73117">
        <ele>180.38</ele>
        <time>2021-01-24T11:36:14Z</time>
      </trkpt>
      <trkpt lat="37.21921" lon="-8.73106">
        <ele>183.75</ele>
        <time>2021-01-24T11:36:21Z</time>
      </trkpt>
      <trkpt lat="37.21907" lon="-8.73096">
        <ele>186.63</ele>
        <time>2021-01-24T11:36:27Z</time>
      </trkpt>
      <trkpt lat="37.21892" lon="-8.73085">
        <ele>190</ele>
        <time>2021-01-24T11:36:34Z</time>
      </trkpt>
      <trkpt lat="37.2187" lon="-8.73068">
        <ele>192.88</ele>
        <time>2021-01-24T11:36:45Z</time>
      </trkpt>
      <trkpt lat="37.21846" lon="-8.73055">
        <ele>195.77</ele>
        <time>2021-01-24T11:36:55Z</time>
      </trkpt>
      <trkpt lat="37.21827" lon="-8.73055">
        <ele>196.73</ele>
        <time>2021-01-24T11:37:03Z</time>
      </trkpt>
      <trkpt lat="37.2181" lon="-8.73068">
        <ele>196.73</ele>
        <time>2021-01-24T11:37:11Z</time>
      </trkpt>
      <trkpt lat="37.21791" lon="-8.73084">
        <ele>196.73</ele>
        <time>2021-01-24T11:37:19Z</time>
      </trkpt>
      <trkpt lat="37.2177" lon="-8.73099">
        <ele>197.21</ele>
        <time>2021-01-24T11:37:28Z</time>
      </trkpt>
      <trkpt lat="37.21745" lon="-8.731">
        <ele>194.8</ele>
        <time>2021-01-24T11:37:34Z</time>
      </trkpt>
      <trkpt lat="37.21717" lon="-8.73098">
        <ele>191.44</ele>
        <time>2021-01-24T11:37:39Z</time>
      </trkpt>
      <trkpt lat="37.21712" lon="-8.73097">
        <ele>191.44</ele>
        <time>2021-01-24T11:37:40Z</time>
      </trkpt>
      <trkpt lat="37.21701" lon="-8.73094">
        <ele>190</ele>
        <time>2021-01-24T11:37:42Z</time>
      </trkpt>
      <trkpt lat="37.2167" lon="-8.7308">
        <ele>186.15</ele>
        <time>2021-01-24T11:37:47Z</time>
      </trkpt>
      <trkpt lat="37.21639" lon="-8.73083">
        <ele>182.79</ele>
        <time>2021-01-24T11:37:52Z</time>
      </trkpt>
      <trkpt lat="37.21612" lon="-8.73087">
        <ele>179.42</ele>
        <time>2021-01-24T11:37:56Z</time>
      </trkpt>
      <trkpt lat="37.21596" lon="-8.73081">
        <ele>177.02</ele>
        <time>2021-01-24T11:37:58Z</time>
      </trkpt>
      <trkpt lat="37.2158" lon="-8.73074">
        <ele>176.06</ele>
        <time>2021-01-24T11:38:00Z</time>
      </trkpt>
      <trkpt lat="37.21558" lon="-8.73063">
        <ele>178.46</ele>
        <time>2021-01-24T11:38:04Z</time>
      </trkpt>
      <trkpt lat="37.21555" lon="-8.73061">
        <ele>178.46</ele>
        <time>2021-01-24T11:38:05Z</time>
      </trkpt>
      <trkpt lat="37.21532" lon="-8.73049">
        <ele>181.83</ele>
        <time>2021-01-24T11:38:14Z</time>
      </trkpt>
      <trkpt lat="37.21508" lon="-8.7304">
        <ele>184.23</ele>
        <time>2021-01-24T11:38:23Z</time>
      </trkpt>
      <trkpt lat="37.21478" lon="-8.73044">
        <ele>185.67</ele>
        <time>2021-01-24T11:38:34Z</time>
      </trkpt>
      <trkpt lat="37.21457" lon="-8.73061">
        <ele>187.11</ele>
        <time>2021-01-24T11:38:43Z</time>
      </trkpt>
      <trkpt lat="37.21446" lon="-8.73068">
        <ele>187.11</ele>
        <time>2021-01-24T11:38:47Z</time>
      </trkpt>
      <trkpt lat="37.21415" lon="-8.73062">
        <ele>182.79</ele>
        <time>2021-01-24T11:38:53Z</time>
      </trkpt>
      <trkpt lat="37.21409" lon="-8.73059">
        <ele>181.83</ele>
        <time>2021-01-24T11:38:54Z</time>
      </trkpt>
      <trkpt lat="37.21391" lon="-8.73048">
        <ele>179.42</ele>
        <time>2021-01-24T11:38:57Z</time>
      </trkpt>
      <trkpt lat="37.21362" lon="-8.73045">
        <ele>177.02</ele>
        <time>2021-01-24T11:39:02Z</time>
      </trkpt>
      <trkpt lat="37.21356" lon="-8.73047">
        <ele>176.06</ele>
        <time>2021-01-24T11:39:03Z</time>
      </trkpt>
      <trkpt lat="37.21326" lon="-8.73045">
        <ele>172.69</ele>
        <time>2021-01-24T11:39:08Z</time>
      </trkpt>
      <trkpt lat="37.21321" lon="-8.73039">
        <ele>172.21</ele>
        <time>2021-01-24T11:39:09Z</time>
      </trkpt>
      <trkpt lat="37.21293" lon="-8.73007">
        <ele>172.69</ele>
        <time>2021-01-24T11:39:16Z</time>
      </trkpt>
      <trkpt lat="37.21284" lon="-8.72995">
        <ele>174.14</ele>
        <time>2021-01-24T11:39:20Z</time>
      </trkpt>
      <trkpt lat="37.21261" lon="-8.72967">
        <ele>176.06</ele>
        <time>2021-01-24T11:39:30Z</time>
      </trkpt>
      <trkpt lat="37.21247" lon="-8.72949">
        <ele>177.02</ele>
        <time>2021-01-24T11:39:38Z</time>
      </trkpt>
      <trkpt lat="37.2124" lon="-8.72932">
        <ele>175.58</ele>
        <time>2021-01-24T11:39:44Z</time>
      </trkpt>
      <trkpt lat="37.21238" lon="-8.7293">
        <ele>175.58</ele>
        <time>2021-01-24T11:39:45Z</time>
      </trkpt>
      <trkpt lat="37.21235" lon="-8.72929">
        <ele>175.58</ele>
        <time>2021-01-24T11:39:46Z</time>
      </trkpt>
      <trkpt lat="37.21233" lon="-8.7293">
        <ele>175.58</ele>
        <time>2021-01-24T11:39:47Z</time>
      </trkpt>
      <trkpt lat="37.2123" lon="-8.72931">
        <ele>175.58</ele>
        <time>2021-01-24T11:39:48Z</time>
      </trkpt>
      <trkpt lat="37.21228" lon="-8.72932">
        <ele>175.58</ele>
        <time>2021-01-24T11:39:49Z</time>
      </trkpt>
      <trkpt lat="37.21225" lon="-8.72934">
        <ele>175.58</ele>
        <time>2021-01-24T11:39:50Z</time>
      </trkpt>
      <trkpt lat="37.21224" lon="-8.72937">
        <ele>175.58</ele>
        <time>2021-01-24T11:39:51Z</time>
      </trkpt>
      <trkpt lat="37.21222" lon="-8.72939">
        <ele>175.58</ele>
        <time>2021-01-24T11:39:52Z</time>
      </trkpt>
      <trkpt lat="37.21221" lon="-8.72943">
        <ele>175.58</ele>
        <time>2021-01-24T11:39:53Z</time>
      </trkpt>
      <trkpt lat="37.2122" lon="-8.72946">
        <ele>177.02</ele>
        <time>2021-01-24T11:39:54Z</time>
      </trkpt>
      <trkpt lat="37.21219" lon="-8.72949">
        <ele>177.5</ele>
        <time>2021-01-24T11:39:55Z</time>
      </trkpt>
      <trkpt lat="37.21212" lon="-8.72979">
        <ele>179.9</ele>
        <time>2021-01-24T11:40:05Z</time>
      </trkpt>
      <trkpt lat="37.21202" lon="-8.73008">
        <ele>181.83</ele>
        <time>2021-01-24T11:40:14Z</time>
      </trkpt>
      <trkpt lat="37.21191" lon="-8.73039">
        <ele>182.79</ele>
        <time>2021-01-24T11:40:23Z</time>
      </trkpt>
      <trkpt lat="37.21176" lon="-8.73065">
        <ele>182.31</ele>
        <time>2021-01-24T11:40:31Z</time>
      </trkpt>
      <trkpt lat="37.21155" lon="-8.73089">
        <ele>182.79</ele>
        <time>2021-01-24T11:40:40Z</time>
      </trkpt>
      <trkpt lat="37.21135" lon="-8.7311">
        <ele>185.67</ele>
        <time>2021-01-24T11:40:49Z</time>
      </trkpt>
      <trkpt lat="37.21115" lon="-8.73129">
        <ele>186.63</ele>
        <time>2021-01-24T11:40:58Z</time>
      </trkpt>
      <trkpt lat="37.21096" lon="-8.73144">
        <ele>185.19</ele>
        <time>2021-01-24T11:41:04Z</time>
      </trkpt>
      <trkpt lat="37.21074" lon="-8.73161">
        <ele>182.79</ele>
        <time>2021-01-24T11:41:08Z</time>
      </trkpt>
      <trkpt lat="37.21044" lon="-8.73185">
        <ele>180.38</ele>
        <time>2021-01-24T11:41:13Z</time>
      </trkpt>
      <trkpt lat="37.21028" lon="-8.73194">
        <ele>182.79</ele>
        <time>2021-01-24T11:41:17Z</time>
      </trkpt>
      <trkpt lat="37.21023" lon="-8.73197">
        <ele>183.75</ele>
        <time>2021-01-24T11:41:19Z</time>
      </trkpt>
      <trkpt lat="37.21011" lon="-8.73204">
        <ele>186.63</ele>
        <time>2021-01-24T11:41:24Z</time>
      </trkpt>
      <trkpt lat="37.21009" lon="-8.73206">
        <ele>187.11</ele>
        <time>2021-01-24T11:41:25Z</time>
      </trkpt>
      <trkpt lat="37.20997" lon="-8.73204">
        <ele>189.04</ele>
        <time>2021-01-24T11:41:31Z</time>
      </trkpt>
      <trkpt lat="37.20981" lon="-8.7318">
        <ele>188.08</ele>
        <time>2021-01-24T11:41:38Z</time>
      </trkpt>
      <trkpt lat="37.20978" lon="-8.73176">
        <ele>188.08</ele>
        <time>2021-01-24T11:41:39Z</time>
      </trkpt>
      <trkpt lat="37.20964" lon="-8.73154">
        <ele>186.15</ele>
        <time>2021-01-24T11:41:44Z</time>
      </trkpt>
      <trkpt lat="37.20953" lon="-8.73137">
        <ele>184.23</ele>
        <time>2021-01-24T11:41:48Z</time>
      </trkpt>
      <trkpt lat="37.20952" lon="-8.73133">
        <ele>183.27</ele>
        <time>2021-01-24T11:41:49Z</time>
      </trkpt>
      <trkpt lat="37.20942" lon="-8.73111">
        <ele>179.42</ele>
        <time>2021-01-24T11:41:54Z</time>
      </trkpt>
      <trkpt lat="37.20932" lon="-8.73095">
        <ele>175.58</ele>
        <time>2021-01-24T11:41:58Z</time>
      </trkpt>
      <trkpt lat="37.2093" lon="-8.73091">
        <ele>174.62</ele>
        <time>2021-01-24T11:41:59Z</time>
      </trkpt>
      <trkpt lat="37.20927" lon="-8.73086">
        <ele>173.66</ele>
        <time>2021-01-24T11:42:00Z</time>
      </trkpt>
      <trkpt lat="37.20919" lon="-8.73072">
        <ele>170.29</ele>
        <time>2021-01-24T11:42:03Z</time>
      </trkpt>
      <trkpt lat="37.2091" lon="-8.73058">
        <ele>166.45</ele>
        <time>2021-01-24T11:42:06Z</time>
      </trkpt>
      <trkpt lat="37.20899" lon="-8.73046">
        <ele>163.08</ele>
        <time>2021-01-24T11:42:09Z</time>
      </trkpt>
      <trkpt lat="37.20889" lon="-8.73034">
        <ele>160.2</ele>
        <time>2021-01-24T11:42:12Z</time>
      </trkpt>
      <trkpt lat="37.20875" lon="-8.73021">
        <ele>156.35</ele>
        <time>2021-01-24T11:42:16Z</time>
      </trkpt>
      <trkpt lat="37.20872" lon="-8.7302">
        <ele>155.87</ele>
        <time>2021-01-24T11:42:17Z</time>
      </trkpt>
      <trkpt lat="37.20867" lon="-8.7302">
        <ele>155.87</ele>
        <time>2021-01-24T11:42:18Z</time>
      </trkpt>
      <trkpt lat="37.20863" lon="-8.73021">
        <ele>155.87</ele>
        <time>2021-01-24T11:42:19Z</time>
      </trkpt>
      <trkpt lat="37.20858" lon="-8.73021">
        <ele>155.39</ele>
        <time>2021-01-24T11:42:20Z</time>
      </trkpt>
      <trkpt lat="37.20839" lon="-8.73024">
        <ele>153.47</ele>
        <time>2021-01-24T11:42:24Z</time>
      </trkpt>
      <trkpt lat="37.20833" lon="-8.73026">
        <ele>152.51</ele>
        <time>2021-01-24T11:42:25Z</time>
      </trkpt>
      <trkpt lat="37.20828" lon="-8.73029">
        <ele>152.03</ele>
        <time>2021-01-24T11:42:26Z</time>
      </trkpt>
      <trkpt lat="37.20823" lon="-8.73031">
        <ele>152.03</ele>
        <time>2021-01-24T11:42:27Z</time>
      </trkpt>
      <trkpt lat="37.20818" lon="-8.73034">
        <ele>151.06</ele>
        <time>2021-01-24T11:42:28Z</time>
      </trkpt>
      <trkpt lat="37.20814" lon="-8.73037">
        <ele>150.58</ele>
        <time>2021-01-24T11:42:29Z</time>
      </trkpt>
      <trkpt lat="37.20802" lon="-8.73045">
        <ele>147.7</ele>
        <time>2021-01-24T11:42:32Z</time>
      </trkpt>
      <trkpt lat="37.20791" lon="-8.73054">
        <ele>145.3</ele>
        <time>2021-01-24T11:42:34Z</time>
      </trkpt>
      <trkpt lat="37.20784" lon="-8.73059">
        <ele>144.82</ele>
        <time>2021-01-24T11:42:35Z</time>
      </trkpt>
      <trkpt lat="37.20777" lon="-8.73062">
        <ele>144.82</ele>
        <time>2021-01-24T11:42:36Z</time>
      </trkpt>
      <trkpt lat="37.20764" lon="-8.73069">
        <ele>143.85</ele>
        <time>2021-01-24T11:42:38Z</time>
      </trkpt>
      <trkpt lat="37.20759" lon="-8.73073">
        <ele>143.85</ele>
        <time>2021-01-24T11:42:39Z</time>
      </trkpt>
      <trkpt lat="37.20754" lon="-8.73078">
        <ele>143.85</ele>
        <time>2021-01-24T11:42:40Z</time>
      </trkpt>
      <trkpt lat="37.2075" lon="-8.73083">
        <ele>143.85</ele>
        <time>2021-01-24T11:42:41Z</time>
      </trkpt>
      <trkpt lat="37.20746" lon="-8.73088">
        <ele>143.85</ele>
        <time>2021-01-24T11:42:42Z</time>
      </trkpt>
      <trkpt lat="37.20743" lon="-8.73093">
        <ele>143.85</ele>
        <time>2021-01-24T11:42:43Z</time>
      </trkpt>
      <trkpt lat="37.20741" lon="-8.73098">
        <ele>143.85</ele>
        <time>2021-01-24T11:42:44Z</time>
      </trkpt>
      <trkpt lat="37.20735" lon="-8.73107">
        <ele>143.85</ele>
        <time>2021-01-24T11:42:46Z</time>
      </trkpt>
      <trkpt lat="37.20732" lon="-8.73111">
        <ele>143.85</ele>
        <time>2021-01-24T11:42:47Z</time>
      </trkpt>
      <trkpt lat="37.20729" lon="-8.73114">
        <ele>143.85</ele>
        <time>2021-01-24T11:42:48Z</time>
      </trkpt>
      <trkpt lat="37.20706" lon="-8.73129">
        <ele>145.3</ele>
        <time>2021-01-24T11:42:56Z</time>
      </trkpt>
      <trkpt lat="37.20685" lon="-8.73136">
        <ele>145.3</ele>
        <time>2021-01-24T11:43:02Z</time>
      </trkpt>
      <trkpt lat="37.20669" lon="-8.7315">
        <ele>145.3</ele>
        <time>2021-01-24T11:43:08Z</time>
      </trkpt>
      <trkpt lat="37.2066" lon="-8.73167">
        <ele>143.85</ele>
        <time>2021-01-24T11:43:12Z</time>
      </trkpt>
      <trkpt lat="37.20653" lon="-8.73175">
        <ele>142.89</ele>
        <time>2021-01-24T11:43:16Z</time>
      </trkpt>
      <trkpt lat="37.20652" lon="-8.73175">
        <ele>143.37</ele>
        <time>2021-01-24T11:43:24Z</time>
      </trkpt>
      <trkpt lat="37.20652" lon="-8.73175">
        <ele>139.05</ele>
        <time>2021-01-24T11:43:29Z</time>
      </trkpt>
      <trkpt lat="37.20652" lon="-8.73175">
        <ele>140.97</ele>
        <time>2021-01-24T11:43:30Z</time>
      </trkpt>
      <trkpt lat="37.20652" lon="-8.73175">
        <ele>146.26</ele>
        <time>2021-01-24T11:43:31Z</time>
      </trkpt>
      <trkpt lat="37.20652" lon="-8.73175">
        <ele>142.41</ele>
        <time>2021-01-24T11:43:32Z</time>
      </trkpt>
      <trkpt lat="37.2065" lon="-8.73175">
        <ele>142.41</ele>
        <time>2021-01-24T11:43:39Z</time>
      </trkpt>
      <trkpt lat="37.20648" lon="-8.73176">
        <ele>142.41</ele>
        <time>2021-01-24T11:43:40Z</time>
      </trkpt>
      <trkpt lat="37.20646" lon="-8.73176">
        <ele>142.41</ele>
        <time>2021-01-24T11:43:41Z</time>
      </trkpt>
      <trkpt lat="37.20627" lon="-8.73173">
        <ele>141.93</ele>
        <time>2021-01-24T11:43:49Z</time>
      </trkpt>
      <trkpt lat="37.20599" lon="-8.73164">
        <ele>141.93</ele>
        <time>2021-01-24T11:43:59Z</time>
      </trkpt>
      <trkpt lat="37.20575" lon="-8.73161">
        <ele>140.49</ele>
        <time>2021-01-24T11:44:05Z</time>
      </trkpt>
      <trkpt lat="37.20546" lon="-8.73157">
        <ele>137.61</ele>
        <time>2021-01-24T11:44:09Z</time>
      </trkpt>
      <trkpt lat="37.2052" lon="-8.73156">
        <ele>134.24</ele>
        <time>2021-01-24T11:44:12Z</time>
      </trkpt>
      <trkpt lat="37.20476" lon="-8.73152">
        <ele>133.76</ele>
        <time>2021-01-24T11:44:18Z</time>
      </trkpt>
      <trkpt lat="37.20437" lon="-8.7314">
        <ele>132.8</ele>
        <time>2021-01-24T11:44:25Z</time>
      </trkpt>
      <trkpt lat="37.20418" lon="-8.73133">
        <ele>131.36</ele>
        <time>2021-01-24T11:44:28Z</time>
      </trkpt>
      <trkpt lat="37.20413" lon="-8.7313">
        <ele>130.88</ele>
        <time>2021-01-24T11:44:29Z</time>
      </trkpt>
      <trkpt lat="37.20408" lon="-8.73127">
        <ele>130.88</ele>
        <time>2021-01-24T11:44:30Z</time>
      </trkpt>
      <trkpt lat="37.20404" lon="-8.73123">
        <ele>129.92</ele>
        <time>2021-01-24T11:44:31Z</time>
      </trkpt>
      <trkpt lat="37.20399" lon="-8.73118">
        <ele>129.92</ele>
        <time>2021-01-24T11:44:32Z</time>
      </trkpt>
      <trkpt lat="37.20394" lon="-8.73112">
        <ele>128.95</ele>
        <time>2021-01-24T11:44:33Z</time>
      </trkpt>
      <trkpt lat="37.20383" lon="-8.73099">
        <ele>125.11</ele>
        <time>2021-01-24T11:44:35Z</time>
      </trkpt>
      <trkpt lat="37.20371" lon="-8.73085">
        <ele>124.63</ele>
        <time>2021-01-24T11:44:37Z</time>
      </trkpt>
      <trkpt lat="37.20341" lon="-8.73061">
        <ele>124.63</ele>
        <time>2021-01-24T11:44:42Z</time>
      </trkpt>
      <trkpt lat="37.20315" lon="-8.73046">
        <ele>124.63</ele>
        <time>2021-01-24T11:44:48Z</time>
      </trkpt>
      <trkpt lat="37.2029" lon="-8.73034">
        <ele>123.67</ele>
        <time>2021-01-24T11:44:55Z</time>
      </trkpt>
      <trkpt lat="37.20266" lon="-8.73028">
        <ele>120.3</ele>
        <time>2021-01-24T11:44:59Z</time>
      </trkpt>
      <trkpt lat="37.2024" lon="-8.73022">
        <ele>117.42</ele>
        <time>2021-01-24T11:45:03Z</time>
      </trkpt>
      <trkpt lat="37.20214" lon="-8.73015">
        <ele>115.01</ele>
        <time>2021-01-24T11:45:08Z</time>
      </trkpt>
      <trkpt lat="37.20201" lon="-8.73016">
        <ele>114.05</ele>
        <time>2021-01-24T11:45:13Z</time>
      </trkpt>
      <trkpt lat="37.2019" lon="-8.73025">
        <ele>114.05</ele>
        <time>2021-01-24T11:45:18Z</time>
      </trkpt>
      <trkpt lat="37.20178" lon="-8.73049">
        <ele>114.05</ele>
        <time>2021-01-24T11:45:26Z</time>
      </trkpt>
      <trkpt lat="37.20173" lon="-8.73055">
        <ele>113.09</ele>
        <time>2021-01-24T11:45:28Z</time>
      </trkpt>
      <trkpt lat="37.20165" lon="-8.73067">
        <ele>111.17</ele>
        <time>2021-01-24T11:45:32Z</time>
      </trkpt>
      <trkpt lat="37.20151" lon="-8.73077">
        <ele>106.84</ele>
        <time>2021-01-24T11:45:36Z</time>
      </trkpt>
      <trkpt lat="37.20137" lon="-8.73085">
        <ele>103.48</ele>
        <time>2021-01-24T11:45:39Z</time>
      </trkpt>
      <trkpt lat="37.20119" lon="-8.73098">
        <ele>100.11</ele>
        <time>2021-01-24T11:45:42Z</time>
      </trkpt>
      <trkpt lat="37.20107" lon="-8.73108">
        <ele>99.15</ele>
        <time>2021-01-24T11:45:44Z</time>
      </trkpt>
      <trkpt lat="37.20092" lon="-8.73122">
        <ele>98.67</ele>
        <time>2021-01-24T11:45:47Z</time>
      </trkpt>
      <trkpt lat="37.20073" lon="-8.73142">
        <ele>99.15</ele>
        <time>2021-01-24T11:45:53Z</time>
      </trkpt>
      <trkpt lat="37.20066" lon="-8.73151">
        <ele>100.6</ele>
        <time>2021-01-24T11:45:56Z</time>
      </trkpt>
      <trkpt lat="37.20057" lon="-8.73157">
        <ele>103.48</ele>
        <time>2021-01-24T11:46:00Z</time>
      </trkpt>
      <trkpt lat="37.2004" lon="-8.73167">
        <ele>105.88</ele>
        <time>2021-01-24T11:46:08Z</time>
      </trkpt>
      <trkpt lat="37.20026" lon="-8.7318">
        <ele>105.4</ele>
        <time>2021-01-24T11:46:13Z</time>
      </trkpt>
      <trkpt lat="37.20011" lon="-8.73193">
        <ele>105.88</ele>
        <time>2021-01-24T11:46:19Z</time>
      </trkpt>
      <trkpt lat="37.19991" lon="-8.73197">
        <ele>105.4</ele>
        <time>2021-01-24T11:46:26Z</time>
      </trkpt>
      <trkpt lat="37.19982" lon="-8.73196">
        <ele>104.44</ele>
        <time>2021-01-24T11:46:29Z</time>
      </trkpt>
      <trkpt lat="37.19969" lon="-8.73195">
        <ele>101.08</ele>
        <time>2021-01-24T11:46:33Z</time>
      </trkpt>
      <trkpt lat="37.19953" lon="-8.73202">
        <ele>97.23</ele>
        <time>2021-01-24T11:46:38Z</time>
      </trkpt>
      <trkpt lat="37.19945" lon="-8.73225">
        <ele>95.79</ele>
        <time>2021-01-24T11:46:44Z</time>
      </trkpt>
      <trkpt lat="37.19939" lon="-8.73245">
        <ele>90.98</ele>
        <time>2021-01-24T11:46:48Z</time>
      </trkpt>
      <trkpt lat="37.19931" lon="-8.73265">
        <ele>88.58</ele>
        <time>2021-01-24T11:46:51Z</time>
      </trkpt>
      <trkpt lat="37.19925" lon="-8.73285">
        <ele>90.5</ele>
        <time>2021-01-24T11:46:56Z</time>
      </trkpt>
      <trkpt lat="37.19922" lon="-8.73301">
        <ele>86.66</ele>
        <time>2021-01-24T11:46:59Z</time>
      </trkpt>
      <trkpt lat="37.19918" lon="-8.73322">
        <ele>82.81</ele>
        <time>2021-01-24T11:47:04Z</time>
      </trkpt>
      <trkpt lat="37.19916" lon="-8.73336">
        <ele>79.45</ele>
        <time>2021-01-24T11:47:08Z</time>
      </trkpt>
      <trkpt lat="37.19913" lon="-8.73353">
        <ele>76.08</ele>
        <time>2021-01-24T11:47:13Z</time>
      </trkpt>
      <trkpt lat="37.19912" lon="-8.73356">
        <ele>75.6</ele>
        <time>2021-01-24T11:47:14Z</time>
      </trkpt>
      <trkpt lat="37.19908" lon="-8.7336">
        <ele>74.64</ele>
        <time>2021-01-24T11:47:16Z</time>
      </trkpt>
      <trkpt lat="37.19905" lon="-8.7336">
        <ele>74.64</ele>
        <time>2021-01-24T11:47:17Z</time>
      </trkpt>
      <trkpt lat="37.19903" lon="-8.7336">
        <ele>74.64</ele>
        <time>2021-01-24T11:47:18Z</time>
      </trkpt>
      <trkpt lat="37.199" lon="-8.73359">
        <ele>74.64</ele>
        <time>2021-01-24T11:47:19Z</time>
      </trkpt>
      <trkpt lat="37.19898" lon="-8.73358">
        <ele>74.16</ele>
        <time>2021-01-24T11:47:20Z</time>
      </trkpt>
      <trkpt lat="37.19896" lon="-8.73356">
        <ele>74.16</ele>
        <time>2021-01-24T11:47:21Z</time>
      </trkpt>
      <trkpt lat="37.19879" lon="-8.73341">
        <ele>74.16</ele>
        <time>2021-01-24T11:47:28Z</time>
      </trkpt>
      <trkpt lat="37.19858" lon="-8.73318">
        <ele>73.68</ele>
        <time>2021-01-24T11:47:38Z</time>
      </trkpt>
      <trkpt lat="37.19848" lon="-8.73298">
        <ele>73.68</ele>
        <time>2021-01-24T11:47:45Z</time>
      </trkpt>
      <trkpt lat="37.19832" lon="-8.73264">
        <ele>73.68</ele>
        <time>2021-01-24T11:47:54Z</time>
      </trkpt>
      <trkpt lat="37.19821" lon="-8.73237">
        <ele>73.68</ele>
        <time>2021-01-24T11:48:02Z</time>
      </trkpt>
      <trkpt lat="37.19806" lon="-8.73201">
        <ele>72.72</ele>
        <time>2021-01-24T11:48:11Z</time>
      </trkpt>
      <trkpt lat="37.19804" lon="-8.73197">
        <ele>72.72</ele>
        <time>2021-01-24T11:48:12Z</time>
      </trkpt>
      <trkpt lat="37.19803" lon="-8.73192">
        <ele>72.72</ele>
        <time>2021-01-24T11:48:13Z</time>
      </trkpt>
      <trkpt lat="37.19784" lon="-8.73139">
        <ele>70.79</ele>
        <time>2021-01-24T11:48:23Z</time>
      </trkpt>
      <trkpt lat="37.19774" lon="-8.73111">
        <ele>70.79</ele>
        <time>2021-01-24T11:48:30Z</time>
      </trkpt>
      <trkpt lat="37.19773" lon="-8.73108">
        <ele>70.79</ele>
        <time>2021-01-24T11:48:35Z</time>
      </trkpt>
      <trkpt lat="37.19774" lon="-8.73107">
        <ele>70.79</ele>
        <time>2021-01-24T11:48:49Z</time>
      </trkpt>
      <trkpt lat="37.19776" lon="-8.73107">
        <ele>70.79</ele>
        <time>2021-01-24T11:49:11Z</time>
      </trkpt>
      <trkpt lat="37.19775" lon="-8.73108">
        <ele>70.79</ele>
        <time>2021-01-24T11:49:29Z</time>
      </trkpt>
      <trkpt lat="37.19774" lon="-8.73108">
        <ele>70.79</ele>
        <time>2021-01-24T11:49:54Z</time>
      </trkpt>
      <trkpt lat="37.19774" lon="-8.73107">
        <ele>70.79</ele>
        <time>2021-01-24T11:50:11Z</time>
      </trkpt>
      <trkpt lat="37.19774" lon="-8.73108">
        <ele>70.79</ele>
        <time>2021-01-24T11:50:33Z</time>
      </trkpt>
      <trkpt lat="37.19772" lon="-8.73107">
        <ele>70.79</ele>
        <time>2021-01-24T11:50:48Z</time>
      </trkpt>
      <trkpt lat="37.1977" lon="-8.73108">
        <ele>70.79</ele>
        <time>2021-01-24T11:50:54Z</time>
      </trkpt>
      <trkpt lat="37.19769" lon="-8.73107">
        <ele>70.79</ele>
        <time>2021-01-24T11:50:55Z</time>
      </trkpt>
      <trkpt lat="37.19755" lon="-8.73097">
        <ele>70.79</ele>
        <time>2021-01-24T11:51:01Z</time>
      </trkpt>
      <trkpt lat="37.19723" lon="-8.73074">
        <ele>69.35</ele>
        <time>2021-01-24T11:51:10Z</time>
      </trkpt>
      <trkpt lat="37.19702" lon="-8.73053">
        <ele>68.87</ele>
        <time>2021-01-24T11:51:17Z</time>
      </trkpt>
      <trkpt lat="37.19686" lon="-8.73038">
        <ele>68.87</ele>
        <time>2021-01-24T11:51:22Z</time>
      </trkpt>
      <trkpt lat="37.19662" lon="-8.73003">
        <ele>67.91</ele>
        <time>2021-01-24T11:51:31Z</time>
      </trkpt>
      <trkpt lat="37.19649" lon="-8.72983">
        <ele>67.43</ele>
        <time>2021-01-24T11:51:36Z</time>
      </trkpt>
      <trkpt lat="37.19626" lon="-8.72947">
        <ele>65.51</ele>
        <time>2021-01-24T11:51:44Z</time>
      </trkpt>
      <trkpt lat="37.19608" lon="-8.7293">
        <ele>65.51</ele>
        <time>2021-01-24T11:51:50Z</time>
      </trkpt>
      <trkpt lat="37.19587" lon="-8.72908">
        <ele>65.51</ele>
        <time>2021-01-24T11:51:58Z</time>
      </trkpt>
      <trkpt lat="37.19573" lon="-8.72898">
        <ele>64.55</ele>
        <time>2021-01-24T11:52:05Z</time>
      </trkpt>
      <trkpt lat="37.19561" lon="-8.72891">
        <ele>64.07</ele>
        <time>2021-01-24T11:52:12Z</time>
      </trkpt>
      <trkpt lat="37.19542" lon="-8.72874">
        <ele>66.47</ele>
        <time>2021-01-24T11:52:21Z</time>
      </trkpt>
      <trkpt lat="37.1952" lon="-8.72852">
        <ele>66.47</ele>
        <time>2021-01-24T11:52:29Z</time>
      </trkpt>
      <trkpt lat="37.19508" lon="-8.72842">
        <ele>65.03</ele>
        <time>2021-01-24T11:52:32Z</time>
      </trkpt>
      <trkpt lat="37.19504" lon="-8.7284">
        <ele>65.03</ele>
        <time>2021-01-24T11:52:33Z</time>
      </trkpt>
      <trkpt lat="37.19499" lon="-8.72838">
        <ele>65.03</ele>
        <time>2021-01-24T11:52:34Z</time>
      </trkpt>
      <trkpt lat="37.19494" lon="-8.72837">
        <ele>64.55</ele>
        <time>2021-01-24T11:52:35Z</time>
      </trkpt>
      <trkpt lat="37.1949" lon="-8.72836">
        <ele>64.55</ele>
        <time>2021-01-24T11:52:36Z</time>
      </trkpt>
      <trkpt lat="37.19485" lon="-8.72835">
        <ele>64.55</ele>
        <time>2021-01-24T11:52:37Z</time>
      </trkpt>
      <trkpt lat="37.19481" lon="-8.72833">
        <ele>64.55</ele>
        <time>2021-01-24T11:52:38Z</time>
      </trkpt>
      <trkpt lat="37.19476" lon="-8.72832">
        <ele>64.07</ele>
        <time>2021-01-24T11:52:39Z</time>
      </trkpt>
      <trkpt lat="37.19467" lon="-8.7283">
        <ele>64.07</ele>
        <time>2021-01-24T11:52:41Z</time>
      </trkpt>
      <trkpt lat="37.19447" lon="-8.72833">
        <ele>63.58</ele>
        <time>2021-01-24T11:52:47Z</time>
      </trkpt>
      <trkpt lat="37.19421" lon="-8.7284">
        <ele>63.58</ele>
        <time>2021-01-24T11:52:57Z</time>
      </trkpt>
      <trkpt lat="37.19396" lon="-8.72839">
        <ele>63.58</ele>
        <time>2021-01-24T11:53:05Z</time>
      </trkpt>
      <trkpt lat="37.19371" lon="-8.72838">
        <ele>63.58</ele>
        <time>2021-01-24T11:53:13Z</time>
      </trkpt>
      <trkpt lat="37.19348" lon="-8.72836">
        <ele>63.58</ele>
        <time>2021-01-24T11:53:20Z</time>
      </trkpt>
      <trkpt lat="37.19316" lon="-8.72831">
        <ele>65.03</ele>
        <time>2021-01-24T11:53:30Z</time>
      </trkpt>
      <trkpt lat="37.1929" lon="-8.72821">
        <ele>65.03</ele>
        <time>2021-01-24T11:53:38Z</time>
      </trkpt>
      <trkpt lat="37.19261" lon="-8.72812">
        <ele>64.07</ele>
        <time>2021-01-24T11:53:45Z</time>
      </trkpt>
      <trkpt lat="37.19216" lon="-8.72805">
        <ele>63.1</ele>
        <time>2021-01-24T11:53:55Z</time>
      </trkpt>
      <trkpt lat="37.19181" lon="-8.72802">
        <ele>62.62</ele>
        <time>2021-01-24T11:54:03Z</time>
      </trkpt>
      <trkpt lat="37.19177" lon="-8.72801">
        <ele>62.62</ele>
        <time>2021-01-24T11:54:04Z</time>
      </trkpt>
      <trkpt lat="37.19173" lon="-8.72801">
        <ele>62.62</ele>
        <time>2021-01-24T11:54:05Z</time>
      </trkpt>
      <trkpt lat="37.19169" lon="-8.728">
        <ele>62.62</ele>
        <time>2021-01-24T11:54:06Z</time>
      </trkpt>
      <trkpt lat="37.19164" lon="-8.72799">
        <ele>62.62</ele>
        <time>2021-01-24T11:54:07Z</time>
      </trkpt>
      <trkpt lat="37.1916" lon="-8.72798">
        <ele>62.62</ele>
        <time>2021-01-24T11:54:08Z</time>
      </trkpt>
      <trkpt lat="37.19155" lon="-8.72797">
        <ele>62.62</ele>
        <time>2021-01-24T11:54:09Z</time>
      </trkpt>
      <trkpt lat="37.19131" lon="-8.72786">
        <ele>62.62</ele>
        <time>2021-01-24T11:54:16Z</time>
      </trkpt>
      <trkpt lat="37.19107" lon="-8.72776">
        <ele>62.62</ele>
        <time>2021-01-24T11:54:22Z</time>
      </trkpt>
      <trkpt lat="37.19103" lon="-8.72774">
        <ele>62.62</ele>
        <time>2021-01-24T11:54:23Z</time>
      </trkpt>
      <trkpt lat="37.191" lon="-8.72771">
        <ele>62.62</ele>
        <time>2021-01-24T11:54:24Z</time>
      </trkpt>
      <trkpt lat="37.19097" lon="-8.72767">
        <ele>62.62</ele>
        <time>2021-01-24T11:54:25Z</time>
      </trkpt>
      <trkpt lat="37.19095" lon="-8.72764">
        <ele>62.62</ele>
        <time>2021-01-24T11:54:26Z</time>
      </trkpt>
      <trkpt lat="37.19093" lon="-8.7276">
        <ele>62.62</ele>
        <time>2021-01-24T11:54:27Z</time>
      </trkpt>
      <trkpt lat="37.19091" lon="-8.72756">
        <ele>62.62</ele>
        <time>2021-01-24T11:54:28Z</time>
      </trkpt>
      <trkpt lat="37.19089" lon="-8.72752">
        <ele>62.62</ele>
        <time>2021-01-24T11:54:29Z</time>
      </trkpt>
      <trkpt lat="37.19077" lon="-8.72723">
        <ele>60.7</ele>
        <time>2021-01-24T11:54:34Z</time>
      </trkpt>
      <trkpt lat="37.19038" lon="-8.72671">
        <ele>58.78</ele>
        <time>2021-01-24T11:54:43Z</time>
      </trkpt>
      <trkpt lat="37.19015" lon="-8.72654">
        <ele>58.3</ele>
        <time>2021-01-24T11:54:48Z</time>
      </trkpt>
      <trkpt lat="37.1901" lon="-8.72652">
        <ele>58.3</ele>
        <time>2021-01-24T11:54:49Z</time>
      </trkpt>
      <trkpt lat="37.19006" lon="-8.7265">
        <ele>58.3</ele>
        <time>2021-01-24T11:54:50Z</time>
      </trkpt>
      <trkpt lat="37.18979" lon="-8.72638">
        <ele>58.3</ele>
        <time>2021-01-24T11:54:57Z</time>
      </trkpt>
      <trkpt lat="37.18962" lon="-8.72629">
        <ele>58.3</ele>
        <time>2021-01-24T11:55:01Z</time>
      </trkpt>
      <trkpt lat="37.18957" lon="-8.72628">
        <ele>58.3</ele>
        <time>2021-01-24T11:55:02Z</time>
      </trkpt>
      <trkpt lat="37.18952" lon="-8.72627">
        <ele>57.82</ele>
        <time>2021-01-24T11:55:03Z</time>
      </trkpt>
      <trkpt lat="37.18947" lon="-8.72627">
        <ele>57.82</ele>
        <time>2021-01-24T11:55:04Z</time>
      </trkpt>
      <trkpt lat="37.18943" lon="-8.72628">
        <ele>57.34</ele>
        <time>2021-01-24T11:55:05Z</time>
      </trkpt>
      <trkpt lat="37.18938" lon="-8.72629">
        <ele>57.34</ele>
        <time>2021-01-24T11:55:06Z</time>
      </trkpt>
      <trkpt lat="37.18934" lon="-8.72631">
        <ele>57.34</ele>
        <time>2021-01-24T11:55:07Z</time>
      </trkpt>
      <trkpt lat="37.18929" lon="-8.72634">
        <ele>57.34</ele>
        <time>2021-01-24T11:55:08Z</time>
      </trkpt>
      <trkpt lat="37.18925" lon="-8.72636">
        <ele>57.34</ele>
        <time>2021-01-24T11:55:09Z</time>
      </trkpt>
      <trkpt lat="37.18921" lon="-8.7264">
        <ele>56.86</ele>
        <time>2021-01-24T11:55:10Z</time>
      </trkpt>
      <trkpt lat="37.18917" lon="-8.72644">
        <ele>56.86</ele>
        <time>2021-01-24T11:55:11Z</time>
      </trkpt>
      <trkpt lat="37.18913" lon="-8.72649">
        <ele>56.86</ele>
        <time>2021-01-24T11:55:12Z</time>
      </trkpt>
      <trkpt lat="37.1891" lon="-8.72654">
        <ele>56.37</ele>
        <time>2021-01-24T11:55:13Z</time>
      </trkpt>
      <trkpt lat="37.18907" lon="-8.7266">
        <ele>56.37</ele>
        <time>2021-01-24T11:55:14Z</time>
      </trkpt>
      <trkpt lat="37.18904" lon="-8.72665">
        <ele>55.89</ele>
        <time>2021-01-24T11:55:15Z</time>
      </trkpt>
      <trkpt lat="37.18902" lon="-8.72671">
        <ele>55.89</ele>
        <time>2021-01-24T11:55:16Z</time>
      </trkpt>
      <trkpt lat="37.18889" lon="-8.72706">
        <ele>55.89</ele>
        <time>2021-01-24T11:55:23Z</time>
      </trkpt>
      <trkpt lat="37.18875" lon="-8.72718">
        <ele>55.89</ele>
        <time>2021-01-24T11:55:28Z</time>
      </trkpt>
      <trkpt lat="37.1887" lon="-8.72717">
        <ele>55.89</ele>
        <time>2021-01-24T11:55:29Z</time>
      </trkpt>
      <trkpt lat="37.18865" lon="-8.72716">
        <ele>55.89</ele>
        <time>2021-01-24T11:55:30Z</time>
      </trkpt>
      <trkpt lat="37.1886" lon="-8.72714">
        <ele>55.41</ele>
        <time>2021-01-24T11:55:31Z</time>
      </trkpt>
      <trkpt lat="37.18855" lon="-8.72712">
        <ele>55.41</ele>
        <time>2021-01-24T11:55:32Z</time>
      </trkpt>
      <trkpt lat="37.1885" lon="-8.7271">
        <ele>55.41</ele>
        <time>2021-01-24T11:55:33Z</time>
      </trkpt>
      <trkpt lat="37.18846" lon="-8.72707">
        <ele>54.93</ele>
        <time>2021-01-24T11:55:34Z</time>
      </trkpt>
      <trkpt lat="37.18814" lon="-8.72689">
        <ele>54.93</ele>
        <time>2021-01-24T11:55:42Z</time>
      </trkpt>
      <trkpt lat="37.1879" lon="-8.72677">
        <ele>54.45</ele>
        <time>2021-01-24T11:55:48Z</time>
      </trkpt>
      <trkpt lat="37.18785" lon="-8.72676">
        <ele>54.45</ele>
        <time>2021-01-24T11:55:49Z</time>
      </trkpt>
      <trkpt lat="37.18777" lon="-8.72674">
        <ele>54.45</ele>
        <time>2021-01-24T11:55:51Z</time>
      </trkpt>
      <trkpt lat="37.18741" lon="-8.72675">
        <ele>53.97</ele>
        <time>2021-01-24T11:55:59Z</time>
      </trkpt>
      <trkpt lat="37.18695" lon="-8.72681">
        <ele>53.49</ele>
        <time>2021-01-24T11:56:09Z</time>
      </trkpt>
      <trkpt lat="37.18648" lon="-8.72698">
        <ele>53.01</ele>
        <time>2021-01-24T11:56:19Z</time>
      </trkpt>
      <trkpt lat="37.18639" lon="-8.72702">
        <ele>53.01</ele>
        <time>2021-01-24T11:56:21Z</time>
      </trkpt>
      <trkpt lat="37.18592" lon="-8.72731">
        <ele>52.05</ele>
        <time>2021-01-24T11:56:32Z</time>
      </trkpt>
      <trkpt lat="37.18587" lon="-8.72733">
        <ele>52.05</ele>
        <time>2021-01-24T11:56:33Z</time>
      </trkpt>
      <trkpt lat="37.18583" lon="-8.72734">
        <ele>52.05</ele>
        <time>2021-01-24T11:56:34Z</time>
      </trkpt>
      <trkpt lat="37.18578" lon="-8.72735">
        <ele>52.05</ele>
        <time>2021-01-24T11:56:35Z</time>
      </trkpt>
      <trkpt lat="37.18573" lon="-8.72736">
        <ele>52.05</ele>
        <time>2021-01-24T11:56:36Z</time>
      </trkpt>
      <trkpt lat="37.18569" lon="-8.72736">
        <ele>52.05</ele>
        <time>2021-01-24T11:56:37Z</time>
      </trkpt>
      <trkpt lat="37.18527" lon="-8.7274">
        <ele>51.57</ele>
        <time>2021-01-24T11:56:46Z</time>
      </trkpt>
      <trkpt lat="37.18493" lon="-8.72748">
        <ele>51.09</ele>
        <time>2021-01-24T11:56:54Z</time>
      </trkpt>
      <trkpt lat="37.18476" lon="-8.72755">
        <ele>50.61</ele>
        <time>2021-01-24T11:56:58Z</time>
      </trkpt>
      <trkpt lat="37.18464" lon="-8.72763">
        <ele>49.65</ele>
        <time>2021-01-24T11:57:01Z</time>
      </trkpt>
      <trkpt lat="37.18456" lon="-8.7277">
        <ele>49.65</ele>
        <time>2021-01-24T11:57:03Z</time>
      </trkpt>
      <trkpt lat="37.18429" lon="-8.72809">
        <ele>49.65</ele>
        <time>2021-01-24T11:57:12Z</time>
      </trkpt>
      <trkpt lat="37.18425" lon="-8.72811">
        <ele>49.16</ele>
        <time>2021-01-24T11:57:13Z</time>
      </trkpt>
      <trkpt lat="37.18422" lon="-8.72812">
        <ele>49.16</ele>
        <time>2021-01-24T11:57:14Z</time>
      </trkpt>
      <trkpt lat="37.18418" lon="-8.72813">
        <ele>49.16</ele>
        <time>2021-01-24T11:57:15Z</time>
      </trkpt>
      <trkpt lat="37.18415" lon="-8.72814">
        <ele>48.68</ele>
        <time>2021-01-24T11:57:16Z</time>
      </trkpt>
      <trkpt lat="37.18412" lon="-8.72815">
        <ele>48.68</ele>
        <time>2021-01-24T11:57:17Z</time>
      </trkpt>
      <trkpt lat="37.1841" lon="-8.72817">
        <ele>48.2</ele>
        <time>2021-01-24T11:57:18Z</time>
      </trkpt>
      <trkpt lat="37.18384" lon="-8.72832">
        <ele>48.68</ele>
        <time>2021-01-24T11:57:26Z</time>
      </trkpt>
      <trkpt lat="37.18353" lon="-8.72842">
        <ele>49.65</ele>
        <time>2021-01-24T11:57:34Z</time>
      </trkpt>
      <trkpt lat="37.18349" lon="-8.72844">
        <ele>49.65</ele>
        <time>2021-01-24T11:57:35Z</time>
      </trkpt>
      <trkpt lat="37.18305" lon="-8.7285">
        <ele>49.65</ele>
        <time>2021-01-24T11:57:45Z</time>
      </trkpt>
      <trkpt lat="37.18283" lon="-8.72844">
        <ele>49.65</ele>
        <time>2021-01-24T11:57:50Z</time>
      </trkpt>
      <trkpt lat="37.18245" lon="-8.72818">
        <ele>49.65</ele>
        <time>2021-01-24T11:57:59Z</time>
      </trkpt>
      <trkpt lat="37.18221" lon="-8.72783">
        <ele>48.2</ele>
        <time>2021-01-24T11:58:07Z</time>
      </trkpt>
      <trkpt lat="37.18193" lon="-8.72747">
        <ele>48.2</ele>
        <time>2021-01-24T11:58:16Z</time>
      </trkpt>
      <trkpt lat="37.18189" lon="-8.72744">
        <ele>48.2</ele>
        <time>2021-01-24T11:58:17Z</time>
      </trkpt>
      <trkpt lat="37.18186" lon="-8.72742">
        <ele>48.2</ele>
        <time>2021-01-24T11:58:18Z</time>
      </trkpt>
      <trkpt lat="37.18181" lon="-8.7274">
        <ele>48.2</ele>
        <time>2021-01-24T11:58:19Z</time>
      </trkpt>
      <trkpt lat="37.18177" lon="-8.72739">
        <ele>48.2</ele>
        <time>2021-01-24T11:58:20Z</time>
      </trkpt>
      <trkpt lat="37.18173" lon="-8.72738">
        <ele>48.2</ele>
        <time>2021-01-24T11:58:21Z</time>
      </trkpt>
      <trkpt lat="37.18124" lon="-8.72728">
        <ele>45.8</ele>
        <time>2021-01-24T11:58:31Z</time>
      </trkpt>
      <trkpt lat="37.181" lon="-8.72723">
        <ele>44.84</ele>
        <time>2021-01-24T11:58:36Z</time>
      </trkpt>
      <trkpt lat="37.18069" lon="-8.72712">
        <ele>44.84</ele>
        <time>2021-01-24T11:58:44Z</time>
      </trkpt>
      <trkpt lat="37.18041" lon="-8.72694">
        <ele>44.84</ele>
        <time>2021-01-24T11:58:52Z</time>
      </trkpt>
      <trkpt lat="37.1801" lon="-8.7267">
        <ele>44.84</ele>
        <time>2021-01-24T11:59:01Z</time>
      </trkpt>
      <trkpt lat="37.17992" lon="-8.72652">
        <ele>44.84</ele>
        <time>2021-01-24T11:59:07Z</time>
      </trkpt>
      <trkpt lat="37.17964" lon="-8.72636">
        <ele>44.84</ele>
        <time>2021-01-24T11:59:14Z</time>
      </trkpt>
      <trkpt lat="37.17923" lon="-8.72624">
        <ele>44.36</ele>
        <time>2021-01-24T11:59:23Z</time>
      </trkpt>
      <trkpt lat="37.17891" lon="-8.72614">
        <ele>43.88</ele>
        <time>2021-01-24T11:59:31Z</time>
      </trkpt>
      <trkpt lat="37.1788" lon="-8.72607">
        <ele>43.88</ele>
        <time>2021-01-24T11:59:34Z</time>
      </trkpt>
      <trkpt lat="37.17866" lon="-8.72593">
        <ele>43.88</ele>
        <time>2021-01-24T11:59:38Z</time>
      </trkpt>
      <trkpt lat="37.17838" lon="-8.72554">
        <ele>43.4</ele>
        <time>2021-01-24T11:59:48Z</time>
      </trkpt>
      <trkpt lat="37.17805" lon="-8.72523">
        <ele>43.4</ele>
        <time>2021-01-24T11:59:58Z</time>
      </trkpt>
      <trkpt lat="37.17777" lon="-8.72489">
        <ele>41.95</ele>
        <time>2021-01-24T12:00:07Z</time>
      </trkpt>
      <trkpt lat="37.1777" lon="-8.72482">
        <ele>41.95</ele>
        <time>2021-01-24T12:00:09Z</time>
      </trkpt>
      <trkpt lat="37.17768" lon="-8.72478">
        <ele>41.95</ele>
        <time>2021-01-24T12:00:10Z</time>
      </trkpt>
      <trkpt lat="37.17765" lon="-8.72474">
        <ele>41.95</ele>
        <time>2021-01-24T12:00:11Z</time>
      </trkpt>
      <trkpt lat="37.17762" lon="-8.72471">
        <ele>41.95</ele>
        <time>2021-01-24T12:00:12Z</time>
      </trkpt>
      <trkpt lat="37.17759" lon="-8.72468">
        <ele>41.47</ele>
        <time>2021-01-24T12:00:13Z</time>
      </trkpt>
      <trkpt lat="37.17756" lon="-8.72467">
        <ele>41.47</ele>
        <time>2021-01-24T12:00:14Z</time>
      </trkpt>
      <trkpt lat="37.17753" lon="-8.72466">
        <ele>41.47</ele>
        <time>2021-01-24T12:00:15Z</time>
      </trkpt>
      <trkpt lat="37.1775" lon="-8.72466">
        <ele>40.99</ele>
        <time>2021-01-24T12:00:16Z</time>
      </trkpt>
      <trkpt lat="37.17748" lon="-8.72466">
        <ele>40.99</ele>
        <time>2021-01-24T12:00:17Z</time>
      </trkpt>
      <trkpt lat="37.17746" lon="-8.72467">
        <ele>40.51</ele>
        <time>2021-01-24T12:00:18Z</time>
      </trkpt>
      <trkpt lat="37.17743" lon="-8.72468">
        <ele>40.51</ele>
        <time>2021-01-24T12:00:19Z</time>
      </trkpt>
      <trkpt lat="37.17741" lon="-8.72468">
        <ele>40.03</ele>
        <time>2021-01-24T12:00:20Z</time>
      </trkpt>
      <trkpt lat="37.1774" lon="-8.72469">
        <ele>40.03</ele>
        <time>2021-01-24T12:00:21Z</time>
      </trkpt>
      <trkpt lat="37.17738" lon="-8.7247">
        <ele>40.03</ele>
        <time>2021-01-24T12:00:22Z</time>
      </trkpt>
      <trkpt lat="37.17737" lon="-8.72471">
        <ele>40.03</ele>
        <time>2021-01-24T12:00:23Z</time>
      </trkpt>
      <trkpt lat="37.17735" lon="-8.72473">
        <ele>40.03</ele>
        <time>2021-01-24T12:00:24Z</time>
      </trkpt>
      <trkpt lat="37.17733" lon="-8.72473">
        <ele>40.03</ele>
        <time>2021-01-24T12:00:25Z</time>
      </trkpt>
      <trkpt lat="37.17731" lon="-8.72472">
        <ele>41.47</ele>
        <time>2021-01-24T12:00:26Z</time>
      </trkpt>
      <trkpt lat="37.17728" lon="-8.72471">
        <ele>41.47</ele>
        <time>2021-01-24T12:00:27Z</time>
      </trkpt>
      <trkpt lat="37.17725" lon="-8.72469">
        <ele>41.47</ele>
        <time>2021-01-24T12:00:28Z</time>
      </trkpt>
      <trkpt lat="37.17723" lon="-8.72468">
        <ele>41.95</ele>
        <time>2021-01-24T12:00:29Z</time>
      </trkpt>
      <trkpt lat="37.1772" lon="-8.72466">
        <ele>41.95</ele>
        <time>2021-01-24T12:00:30Z</time>
      </trkpt>
      <trkpt lat="37.17718" lon="-8.72465">
        <ele>41.95</ele>
        <time>2021-01-24T12:00:31Z</time>
      </trkpt>
      <trkpt lat="37.17715" lon="-8.72465">
        <ele>42.44</ele>
        <time>2021-01-24T12:00:32Z</time>
      </trkpt>
      <trkpt lat="37.17712" lon="-8.72465">
        <ele>42.44</ele>
        <time>2021-01-24T12:00:33Z</time>
      </trkpt>
      <trkpt lat="37.17679" lon="-8.72459">
        <ele>42.44</ele>
        <time>2021-01-24T12:00:43Z</time>
      </trkpt>
      <trkpt lat="37.17651" lon="-8.72436">
        <ele>42.44</ele>
        <time>2021-01-24T12:00:52Z</time>
      </trkpt>
      <trkpt lat="37.17638" lon="-8.72422">
        <ele>42.44</ele>
        <time>2021-01-24T12:00:56Z</time>
      </trkpt>
      <trkpt lat="37.17616" lon="-8.72394">
        <ele>40.99</ele>
        <time>2021-01-24T12:01:04Z</time>
      </trkpt>
      <trkpt lat="37.17611" lon="-8.72388">
        <ele>40.99</ele>
        <time>2021-01-24T12:01:06Z</time>
      </trkpt>
      <trkpt lat="37.17608" lon="-8.72387">
        <ele>40.99</ele>
        <time>2021-01-24T12:01:07Z</time>
      </trkpt>
      <trkpt lat="37.17605" lon="-8.72385">
        <ele>40.99</ele>
        <time>2021-01-24T12:01:08Z</time>
      </trkpt>
      <trkpt lat="37.17601" lon="-8.72384">
        <ele>40.99</ele>
        <time>2021-01-24T12:01:09Z</time>
      </trkpt>
      <trkpt lat="37.17598" lon="-8.72381">
        <ele>40.99</ele>
        <time>2021-01-24T12:01:10Z</time>
      </trkpt>
      <trkpt lat="37.1757" lon="-8.72368">
        <ele>40.99</ele>
        <time>2021-01-24T12:01:18Z</time>
      </trkpt>
      <trkpt lat="37.17542" lon="-8.72348">
        <ele>40.51</ele>
        <time>2021-01-24T12:01:26Z</time>
      </trkpt>
      <trkpt lat="37.17516" lon="-8.72326">
        <ele>40.51</ele>
        <time>2021-01-24T12:01:35Z</time>
      </trkpt>
      <trkpt lat="37.17506" lon="-8.72301">
        <ele>40.03</ele>
        <time>2021-01-24T12:01:42Z</time>
      </trkpt>
      <trkpt lat="37.17501" lon="-8.72271">
        <ele>40.03</ele>
        <time>2021-01-24T12:01:50Z</time>
      </trkpt>
      <trkpt lat="37.17488" lon="-8.72226">
        <ele>40.03</ele>
        <time>2021-01-24T12:02:00Z</time>
      </trkpt>
      <trkpt lat="37.17471" lon="-8.72187">
        <ele>40.03</ele>
        <time>2021-01-24T12:02:09Z</time>
      </trkpt>
      <trkpt lat="37.17459" lon="-8.72174">
        <ele>40.03</ele>
        <time>2021-01-24T12:02:13Z</time>
      </trkpt>
      <trkpt lat="37.17451" lon="-8.72168">
        <ele>40.03</ele>
        <time>2021-01-24T12:02:15Z</time>
      </trkpt>
      <trkpt lat="37.17448" lon="-8.72164">
        <ele>40.03</ele>
        <time>2021-01-24T12:02:16Z</time>
      </trkpt>
      <trkpt lat="37.17416" lon="-8.72124">
        <ele>40.03</ele>
        <time>2021-01-24T12:02:27Z</time>
      </trkpt>
      <trkpt lat="37.17401" lon="-8.72101">
        <ele>40.03</ele>
        <time>2021-01-24T12:02:34Z</time>
      </trkpt>
      <trkpt lat="37.17383" lon="-8.72091">
        <ele>40.03</ele>
        <time>2021-01-24T12:02:39Z</time>
      </trkpt>
      <trkpt lat="37.17373" lon="-8.72085">
        <ele>40.03</ele>
        <time>2021-01-24T12:02:42Z</time>
      </trkpt>
      <trkpt lat="37.17347" lon="-8.72068">
        <ele>40.03</ele>
        <time>2021-01-24T12:02:49Z</time>
      </trkpt>
      <trkpt lat="37.17321" lon="-8.72039">
        <ele>40.03</ele>
        <time>2021-01-24T12:02:58Z</time>
      </trkpt>
      <trkpt lat="37.17295" lon="-8.71999">
        <ele>40.03</ele>
        <time>2021-01-24T12:03:09Z</time>
      </trkpt>
      <trkpt lat="37.17276" lon="-8.71976">
        <ele>40.03</ele>
        <time>2021-01-24T12:03:16Z</time>
      </trkpt>
      <trkpt lat="37.17248" lon="-8.71954">
        <ele>40.03</ele>
        <time>2021-01-24T12:03:24Z</time>
      </trkpt>
      <trkpt lat="37.17228" lon="-8.71933">
        <ele>39.55</ele>
        <time>2021-01-24T12:03:31Z</time>
      </trkpt>
      <trkpt lat="37.17206" lon="-8.71917">
        <ele>39.55</ele>
        <time>2021-01-24T12:03:38Z</time>
      </trkpt>
      <trkpt lat="37.17179" lon="-8.71894">
        <ele>39.55</ele>
        <time>2021-01-24T12:03:47Z</time>
      </trkpt>
      <trkpt lat="37.17153" lon="-8.71878">
        <ele>39.55</ele>
        <time>2021-01-24T12:03:55Z</time>
      </trkpt>
      <trkpt lat="37.17133" lon="-8.71862">
        <ele>39.07</ele>
        <time>2021-01-24T12:04:01Z</time>
      </trkpt>
      <trkpt lat="37.17118" lon="-8.71852">
        <ele>39.07</ele>
        <time>2021-01-24T12:04:05Z</time>
      </trkpt>
      <trkpt lat="37.17111" lon="-8.71845">
        <ele>39.07</ele>
        <time>2021-01-24T12:04:07Z</time>
      </trkpt>
      <trkpt lat="37.17104" lon="-8.7184">
        <ele>38.59</ele>
        <time>2021-01-24T12:04:09Z</time>
      </trkpt>
      <trkpt lat="37.17101" lon="-8.71837">
        <ele>38.59</ele>
        <time>2021-01-24T12:04:10Z</time>
      </trkpt>
      <trkpt lat="37.17097" lon="-8.71835">
        <ele>38.59</ele>
        <time>2021-01-24T12:04:11Z</time>
      </trkpt>
      <trkpt lat="37.1707" lon="-8.71818">
        <ele>38.11</ele>
        <time>2021-01-24T12:04:18Z</time>
      </trkpt>
      <trkpt lat="37.17067" lon="-8.71815">
        <ele>38.11</ele>
        <time>2021-01-24T12:04:19Z</time>
      </trkpt>
      <trkpt lat="37.17064" lon="-8.7181">
        <ele>38.11</ele>
        <time>2021-01-24T12:04:20Z</time>
      </trkpt>
      <trkpt lat="37.17059" lon="-8.71787">
        <ele>38.11</ele>
        <time>2021-01-24T12:04:25Z</time>
      </trkpt>
      <trkpt lat="37.17059" lon="-8.71781">
        <ele>37.63</ele>
        <time>2021-01-24T12:04:26Z</time>
      </trkpt>
      <trkpt lat="37.17059" lon="-8.71776">
        <ele>37.63</ele>
        <time>2021-01-24T12:04:27Z</time>
      </trkpt>
      <trkpt lat="37.17058" lon="-8.7177">
        <ele>37.63</ele>
        <time>2021-01-24T12:04:28Z</time>
      </trkpt>
      <trkpt lat="37.17056" lon="-8.71765">
        <ele>37.63</ele>
        <time>2021-01-24T12:04:29Z</time>
      </trkpt>
      <trkpt lat="37.17054" lon="-8.7176">
        <ele>37.63</ele>
        <time>2021-01-24T12:04:30Z</time>
      </trkpt>
      <trkpt lat="37.17051" lon="-8.71756">
        <ele>37.63</ele>
        <time>2021-01-24T12:04:31Z</time>
      </trkpt>
      <trkpt lat="37.17048" lon="-8.71751">
        <ele>37.15</ele>
        <time>2021-01-24T12:04:32Z</time>
      </trkpt>
      <trkpt lat="37.1703" lon="-8.7172">
        <ele>37.15</ele>
        <time>2021-01-24T12:04:39Z</time>
      </trkpt>
      <trkpt lat="37.17028" lon="-8.71715">
        <ele>37.15</ele>
        <time>2021-01-24T12:04:40Z</time>
      </trkpt>
      <trkpt lat="37.17027" lon="-8.7171">
        <ele>37.15</ele>
        <time>2021-01-24T12:04:41Z</time>
      </trkpt>
      <trkpt lat="37.17027" lon="-8.71705">
        <ele>37.15</ele>
        <time>2021-01-24T12:04:42Z</time>
      </trkpt>
      <trkpt lat="37.17027" lon="-8.71699">
        <ele>37.15</ele>
        <time>2021-01-24T12:04:43Z</time>
      </trkpt>
      <trkpt lat="37.17028" lon="-8.71693">
        <ele>37.15</ele>
        <time>2021-01-24T12:04:44Z</time>
      </trkpt>
      <trkpt lat="37.17029" lon="-8.71687">
        <ele>36.19</ele>
        <time>2021-01-24T12:04:45Z</time>
      </trkpt>
      <trkpt lat="37.1703" lon="-8.71681">
        <ele>35.71</ele>
        <time>2021-01-24T12:04:46Z</time>
      </trkpt>
      <trkpt lat="37.1703" lon="-8.71673">
        <ele>34.74</ele>
        <time>2021-01-24T12:04:47Z</time>
      </trkpt>
      <trkpt lat="37.17028" lon="-8.71665">
        <ele>34.26</ele>
        <time>2021-01-24T12:04:48Z</time>
      </trkpt>
      <trkpt lat="37.17025" lon="-8.71658">
        <ele>34.26</ele>
        <time>2021-01-24T12:04:49Z</time>
      </trkpt>
      <trkpt lat="37.17021" lon="-8.71652">
        <ele>33.78</ele>
        <time>2021-01-24T12:04:50Z</time>
      </trkpt>
      <trkpt lat="37.17015" lon="-8.71647">
        <ele>33.78</ele>
        <time>2021-01-24T12:04:51Z</time>
      </trkpt>
      <trkpt lat="37.1701" lon="-8.71643">
        <ele>33.78</ele>
        <time>2021-01-24T12:04:52Z</time>
      </trkpt>
      <trkpt lat="37.17004" lon="-8.7164">
        <ele>33.78</ele>
        <time>2021-01-24T12:04:53Z</time>
      </trkpt>
      <trkpt lat="37.16999" lon="-8.71637">
        <ele>33.78</ele>
        <time>2021-01-24T12:04:54Z</time>
      </trkpt>
      <trkpt lat="37.16976" lon="-8.71618">
        <ele>33.78</ele>
        <time>2021-01-24T12:05:00Z</time>
      </trkpt>
      <trkpt lat="37.16948" lon="-8.71585">
        <ele>33.78</ele>
        <time>2021-01-24T12:05:10Z</time>
      </trkpt>
      <trkpt lat="37.16932" lon="-8.71562">
        <ele>33.78</ele>
        <time>2021-01-24T12:05:17Z</time>
      </trkpt>
      <trkpt lat="37.16915" lon="-8.71538">
        <ele>33.3</ele>
        <time>2021-01-24T12:05:23Z</time>
      </trkpt>
      <trkpt lat="37.16906" lon="-8.7152">
        <ele>33.3</ele>
        <time>2021-01-24T12:05:27Z</time>
      </trkpt>
      <trkpt lat="37.16903" lon="-8.71516">
        <ele>33.3</ele>
        <time>2021-01-24T12:05:28Z</time>
      </trkpt>
      <trkpt lat="37.16879" lon="-8.71496">
        <ele>33.3</ele>
        <time>2021-01-24T12:05:35Z</time>
      </trkpt>
      <trkpt lat="37.16838" lon="-8.71465">
        <ele>33.3</ele>
        <time>2021-01-24T12:05:46Z</time>
      </trkpt>
      <trkpt lat="37.16812" lon="-8.71441">
        <ele>33.3</ele>
        <time>2021-01-24T12:05:54Z</time>
      </trkpt>
      <trkpt lat="37.16803" lon="-8.71431">
        <ele>33.3</ele>
        <time>2021-01-24T12:05:57Z</time>
      </trkpt>
      <trkpt lat="37.168" lon="-8.71428">
        <ele>33.3</ele>
        <time>2021-01-24T12:05:58Z</time>
      </trkpt>
      <trkpt lat="37.16777" lon="-8.71411">
        <ele>32.82</ele>
        <time>2021-01-24T12:06:05Z</time>
      </trkpt>
      <trkpt lat="37.16754" lon="-8.71395">
        <ele>32.82</ele>
        <time>2021-01-24T12:06:12Z</time>
      </trkpt>
      <trkpt lat="37.16748" lon="-8.71376">
        <ele>32.82</ele>
        <time>2021-01-24T12:06:18Z</time>
      </trkpt>
      <trkpt lat="37.16759" lon="-8.71354">
        <ele>31.86</ele>
        <time>2021-01-24T12:06:26Z</time>
      </trkpt>
      <trkpt lat="37.16769" lon="-8.71343">
        <ele>31.86</ele>
        <time>2021-01-24T12:06:31Z</time>
      </trkpt>
      <trkpt lat="37.1676" lon="-8.71333">
        <ele>31.38</ele>
        <time>2021-01-24T12:06:36Z</time>
      </trkpt>
      <trkpt lat="37.1675" lon="-8.71328">
        <ele>29.94</ele>
        <time>2021-01-24T12:06:40Z</time>
      </trkpt>
      <trkpt lat="37.16735" lon="-8.71321">
        <ele>29.46</ele>
        <time>2021-01-24T12:06:48Z</time>
      </trkpt>
      <trkpt lat="37.16724" lon="-8.71313">
        <ele>31.86</ele>
        <time>2021-01-24T12:06:53Z</time>
      </trkpt>
      <trkpt lat="37.16722" lon="-8.71311">
        <ele>31.86</ele>
        <time>2021-01-24T12:06:54Z</time>
      </trkpt>
      <trkpt lat="37.16708" lon="-8.71301">
        <ele>31.86</ele>
        <time>2021-01-24T12:07:00Z</time>
      </trkpt>
      <trkpt lat="37.1669" lon="-8.713">
        <ele>31.86</ele>
        <time>2021-01-24T12:07:06Z</time>
      </trkpt>
      <trkpt lat="37.16669" lon="-8.71294">
        <ele>31.86</ele>
        <time>2021-01-24T12:07:13Z</time>
      </trkpt>
      <trkpt lat="37.16645" lon="-8.71287">
        <ele>31.86</ele>
        <time>2021-01-24T12:07:21Z</time>
      </trkpt>
      <trkpt lat="37.16619" lon="-8.71276">
        <ele>31.86</ele>
        <time>2021-01-24T12:07:29Z</time>
      </trkpt>
      <trkpt lat="37.16587" lon="-8.71263">
        <ele>31.86</ele>
        <time>2021-01-24T12:07:38Z</time>
      </trkpt>
      <trkpt lat="37.16565" lon="-8.71253">
        <ele>30.42</ele>
        <time>2021-01-24T12:07:45Z</time>
      </trkpt>
      <trkpt lat="37.16542" lon="-8.71241">
        <ele>29.94</ele>
        <time>2021-01-24T12:07:52Z</time>
      </trkpt>
      <trkpt lat="37.16522" lon="-8.71235">
        <ele>29.94</ele>
        <time>2021-01-24T12:07:58Z</time>
      </trkpt>
      <trkpt lat="37.16487" lon="-8.71222">
        <ele>29.94</ele>
        <time>2021-01-24T12:08:08Z</time>
      </trkpt>
      <trkpt lat="37.16454" lon="-8.71212">
        <ele>29.94</ele>
        <time>2021-01-24T12:08:18Z</time>
      </trkpt>
      <trkpt lat="37.16424" lon="-8.71207">
        <ele>29.94</ele>
        <time>2021-01-24T12:08:27Z</time>
      </trkpt>
      <trkpt lat="37.16412" lon="-8.71194">
        <ele>29.94</ele>
        <time>2021-01-24T12:08:32Z</time>
      </trkpt>
      <trkpt lat="37.1641" lon="-8.71182">
        <ele>31.38</ele>
        <time>2021-01-24T12:08:35Z</time>
      </trkpt>
      <trkpt lat="37.16406" lon="-8.7115">
        <ele>32.82</ele>
        <time>2021-01-24T12:08:44Z</time>
      </trkpt>
      <trkpt lat="37.16403" lon="-8.71128">
        <ele>32.82</ele>
        <time>2021-01-24T12:08:50Z</time>
      </trkpt>
      <trkpt lat="37.16395" lon="-8.71134">
        <ele>32.82</ele>
        <time>2021-01-24T12:08:55Z</time>
      </trkpt>
      <trkpt lat="37.16393" lon="-8.71141">
        <ele>32.34</ele>
        <time>2021-01-24T12:08:57Z</time>
      </trkpt>
      <trkpt lat="37.16372" lon="-8.7116">
        <ele>32.34</ele>
        <time>2021-01-24T12:09:05Z</time>
      </trkpt>
      <trkpt lat="37.16353" lon="-8.7116">
        <ele>30.9</ele>
        <time>2021-01-24T12:09:11Z</time>
      </trkpt>
      <trkpt lat="37.16348" lon="-8.71161">
        <ele>30.9</ele>
        <time>2021-01-24T12:09:13Z</time>
      </trkpt>
      <trkpt lat="37.16343" lon="-8.71171">
        <ele>29.94</ele>
        <time>2021-01-24T12:09:17Z</time>
      </trkpt>
      <trkpt lat="37.16333" lon="-8.71168">
        <ele>29.94</ele>
        <time>2021-01-24T12:09:24Z</time>
      </trkpt>
      <trkpt lat="37.16316" lon="-8.71159">
        <ele>29.94</ele>
        <time>2021-01-24T12:09:32Z</time>
      </trkpt>
      <trkpt lat="37.16292" lon="-8.71145">
        <ele>29.94</ele>
        <time>2021-01-24T12:09:42Z</time>
      </trkpt>
      <trkpt lat="37.16272" lon="-8.7113">
        <ele>31.86</ele>
        <time>2021-01-24T12:09:51Z</time>
      </trkpt>
      <trkpt lat="37.16256" lon="-8.71112">
        <ele>32.82</ele>
        <time>2021-01-24T12:09:59Z</time>
      </trkpt>
      <trkpt lat="37.16252" lon="-8.71096">
        <ele>33.78</ele>
        <time>2021-01-24T12:10:05Z</time>
      </trkpt>
      <trkpt lat="37.16259" lon="-8.7107">
        <ele>30.42</ele>
        <time>2021-01-24T12:10:13Z</time>
      </trkpt>
      <trkpt lat="37.16261" lon="-8.71067">
        <ele>34.26</ele>
        <time>2021-01-24T12:10:14Z</time>
      </trkpt>
      <trkpt lat="37.16262" lon="-8.71064">
        <ele>37.63</ele>
        <time>2021-01-24T12:10:15Z</time>
      </trkpt>
      <trkpt lat="37.16264" lon="-8.71061">
        <ele>35.23</ele>
        <time>2021-01-24T12:10:16Z</time>
      </trkpt>
      <trkpt lat="37.1628" lon="-8.71031">
        <ele>35.23</ele>
        <time>2021-01-24T12:10:26Z</time>
      </trkpt>
      <trkpt lat="37.16288" lon="-8.71021">
        <ele>36.19</ele>
        <time>2021-01-24T12:10:30Z</time>
      </trkpt>
      <trkpt lat="37.16311" lon="-8.70994">
        <ele>38.11</ele>
        <time>2021-01-24T12:10:41Z</time>
      </trkpt>
      <trkpt lat="37.16336" lon="-8.70968">
        <ele>40.03</ele>
        <time>2021-01-24T12:10:53Z</time>
      </trkpt>
      <trkpt lat="37.16355" lon="-8.7094">
        <ele>41.95</ele>
        <time>2021-01-24T12:11:03Z</time>
      </trkpt>
      <trkpt lat="37.16371" lon="-8.70912">
        <ele>43.88</ele>
        <time>2021-01-24T12:11:13Z</time>
      </trkpt>
      <trkpt lat="37.16391" lon="-8.70885">
        <ele>44.84</ele>
        <time>2021-01-24T12:11:23Z</time>
      </trkpt>
      <trkpt lat="37.1641" lon="-8.70864">
        <ele>45.8</ele>
        <time>2021-01-24T12:11:32Z</time>
      </trkpt>
      <trkpt lat="37.16434" lon="-8.70827">
        <ele>47.72</ele>
        <time>2021-01-24T12:11:45Z</time>
      </trkpt>
      <trkpt lat="37.16455" lon="-8.70795">
        <ele>49.16</ele>
        <time>2021-01-24T12:11:57Z</time>
      </trkpt>
      <trkpt lat="37.1648" lon="-8.70766">
        <ele>51.09</ele>
        <time>2021-01-24T12:12:09Z</time>
      </trkpt>
      <trkpt lat="37.16494" lon="-8.7074">
        <ele>53.49</ele>
        <time>2021-01-24T12:12:18Z</time>
      </trkpt>
      <trkpt lat="37.16504" lon="-8.70716">
        <ele>55.41</ele>
        <time>2021-01-24T12:12:27Z</time>
      </trkpt>
      <trkpt lat="37.16516" lon="-8.70697">
        <ele>57.34</ele>
        <time>2021-01-24T12:12:35Z</time>
      </trkpt>
      <trkpt lat="37.16535" lon="-8.70682">
        <ele>57.34</ele>
        <time>2021-01-24T12:12:44Z</time>
      </trkpt>
      <trkpt lat="37.16551" lon="-8.70662">
        <ele>57.82</ele>
        <time>2021-01-24T12:12:53Z</time>
      </trkpt>
      <trkpt lat="37.16552" lon="-8.70649">
        <ele>58.78</ele>
        <time>2021-01-24T12:12:58Z</time>
      </trkpt>
      <trkpt lat="37.1655" lon="-8.70646">
        <ele>58.78</ele>
        <time>2021-01-24T12:12:59Z</time>
      </trkpt>
      <trkpt lat="37.16548" lon="-8.70644">
        <ele>58.78</ele>
        <time>2021-01-24T12:13:00Z</time>
      </trkpt>
      <trkpt lat="37.16545" lon="-8.70643">
        <ele>58.78</ele>
        <time>2021-01-24T12:13:01Z</time>
      </trkpt>
      <trkpt lat="37.16542" lon="-8.70642">
        <ele>58.78</ele>
        <time>2021-01-24T12:13:02Z</time>
      </trkpt>
      <trkpt lat="37.16539" lon="-8.70642">
        <ele>58.78</ele>
        <time>2021-01-24T12:13:03Z</time>
      </trkpt>
      <trkpt lat="37.16536" lon="-8.70641">
        <ele>58.78</ele>
        <time>2021-01-24T12:13:04Z</time>
      </trkpt>
      <trkpt lat="37.16514" lon="-8.70633">
        <ele>61.18</ele>
        <time>2021-01-24T12:13:12Z</time>
      </trkpt>
      <trkpt lat="37.16489" lon="-8.7063">
        <ele>64.55</ele>
        <time>2021-01-24T12:13:21Z</time>
      </trkpt>
      <trkpt lat="37.16466" lon="-8.70631">
        <ele>68.39</ele>
        <time>2021-01-24T12:13:29Z</time>
      </trkpt>
      <trkpt lat="37.16442" lon="-8.70633">
        <ele>71.27</ele>
        <time>2021-01-24T12:13:38Z</time>
      </trkpt>
      <trkpt lat="37.1641" lon="-8.70631">
        <ele>74.16</ele>
        <time>2021-01-24T12:13:49Z</time>
      </trkpt>
      <trkpt lat="37.16387" lon="-8.70618">
        <ele>77.52</ele>
        <time>2021-01-24T12:13:58Z</time>
      </trkpt>
      <trkpt lat="37.16364" lon="-8.70597">
        <ele>80.89</ele>
        <time>2021-01-24T12:14:08Z</time>
      </trkpt>
      <trkpt lat="37.16339" lon="-8.70572">
        <ele>82.81</ele>
        <time>2021-01-24T12:14:18Z</time>
      </trkpt>
      <trkpt lat="37.1631" lon="-8.70545">
        <ele>83.29</ele>
        <time>2021-01-24T12:14:28Z</time>
      </trkpt>
      <trkpt lat="37.16275" lon="-8.70513">
        <ele>81.85</ele>
        <time>2021-01-24T12:14:39Z</time>
      </trkpt>
      <trkpt lat="37.16271" lon="-8.70509">
        <ele>81.85</ele>
        <time>2021-01-24T12:14:40Z</time>
      </trkpt>
      <trkpt lat="37.16245" lon="-8.70486">
        <ele>78.97</ele>
        <time>2021-01-24T12:14:45Z</time>
      </trkpt>
      <trkpt lat="37.16207" lon="-8.7045">
        <ele>75.6</ele>
        <time>2021-01-24T12:14:51Z</time>
      </trkpt>
      <trkpt lat="37.16202" lon="-8.70443">
        <ele>75.6</ele>
        <time>2021-01-24T12:14:52Z</time>
      </trkpt>
      <trkpt lat="37.16197" lon="-8.70435">
        <ele>75.6</ele>
        <time>2021-01-24T12:14:53Z</time>
      </trkpt>
      <trkpt lat="37.16194" lon="-8.70426">
        <ele>75.6</ele>
        <time>2021-01-24T12:14:54Z</time>
      </trkpt>
      <trkpt lat="37.16192" lon="-8.70419">
        <ele>75.6</ele>
        <time>2021-01-24T12:14:55Z</time>
      </trkpt>
      <trkpt lat="37.1619" lon="-8.70412">
        <ele>75.6</ele>
        <time>2021-01-24T12:14:56Z</time>
      </trkpt>
      <trkpt lat="37.16182" lon="-8.70377">
        <ele>77.52</ele>
        <time>2021-01-24T12:15:02Z</time>
      </trkpt>
      <trkpt lat="37.16164" lon="-8.70321">
        <ele>78.97</ele>
        <time>2021-01-24T12:15:14Z</time>
      </trkpt>
      <trkpt lat="37.16142" lon="-8.70278">
        <ele>79.45</ele>
        <time>2021-01-24T12:15:24Z</time>
      </trkpt>
      <trkpt lat="37.16111" lon="-8.7024">
        <ele>79.45</ele>
        <time>2021-01-24T12:15:34Z</time>
      </trkpt>
      <trkpt lat="37.16077" lon="-8.70202">
        <ele>79.45</ele>
        <time>2021-01-24T12:15:44Z</time>
      </trkpt>
      <trkpt lat="37.16062" lon="-8.70183">
        <ele>78</ele>
        <time>2021-01-24T12:15:48Z</time>
      </trkpt>
      <trkpt lat="37.16028" lon="-8.70145">
        <ele>77.52</ele>
        <time>2021-01-24T12:15:56Z</time>
      </trkpt>
      <trkpt lat="37.16004" lon="-8.70113">
        <ele>78.97</ele>
        <time>2021-01-24T12:16:04Z</time>
      </trkpt>
      <trkpt lat="37.15977" lon="-8.70078">
        <ele>79.93</ele>
        <time>2021-01-24T12:16:14Z</time>
      </trkpt>
      <trkpt lat="37.15947" lon="-8.70038">
        <ele>80.41</ele>
        <time>2021-01-24T12:16:24Z</time>
      </trkpt>
      <trkpt lat="37.15921" lon="-8.70011">
        <ele>76.56</ele>
        <time>2021-01-24T12:16:29Z</time>
      </trkpt>
      <trkpt lat="37.15884" lon="-8.69988">
        <ele>73.68</ele>
        <time>2021-01-24T12:16:34Z</time>
      </trkpt>
      <trkpt lat="37.15855" lon="-8.69978">
        <ele>73.68</ele>
        <time>2021-01-24T12:16:38Z</time>
      </trkpt>
      <trkpt lat="37.15848" lon="-8.69978">
        <ele>73.68</ele>
        <time>2021-01-24T12:16:39Z</time>
      </trkpt>
      <trkpt lat="37.15836" lon="-8.69979">
        <ele>73.68</ele>
        <time>2021-01-24T12:16:41Z</time>
      </trkpt>
      <trkpt lat="37.15821" lon="-8.69983">
        <ele>75.12</ele>
        <time>2021-01-24T12:16:44Z</time>
      </trkpt>
      <trkpt lat="37.15773" lon="-8.69998">
        <ele>77.04</ele>
        <time>2021-01-24T12:16:55Z</time>
      </trkpt>
      <trkpt lat="37.15716" lon="-8.70016">
        <ele>77.52</ele>
        <time>2021-01-24T12:17:08Z</time>
      </trkpt>
      <trkpt lat="37.15711" lon="-8.70017">
        <ele>77.52</ele>
        <time>2021-01-24T12:17:09Z</time>
      </trkpt>
      <trkpt lat="37.15707" lon="-8.70018">
        <ele>77.52</ele>
        <time>2021-01-24T12:17:10Z</time>
      </trkpt>
      <trkpt lat="37.15703" lon="-8.7002">
        <ele>77.52</ele>
        <time>2021-01-24T12:17:11Z</time>
      </trkpt>
      <trkpt lat="37.15695" lon="-8.70025">
        <ele>77.52</ele>
        <time>2021-01-24T12:17:13Z</time>
      </trkpt>
      <trkpt lat="37.15691" lon="-8.70026">
        <ele>77.52</ele>
        <time>2021-01-24T12:17:14Z</time>
      </trkpt>
      <trkpt lat="37.15679" lon="-8.70027">
        <ele>77.52</ele>
        <time>2021-01-24T12:17:17Z</time>
      </trkpt>
      <trkpt lat="37.15674" lon="-8.70028">
        <ele>77.52</ele>
        <time>2021-01-24T12:17:18Z</time>
      </trkpt>
      <trkpt lat="37.15671" lon="-8.7003">
        <ele>77.52</ele>
        <time>2021-01-24T12:17:19Z</time>
      </trkpt>
      <trkpt lat="37.15667" lon="-8.70031">
        <ele>76.08</ele>
        <time>2021-01-24T12:17:20Z</time>
      </trkpt>
      <trkpt lat="37.15663" lon="-8.70032">
        <ele>76.08</ele>
        <time>2021-01-24T12:17:21Z</time>
      </trkpt>
      <trkpt lat="37.15659" lon="-8.70033">
        <ele>75.12</ele>
        <time>2021-01-24T12:17:22Z</time>
      </trkpt>
      <trkpt lat="37.15646" lon="-8.70032">
        <ele>75.12</ele>
        <time>2021-01-24T12:17:27Z</time>
      </trkpt>
      <trkpt lat="37.15632" lon="-8.70029">
        <ele>72.72</ele>
        <time>2021-01-24T12:17:33Z</time>
      </trkpt>
      <trkpt lat="37.15617" lon="-8.70024">
        <ele>70.31</ele>
        <time>2021-01-24T12:17:39Z</time>
      </trkpt>
      <trkpt lat="37.15604" lon="-8.7002">
        <ele>68.39</ele>
        <time>2021-01-24T12:17:45Z</time>
      </trkpt>
      <trkpt lat="37.1559" lon="-8.70008">
        <ele>65.99</ele>
        <time>2021-01-24T12:17:51Z</time>
      </trkpt>
      <trkpt lat="37.1558" lon="-8.69991">
        <ele>64.07</ele>
        <time>2021-01-24T12:17:55Z</time>
      </trkpt>
      <trkpt lat="37.15577" lon="-8.69985">
        <ele>63.1</ele>
        <time>2021-01-24T12:17:56Z</time>
      </trkpt>
      <trkpt lat="37.15574" lon="-8.6998">
        <ele>63.1</ele>
        <time>2021-01-24T12:17:57Z</time>
      </trkpt>
      <trkpt lat="37.15569" lon="-8.69967">
        <ele>62.14</ele>
        <time>2021-01-24T12:17:59Z</time>
      </trkpt>
      <trkpt lat="37.15568" lon="-8.69961">
        <ele>62.14</ele>
        <time>2021-01-24T12:18:00Z</time>
      </trkpt>
      <trkpt lat="37.15565" lon="-8.69955">
        <ele>62.14</ele>
        <time>2021-01-24T12:18:01Z</time>
      </trkpt>
      <trkpt lat="37.15562" lon="-8.69949">
        <ele>61.66</ele>
        <time>2021-01-24T12:18:02Z</time>
      </trkpt>
      <trkpt lat="37.15559" lon="-8.69945">
        <ele>61.66</ele>
        <time>2021-01-24T12:18:03Z</time>
      </trkpt>
      <trkpt lat="37.15557" lon="-8.69941">
        <ele>61.66</ele>
        <time>2021-01-24T12:18:04Z</time>
      </trkpt>
      <trkpt lat="37.15544" lon="-8.69924">
        <ele>63.1</ele>
        <time>2021-01-24T12:18:10Z</time>
      </trkpt>
      <trkpt lat="37.15524" lon="-8.6991">
        <ele>65.03</ele>
        <time>2021-01-24T12:18:18Z</time>
      </trkpt>
      <trkpt lat="37.15499" lon="-8.69897">
        <ele>65.51</ele>
        <time>2021-01-24T12:18:28Z</time>
      </trkpt>
      <trkpt lat="37.15477" lon="-8.69886">
        <ele>65.51</ele>
        <time>2021-01-24T12:18:36Z</time>
      </trkpt>
      <trkpt lat="37.15459" lon="-8.69876">
        <ele>67.43</ele>
        <time>2021-01-24T12:18:43Z</time>
      </trkpt>
      <trkpt lat="37.15441" lon="-8.69864">
        <ele>68.87</ele>
        <time>2021-01-24T12:18:51Z</time>
      </trkpt>
      <trkpt lat="37.1543" lon="-8.69844">
        <ele>69.83</ele>
        <time>2021-01-24T12:18:59Z</time>
      </trkpt>
      <trkpt lat="37.15427" lon="-8.69826">
        <ele>71.27</ele>
        <time>2021-01-24T12:19:05Z</time>
      </trkpt>
      <trkpt lat="37.15432" lon="-8.69798">
        <ele>73.68</ele>
        <time>2021-01-24T12:19:14Z</time>
      </trkpt>
      <trkpt lat="37.15439" lon="-8.69778">
        <ele>74.64</ele>
        <time>2021-01-24T12:19:22Z</time>
      </trkpt>
      <trkpt lat="37.15451" lon="-8.69754">
        <ele>74.64</ele>
        <time>2021-01-24T12:19:30Z</time>
      </trkpt>
      <trkpt lat="37.15463" lon="-8.69731">
        <ele>73.2</ele>
        <time>2021-01-24T12:19:37Z</time>
      </trkpt>
      <trkpt lat="37.15475" lon="-8.69706">
        <ele>71.76</ele>
        <time>2021-01-24T12:19:44Z</time>
      </trkpt>
      <trkpt lat="37.15487" lon="-8.69683">
        <ele>70.31</ele>
        <time>2021-01-24T12:19:51Z</time>
      </trkpt>
      <trkpt lat="37.155" lon="-8.6966">
        <ele>67.91</ele>
        <time>2021-01-24T12:19:58Z</time>
      </trkpt>
      <trkpt lat="37.15509" lon="-8.69643">
        <ele>66.95</ele>
        <time>2021-01-24T12:20:04Z</time>
      </trkpt>
      <trkpt lat="37.15521" lon="-8.69624">
        <ele>65.03</ele>
        <time>2021-01-24T12:20:11Z</time>
      </trkpt>
      <trkpt lat="37.15536" lon="-8.69607">
        <ele>62.62</ele>
        <time>2021-01-24T12:20:19Z</time>
      </trkpt>
      <trkpt lat="37.15551" lon="-8.696">
        <ele>59.74</ele>
        <time>2021-01-24T12:20:25Z</time>
      </trkpt>
      <trkpt lat="37.15572" lon="-8.69601">
        <ele>58.3</ele>
        <time>2021-01-24T12:20:31Z</time>
      </trkpt>
      <trkpt lat="37.15586" lon="-8.696">
        <ele>57.82</ele>
        <time>2021-01-24T12:20:36Z</time>
      </trkpt>
      <trkpt lat="37.1561" lon="-8.69595">
        <ele>57.82</ele>
        <time>2021-01-24T12:20:44Z</time>
      </trkpt>
      <trkpt lat="37.15621" lon="-8.6959">
        <ele>57.82</ele>
        <time>2021-01-24T12:20:48Z</time>
      </trkpt>
      <trkpt lat="37.15624" lon="-8.69588">
        <ele>57.82</ele>
        <time>2021-01-24T12:20:49Z</time>
      </trkpt>
      <trkpt lat="37.15627" lon="-8.69586">
        <ele>57.82</ele>
        <time>2021-01-24T12:20:50Z</time>
      </trkpt>
      <trkpt lat="37.15629" lon="-8.69584">
        <ele>57.82</ele>
        <time>2021-01-24T12:20:51Z</time>
      </trkpt>
      <trkpt lat="37.15632" lon="-8.69582">
        <ele>57.82</ele>
        <time>2021-01-24T12:20:52Z</time>
      </trkpt>
      <trkpt lat="37.15634" lon="-8.69579">
        <ele>57.82</ele>
        <time>2021-01-24T12:20:53Z</time>
      </trkpt>
      <trkpt lat="37.15651" lon="-8.69561">
        <ele>58.78</ele>
        <time>2021-01-24T12:21:00Z</time>
      </trkpt>
      <trkpt lat="37.15669" lon="-8.69534">
        <ele>58.78</ele>
        <time>2021-01-24T12:21:08Z</time>
      </trkpt>
      <trkpt lat="37.15674" lon="-8.69525">
        <ele>57.34</ele>
        <time>2021-01-24T12:21:10Z</time>
      </trkpt>
      <trkpt lat="37.15676" lon="-8.69521">
        <ele>56.86</ele>
        <time>2021-01-24T12:21:11Z</time>
      </trkpt>
      <trkpt lat="37.15678" lon="-8.69515">
        <ele>56.37</ele>
        <time>2021-01-24T12:21:12Z</time>
      </trkpt>
      <trkpt lat="37.15679" lon="-8.69509">
        <ele>55.89</ele>
        <time>2021-01-24T12:21:13Z</time>
      </trkpt>
      <trkpt lat="37.1568" lon="-8.69502">
        <ele>54.93</ele>
        <time>2021-01-24T12:21:14Z</time>
      </trkpt>
      <trkpt lat="37.1568" lon="-8.69496">
        <ele>53.97</ele>
        <time>2021-01-24T12:21:15Z</time>
      </trkpt>
      <trkpt lat="37.15684" lon="-8.69466">
        <ele>52.05</ele>
        <time>2021-01-24T12:21:19Z</time>
      </trkpt>
      <trkpt lat="37.15685" lon="-8.69446">
        <ele>51.09</ele>
        <time>2021-01-24T12:21:22Z</time>
      </trkpt>
      <trkpt lat="37.15687" lon="-8.69434">
        <ele>50.61</ele>
        <time>2021-01-24T12:21:24Z</time>
      </trkpt>
      <trkpt lat="37.15685" lon="-8.69414">
        <ele>50.61</ele>
        <time>2021-01-24T12:21:28Z</time>
      </trkpt>
      <trkpt lat="37.15683" lon="-8.69411">
        <ele>50.61</ele>
        <time>2021-01-24T12:21:29Z</time>
      </trkpt>
      <trkpt lat="37.1568" lon="-8.69409">
        <ele>50.61</ele>
        <time>2021-01-24T12:21:30Z</time>
      </trkpt>
      <trkpt lat="37.15676" lon="-8.69407">
        <ele>50.61</ele>
        <time>2021-01-24T12:21:31Z</time>
      </trkpt>
      <trkpt lat="37.15671" lon="-8.69406">
        <ele>50.61</ele>
        <time>2021-01-24T12:21:32Z</time>
      </trkpt>
      <trkpt lat="37.15667" lon="-8.69405">
        <ele>50.61</ele>
        <time>2021-01-24T12:21:33Z</time>
      </trkpt>
      <trkpt lat="37.15663" lon="-8.69405">
        <ele>50.61</ele>
        <time>2021-01-24T12:21:34Z</time>
      </trkpt>
      <trkpt lat="37.15659" lon="-8.69404">
        <ele>50.61</ele>
        <time>2021-01-24T12:21:35Z</time>
      </trkpt>
      <trkpt lat="37.15613" lon="-8.69393">
        <ele>49.65</ele>
        <time>2021-01-24T12:21:45Z</time>
      </trkpt>
      <trkpt lat="37.156" lon="-8.69388">
        <ele>49.65</ele>
        <time>2021-01-24T12:21:48Z</time>
      </trkpt>
      <trkpt lat="37.15562" lon="-8.69375">
        <ele>48.2</ele>
        <time>2021-01-24T12:21:56Z</time>
      </trkpt>
      <trkpt lat="37.15519" lon="-8.69374">
        <ele>48.2</ele>
        <time>2021-01-24T12:22:06Z</time>
      </trkpt>
      <trkpt lat="37.15507" lon="-8.69374">
        <ele>48.2</ele>
        <time>2021-01-24T12:22:09Z</time>
      </trkpt>
      <trkpt lat="37.15502" lon="-8.69373">
        <ele>48.2</ele>
        <time>2021-01-24T12:22:10Z</time>
      </trkpt>
      <trkpt lat="37.15498" lon="-8.69371">
        <ele>48.2</ele>
        <time>2021-01-24T12:22:11Z</time>
      </trkpt>
      <trkpt lat="37.15495" lon="-8.69369">
        <ele>48.2</ele>
        <time>2021-01-24T12:22:12Z</time>
      </trkpt>
      <trkpt lat="37.15491" lon="-8.69366">
        <ele>48.2</ele>
        <time>2021-01-24T12:22:13Z</time>
      </trkpt>
      <trkpt lat="37.15461" lon="-8.69341">
        <ele>48.2</ele>
        <time>2021-01-24T12:22:21Z</time>
      </trkpt>
      <trkpt lat="37.15452" lon="-8.69339">
        <ele>48.2</ele>
        <time>2021-01-24T12:22:23Z</time>
      </trkpt>
      <trkpt lat="37.15448" lon="-8.69339">
        <ele>48.2</ele>
        <time>2021-01-24T12:22:24Z</time>
      </trkpt>
      <trkpt lat="37.15412" lon="-8.6933">
        <ele>45.8</ele>
        <time>2021-01-24T12:22:30Z</time>
      </trkpt>
      <trkpt lat="37.15378" lon="-8.69307">
        <ele>44.84</ele>
        <time>2021-01-24T12:22:36Z</time>
      </trkpt>
      <trkpt lat="37.15372" lon="-8.69302">
        <ele>44.84</ele>
        <time>2021-01-24T12:22:37Z</time>
      </trkpt>
      <trkpt lat="37.15329" lon="-8.69263">
        <ele>43.88</ele>
        <time>2021-01-24T12:22:46Z</time>
      </trkpt>
      <trkpt lat="37.15286" lon="-8.69229">
        <ele>43.4</ele>
        <time>2021-01-24T12:22:56Z</time>
      </trkpt>
      <trkpt lat="37.15247" lon="-8.69191">
        <ele>42.92</ele>
        <time>2021-01-24T12:23:06Z</time>
      </trkpt>
      <trkpt lat="37.15213" lon="-8.69171">
        <ele>42.44</ele>
        <time>2021-01-24T12:23:14Z</time>
      </trkpt>
      <trkpt lat="37.15191" lon="-8.69161">
        <ele>42.44</ele>
        <time>2021-01-24T12:23:20Z</time>
      </trkpt>
      <trkpt lat="37.15173" lon="-8.69145">
        <ele>41.95</ele>
        <time>2021-01-24T12:23:27Z</time>
      </trkpt>
      <trkpt lat="37.15148" lon="-8.69113">
        <ele>41.95</ele>
        <time>2021-01-24T12:23:36Z</time>
      </trkpt>
      <trkpt lat="37.15144" lon="-8.69109">
        <ele>41.95</ele>
        <time>2021-01-24T12:23:37Z</time>
      </trkpt>
      <trkpt lat="37.1514" lon="-8.69107">
        <ele>41.95</ele>
        <time>2021-01-24T12:23:38Z</time>
      </trkpt>
      <trkpt lat="37.15136" lon="-8.69105">
        <ele>41.47</ele>
        <time>2021-01-24T12:23:39Z</time>
      </trkpt>
      <trkpt lat="37.15131" lon="-8.69104">
        <ele>41.47</ele>
        <time>2021-01-24T12:23:40Z</time>
      </trkpt>
      <trkpt lat="37.15127" lon="-8.69102">
        <ele>41.47</ele>
        <time>2021-01-24T12:23:41Z</time>
      </trkpt>
      <trkpt lat="37.15123" lon="-8.69099">
        <ele>41.47</ele>
        <time>2021-01-24T12:23:42Z</time>
      </trkpt>
      <trkpt lat="37.1512" lon="-8.69095">
        <ele>41.47</ele>
        <time>2021-01-24T12:23:43Z</time>
      </trkpt>
      <trkpt lat="37.15117" lon="-8.69091">
        <ele>41.47</ele>
        <time>2021-01-24T12:23:44Z</time>
      </trkpt>
      <trkpt lat="37.15114" lon="-8.69087">
        <ele>41.47</ele>
        <time>2021-01-24T12:23:45Z</time>
      </trkpt>
      <trkpt lat="37.15093" lon="-8.69059">
        <ele>42.44</ele>
        <time>2021-01-24T12:23:53Z</time>
      </trkpt>
      <trkpt lat="37.15071" lon="-8.69039">
        <ele>42.44</ele>
        <time>2021-01-24T12:24:00Z</time>
      </trkpt>
      <trkpt lat="37.15041" lon="-8.69001">
        <ele>42.44</ele>
        <time>2021-01-24T12:24:11Z</time>
      </trkpt>
      <trkpt lat="37.15018" lon="-8.68974">
        <ele>44.36</ele>
        <time>2021-01-24T12:24:20Z</time>
      </trkpt>
      <trkpt lat="37.15002" lon="-8.68959">
        <ele>47.72</ele>
        <time>2021-01-24T12:24:26Z</time>
      </trkpt>
      <trkpt lat="37.14989" lon="-8.68943">
        <ele>50.61</ele>
        <time>2021-01-24T12:24:32Z</time>
      </trkpt>
      <trkpt lat="37.1497" lon="-8.68923">
        <ele>53.97</ele>
        <time>2021-01-24T12:24:40Z</time>
      </trkpt>
      <trkpt lat="37.14963" lon="-8.68918">
        <ele>55.41</ele>
        <time>2021-01-24T12:24:43Z</time>
      </trkpt>
      <trkpt lat="37.14959" lon="-8.68921">
        <ele>56.37</ele>
        <time>2021-01-24T12:24:45Z</time>
      </trkpt>
      <trkpt lat="37.14958" lon="-8.68924">
        <ele>56.37</ele>
        <time>2021-01-24T12:24:46Z</time>
      </trkpt>
      <trkpt lat="37.14958" lon="-8.68927">
        <ele>56.37</ele>
        <time>2021-01-24T12:24:47Z</time>
      </trkpt>
      <trkpt lat="37.14958" lon="-8.68931">
        <ele>56.37</ele>
        <time>2021-01-24T12:24:48Z</time>
      </trkpt>
      <trkpt lat="37.14953" lon="-8.68964">
        <ele>58.3</ele>
        <time>2021-01-24T12:24:58Z</time>
      </trkpt>
      <trkpt lat="37.14946" lon="-8.69004">
        <ele>61.18</ele>
        <time>2021-01-24T12:25:10Z</time>
      </trkpt>
      <trkpt lat="37.14945" lon="-8.69036">
        <ele>62.14</ele>
        <time>2021-01-24T12:25:19Z</time>
      </trkpt>
      <trkpt lat="37.14944" lon="-8.69042">
        <ele>62.14</ele>
        <time>2021-01-24T12:25:20Z</time>
      </trkpt>
      <trkpt lat="37.14943" lon="-8.69047">
        <ele>60.22</ele>
        <time>2021-01-24T12:25:21Z</time>
      </trkpt>
      <trkpt lat="37.14941" lon="-8.69052">
        <ele>60.22</ele>
        <time>2021-01-24T12:25:22Z</time>
      </trkpt>
      <trkpt lat="37.14938" lon="-8.69057">
        <ele>59.74</ele>
        <time>2021-01-24T12:25:23Z</time>
      </trkpt>
      <trkpt lat="37.14934" lon="-8.69061">
        <ele>59.74</ele>
        <time>2021-01-24T12:25:24Z</time>
      </trkpt>
      <trkpt lat="37.1493" lon="-8.69064">
        <ele>59.74</ele>
        <time>2021-01-24T12:25:25Z</time>
      </trkpt>
      <trkpt lat="37.14926" lon="-8.69064">
        <ele>59.74</ele>
        <time>2021-01-24T12:25:26Z</time>
      </trkpt>
      <trkpt lat="37.14923" lon="-8.69063">
        <ele>59.74</ele>
        <time>2021-01-24T12:25:27Z</time>
      </trkpt>
      <trkpt lat="37.1492" lon="-8.69062">
        <ele>59.74</ele>
        <time>2021-01-24T12:25:28Z</time>
      </trkpt>
      <trkpt lat="37.14917" lon="-8.69061">
        <ele>59.74</ele>
        <time>2021-01-24T12:25:29Z</time>
      </trkpt>
      <trkpt lat="37.14913" lon="-8.69058">
        <ele>59.74</ele>
        <time>2021-01-24T12:25:30Z</time>
      </trkpt>
      <trkpt lat="37.14909" lon="-8.69055">
        <ele>59.26</ele>
        <time>2021-01-24T12:25:31Z</time>
      </trkpt>
      <trkpt lat="37.14888" lon="-8.69039">
        <ele>56.37</ele>
        <time>2021-01-24T12:25:35Z</time>
      </trkpt>
      <trkpt lat="37.14883" lon="-8.69033">
        <ele>56.37</ele>
        <time>2021-01-24T12:25:36Z</time>
      </trkpt>
      <trkpt lat="37.14864" lon="-8.69012">
        <ele>55.89</ele>
        <time>2021-01-24T12:25:40Z</time>
      </trkpt>
      <trkpt lat="37.14844" lon="-8.68995">
        <ele>54.93</ele>
        <time>2021-01-24T12:25:44Z</time>
      </trkpt>
      <trkpt lat="37.14814" lon="-8.68958">
        <ele>55.41</ele>
        <time>2021-01-24T12:25:52Z</time>
      </trkpt>
      <trkpt lat="37.14793" lon="-8.68939">
        <ele>55.41</ele>
        <time>2021-01-24T12:25:59Z</time>
      </trkpt>
      <trkpt lat="37.14776" lon="-8.68929">
        <ele>56.37</ele>
        <time>2021-01-24T12:26:04Z</time>
      </trkpt>
      <trkpt lat="37.14756" lon="-8.68922">
        <ele>56.37</ele>
        <time>2021-01-24T12:26:09Z</time>
      </trkpt>
      <trkpt lat="37.14752" lon="-8.6892">
        <ele>56.37</ele>
        <time>2021-01-24T12:26:10Z</time>
      </trkpt>
      <trkpt lat="37.1474" lon="-8.68912">
        <ele>55.41</ele>
        <time>2021-01-24T12:26:13Z</time>
      </trkpt>
      <trkpt lat="37.14718" lon="-8.68909">
        <ele>55.41</ele>
        <time>2021-01-24T12:26:19Z</time>
      </trkpt>
      <trkpt lat="37.14714" lon="-8.68912">
        <ele>55.41</ele>
        <time>2021-01-24T12:26:20Z</time>
      </trkpt>
      <trkpt lat="37.14712" lon="-8.68914">
        <ele>55.41</ele>
        <time>2021-01-24T12:26:21Z</time>
      </trkpt>
      <trkpt lat="37.14708" lon="-8.68918">
        <ele>55.41</ele>
        <time>2021-01-24T12:26:22Z</time>
      </trkpt>
      <trkpt lat="37.14705" lon="-8.68922">
        <ele>55.41</ele>
        <time>2021-01-24T12:26:23Z</time>
      </trkpt>
      <trkpt lat="37.14674" lon="-8.6896">
        <ele>55.41</ele>
        <time>2021-01-24T12:26:33Z</time>
      </trkpt>
      <trkpt lat="37.14666" lon="-8.6897">
        <ele>56.86</ele>
        <time>2021-01-24T12:26:36Z</time>
      </trkpt>
      <trkpt lat="37.14636" lon="-8.69003">
        <ele>56.37</ele>
        <time>2021-01-24T12:26:45Z</time>
      </trkpt>
      <trkpt lat="37.14609" lon="-8.69033">
        <ele>53.01</ele>
        <time>2021-01-24T12:26:51Z</time>
      </trkpt>
      <trkpt lat="37.14586" lon="-8.6906">
        <ele>49.65</ele>
        <time>2021-01-24T12:26:55Z</time>
      </trkpt>
      <trkpt lat="37.14553" lon="-8.69099">
        <ele>46.76</ele>
        <time>2021-01-24T12:27:00Z</time>
      </trkpt>
      <trkpt lat="37.14521" lon="-8.69128">
        <ele>46.76</ele>
        <time>2021-01-24T12:27:05Z</time>
      </trkpt>
      <trkpt lat="37.14514" lon="-8.69131">
        <ele>46.76</ele>
        <time>2021-01-24T12:27:06Z</time>
      </trkpt>
      <trkpt lat="37.14482" lon="-8.6914">
        <ele>48.2</ele>
        <time>2021-01-24T12:27:12Z</time>
      </trkpt>
      <trkpt lat="37.14445" lon="-8.69146">
        <ele>50.13</ele>
        <time>2021-01-24T12:27:21Z</time>
      </trkpt>
      <trkpt lat="37.14411" lon="-8.69161">
        <ele>51.57</ele>
        <time>2021-01-24T12:27:30Z</time>
      </trkpt>
      <trkpt lat="37.14371" lon="-8.69182">
        <ele>54.45</ele>
        <time>2021-01-24T12:27:41Z</time>
      </trkpt>
      <trkpt lat="37.14331" lon="-8.69202">
        <ele>55.89</ele>
        <time>2021-01-24T12:27:52Z</time>
      </trkpt>
      <trkpt lat="37.14296" lon="-8.69226">
        <ele>56.37</ele>
        <time>2021-01-24T12:28:02Z</time>
      </trkpt>
      <trkpt lat="37.14257" lon="-8.69253">
        <ele>56.37</ele>
        <time>2021-01-24T12:28:13Z</time>
      </trkpt>
      <trkpt lat="37.14245" lon="-8.69257">
        <ele>55.41</ele>
        <time>2021-01-24T12:28:16Z</time>
      </trkpt>
      <trkpt lat="37.14241" lon="-8.69258">
        <ele>55.41</ele>
        <time>2021-01-24T12:28:17Z</time>
      </trkpt>
      <trkpt lat="37.14201" lon="-8.69254">
        <ele>53.97</ele>
        <time>2021-01-24T12:28:25Z</time>
      </trkpt>
      <trkpt lat="37.14196" lon="-8.69254">
        <ele>53.49</ele>
        <time>2021-01-24T12:28:26Z</time>
      </trkpt>
      <trkpt lat="37.1419" lon="-8.69255">
        <ele>53.49</ele>
        <time>2021-01-24T12:28:27Z</time>
      </trkpt>
      <trkpt lat="37.14184" lon="-8.69257">
        <ele>53.01</ele>
        <time>2021-01-24T12:28:28Z</time>
      </trkpt>
      <trkpt lat="37.14179" lon="-8.6926">
        <ele>53.01</ele>
        <time>2021-01-24T12:28:29Z</time>
      </trkpt>
      <trkpt lat="37.14173" lon="-8.69263">
        <ele>52.05</ele>
        <time>2021-01-24T12:28:30Z</time>
      </trkpt>
      <trkpt lat="37.14146" lon="-8.6928">
        <ele>51.57</ele>
        <time>2021-01-24T12:28:35Z</time>
      </trkpt>
      <trkpt lat="37.14139" lon="-8.69282">
        <ele>51.57</ele>
        <time>2021-01-24T12:28:36Z</time>
      </trkpt>
      <trkpt lat="37.14117" lon="-8.69283">
        <ele>49.16</ele>
        <time>2021-01-24T12:28:39Z</time>
      </trkpt>
      <trkpt lat="37.1411" lon="-8.69283">
        <ele>49.16</ele>
        <time>2021-01-24T12:28:40Z</time>
      </trkpt>
      <trkpt lat="37.14084" lon="-8.69278">
        <ele>45.8</ele>
        <time>2021-01-24T12:28:43Z</time>
      </trkpt>
      <trkpt lat="37.14055" lon="-8.6927">
        <ele>42.44</ele>
        <time>2021-01-24T12:28:46Z</time>
      </trkpt>
      <trkpt lat="37.13983" lon="-8.69253">
        <ele>40.03</ele>
        <time>2021-01-24T12:28:53Z</time>
      </trkpt>
      <trkpt lat="37.13919" lon="-8.69242">
        <ele>38.11</ele>
        <time>2021-01-24T12:29:00Z</time>
      </trkpt>
      <trkpt lat="37.13894" lon="-8.69236">
        <ele>36.67</ele>
        <time>2021-01-24T12:29:03Z</time>
      </trkpt>
      <trkpt lat="37.13834" lon="-8.69227">
        <ele>35.23</ele>
        <time>2021-01-24T12:29:10Z</time>
      </trkpt>
      <trkpt lat="37.13796" lon="-8.69223">
        <ele>36.19</ele>
        <time>2021-01-24T12:29:16Z</time>
      </trkpt>
      <trkpt lat="37.13784" lon="-8.69208">
        <ele>36.19</ele>
        <time>2021-01-24T12:29:21Z</time>
      </trkpt>
      <trkpt lat="37.13782" lon="-8.69203">
        <ele>36.19</ele>
        <time>2021-01-24T12:29:22Z</time>
      </trkpt>
      <trkpt lat="37.13781" lon="-8.69196">
        <ele>36.19</ele>
        <time>2021-01-24T12:29:23Z</time>
      </trkpt>
      <trkpt lat="37.1378" lon="-8.6919">
        <ele>36.67</ele>
        <time>2021-01-24T12:29:24Z</time>
      </trkpt>
      <trkpt lat="37.1378" lon="-8.69186">
        <ele>36.67</ele>
        <time>2021-01-24T12:29:25Z</time>
      </trkpt>
      <trkpt lat="37.1378" lon="-8.6918">
        <ele>36.19</ele>
        <time>2021-01-24T12:29:26Z</time>
      </trkpt>
      <trkpt lat="37.1378" lon="-8.69175">
        <ele>36.67</ele>
        <time>2021-01-24T12:29:27Z</time>
      </trkpt>
      <trkpt lat="37.13781" lon="-8.69135">
        <ele>36.19</ele>
        <time>2021-01-24T12:29:35Z</time>
      </trkpt>
      <trkpt lat="37.13774" lon="-8.69115">
        <ele>36.19</ele>
        <time>2021-01-24T12:29:41Z</time>
      </trkpt>
      <trkpt lat="37.13751" lon="-8.691">
        <ele>36.19</ele>
        <time>2021-01-24T12:29:49Z</time>
      </trkpt>
      <trkpt lat="37.13739" lon="-8.69089">
        <ele>35.23</ele>
        <time>2021-01-24T12:29:55Z</time>
      </trkpt>
      <trkpt lat="37.13739" lon="-8.69089">
        <ele>35.23</ele>
        <time>2021-01-24T12:30:04Z</time>
      </trkpt>
      <trkpt lat="37.13736" lon="-8.69086">
        <ele>35.23</ele>
        <time>2021-01-24T12:30:13Z</time>
      </trkpt>
      <trkpt lat="37.13735" lon="-8.69087">
        <ele>31.38</ele>
        <time>2021-01-24T12:30:19Z</time>
      </trkpt>
    </trkseg>
  </trk>
</gpx>